Wetterdaten: Donnerstag, 14.03.2019
Datum Zeit Temp. A. Pool Temp. Temp. 5cm Feuchte A. Luftdruck Regen Wind Richtung Richtung Sonnenschein ET UV Solar Taupunkt Windchill Windben Empfang
14.03.2019 00:01 4,5 C 7,2 C 3,3 C 76 % 1011,2 hPa 0,0 l/m 18,3 km/h (3 Bft) W-SW 240 0 min 0,000 mm 0,0 UV-I 0 W/m 0,6 C -3,1 C 29,0 km/h (5 Bft) 95,83 %
14.03.2019 00:02 4,5 C 7,2 C 3,3 C 77 % 1011,2 hPa 0,0 l/m 19,3 km/h (3 Bft) W-SW 240 0 min 0,000 mm 0,0 UV-I 0 W/m 0,8 C -3,5 C 19,3 km/h (3 Bft) 100,00 %
14.03.2019 00:04 4,4 C 7,2 C 3,3 C 77 % 1011,2 hPa 0,0 l/m 18,1 km/h (3 Bft) W-SW 244 0 min 0,000 mm 0,0 UV-I 0 W/m 0,7 C -3,1 C 27,4 km/h (4 Bft) 94,00 %
14.03.2019 00:06 4,4 C 7,2 C 3,3 C 77 % 1011,1 hPa 0,0 l/m 18,6 km/h (3 Bft) W-SW 245 0 min 0,000 mm 0,0 UV-I 0 W/m 0,7 C -3,4 C 29,0 km/h (5 Bft) 96,00 %
14.03.2019 00:08 4,4 C 7,2 C 3,3 C 76 % 1011,1 hPa 0,0 l/m 19,2 km/h (3 Bft) W-SW 241 0 min 0,000 mm 0,0 UV-I 0 W/m 0,5 C -3,6 C 27,4 km/h (4 Bft) 90,24 %
14.03.2019 00:10 4,4 C 7,2 C 3,3 C 77 % 1011,1 hPa 0,0 l/m 19,4 km/h (3 Bft) W-SW 253 0 min 0,000 mm 0,0 UV-I 0 W/m 0,7 C -3,7 C 29,0 km/h (5 Bft) 96,23 %
14.03.2019 00:12 4,4 C 7,2 C 3,3 C 76 % 1011,1 hPa 0,0 l/m 16,8 km/h (3 Bft) W-SW 248 0 min 0,000 mm 0,0 UV-I 0 W/m 0,5 C -2,5 C 24,1 km/h (4 Bft) 96,00 %
14.03.2019 00:14 4,4 C 7,2 C 3,3 C 76 % 1011,0 hPa 0,0 l/m 15,4 km/h (3 Bft) W-SW 245 0 min 0,000 mm 0,0 UV-I 0 W/m 0,5 C -1,9 C 24,1 km/h (4 Bft) 95,74 %
14.03.2019 00:16 4,4 C 7,2 C 3,3 C 76 % 1010,9 hPa 0,0 l/m 19,3 km/h (3 Bft) W-SW 242 0 min 0,000 mm 0,0 UV-I 0 W/m 0,5 C -3,7 C 25,7 km/h (4 Bft) 97,44 %
14.03.2019 00:18 4,4 C 7,2 C 3,3 C 76 % 1010,9 hPa 0,0 l/m 15,7 km/h (3 Bft) W-SW 240 0 min 0,000 mm 0,0 UV-I 0 W/m 0,5 C -2,0 C 27,4 km/h (4 Bft) 95,74 %
14.03.2019 00:20 4,3 C 7,2 C 3,3 C 76 % 1010,9 hPa 0,0 l/m 13,8 km/h (3 Bft) W-SW 243 0 min 0,000 mm 0,0 UV-I 0 W/m 0,5 C -1,1 C 20,9 km/h (4 Bft) 97,87 %
14.03.2019 00:22 4,3 C 7,2 C 3,3 C 76 % 1010,9 hPa 0,0 l/m 15,2 km/h (3 Bft) W-SW 237 0 min 0,000 mm 0,0 UV-I 0 W/m 0,5 C -1,9 C 24,1 km/h (4 Bft) 98,21 %
14.03.2019 00:24 4,3 C 7,2 C 3,3 C 76 % 1010,9 hPa 0,0 l/m 15,0 km/h (3 Bft) SW 218 0 min 0,000 mm 0,0 UV-I 0 W/m 0,5 C -1,8 C 19,3 km/h (3 Bft) 95,12 %
14.03.2019 00:26 4,3 C 7,2 C 3,3 C 76 % 1010,9 hPa 0,0 l/m 14,9 km/h (3 Bft) W-SW 257 0 min 0,000 mm 0,0 UV-I 0 W/m 0,5 C -1,7 C 27,4 km/h (4 Bft) 96,00 %
14.03.2019 00:28 4,3 C 7,2 C 3,3 C 76 % 1011,0 hPa 0,0 l/m 15,8 km/h (3 Bft) SW 224 0 min 0,000 mm 0,0 UV-I 0 W/m 0,5 C -2,2 C 27,4 km/h (4 Bft) 97,37 %
14.03.2019 00:30 4,3 C 7,2 C 3,3 C 76 % 1011,0 hPa 0,0 l/m 15,2 km/h (3 Bft) SW 235 0 min 0,000 mm 0,0 UV-I 0 W/m 0,5 C -1,9 C 22,5 km/h (4 Bft) 97,87 %
14.03.2019 00:32 4,3 C 7,2 C 3,3 C 76 % 1011,0 hPa 0,0 l/m 13,6 km/h (3 Bft) W-SW 237 0 min 0,000 mm 0,0 UV-I 0 W/m 0,5 C -1,0 C 19,3 km/h (3 Bft) 96,00 %
14.03.2019 00:34 4,3 C 7,2 C 3,3 C 76 % 1011,0 hPa 0,0 l/m 14,7 km/h (3 Bft) W-SW 243 0 min 0,000 mm 0,0 UV-I 0 W/m 0,5 C -1,6 C 20,9 km/h (4 Bft) 97,73 %
14.03.2019 00:36 4,3 C 7,2 C 3,3 C 76 % 1011,1 hPa 0,0 l/m 14,6 km/h (3 Bft) W-SW 248 0 min 0,000 mm 0,0 UV-I 0 W/m 0,5 C -1,6 C 22,5 km/h (4 Bft) 96,23 %
14.03.2019 00:38 4,3 C 7,2 C 3,3 C 76 % 1011,1 hPa 0,0 l/m 11,5 km/h (2 Bft) W-SW 248 0 min 0,000 mm 0,0 UV-I 0 W/m 0,5 C 0,3 C 17,7 km/h (3 Bft) 97,56 %
14.03.2019 00:40 4,3 C 7,2 C 3,9 C 75 % 1011,1 hPa 0,0 l/m 12,6 km/h (3 Bft) W 268 0 min 0,000 mm 0,0 UV-I 0 W/m 0,3 C -0,4 C 20,9 km/h (4 Bft) 98,11 %
14.03.2019 00:42 4,4 C 7,2 C 3,9 C 75 % 1011,3 hPa 0,0 l/m 12,4 km/h (3 Bft) W-SW 242 0 min 0,000 mm 0,0 UV-I 0 W/m 0,4 C -0,2 C 20,9 km/h (4 Bft) 100,00 %
14.03.2019 00:44 4,5 C 7,2 C 3,9 C 75 % 1011,2 hPa 0,0 l/m 24,8 km/h (4 Bft) SW 219 0 min 0,000 mm 0,0 UV-I 0 W/m 0,5 C -5,6 C 32,2 km/h (5 Bft) 97,87 %
14.03.2019 00:46 4,6 C 7,2 C 3,9 C 74 % 1011,2 hPa 0,0 l/m 20,5 km/h (4 Bft) W 260 0 min 0,000 mm 0,0 UV-I 0 W/m 0,4 C -3,9 C 33,8 km/h (5 Bft) 97,56 %
14.03.2019 00:48 4,7 C 7,2 C 4,4 C 73 % 1011,3 hPa 0,0 l/m 19,6 km/h (3 Bft) W 271 0 min 0,000 mm 0,0 UV-I 0 W/m 0,3 C -3,4 C 30,6 km/h (5 Bft) 95,12 %
14.03.2019 00:50 4,8 C 7,2 C 4,4 C 73 % 1011,4 hPa 0,0 l/m 26,8 km/h (4 Bft) W-NW 303 0 min 0,000 mm 0,0 UV-I 0 W/m 0,4 C -5,8 C 41,8 km/h (6 Bft) 96,00 %
14.03.2019 00:52 4,9 C 7,2 C 3,9 C 73 % 1011,3 hPa 0,0 l/m 27,9 km/h (4 Bft) S-SW 200 0 min 0,000 mm 0,0 UV-I 0 W/m 0,5 C -5,9 C 40,2 km/h (6 Bft) 94,87 %
14.03.2019 00:54 4,8 C 7,2 C 3,3 C 75 % 1011,4 hPa 0,0 l/m 25,9 km/h (4 Bft) W-SW 238 0 min 0,000 mm 0,0 UV-I 0 W/m 0,8 C -5,5 C 43,5 km/h (6 Bft) 96,55 %
14.03.2019 00:56 4,7 C 7,2 C 3,3 C 76 % 1011,4 hPa 0,0 l/m 28,3 km/h (4 Bft) SW 219 0 min 0,000 mm 0,0 UV-I 0 W/m 0,8 C -6,3 C 43,5 km/h (6 Bft) 93,62 %
14.03.2019 00:58 4,4 C 7,2 C 2,8 C 78 % 1011,5 hPa 0,0 l/m 28,1 km/h (4 Bft) W-SW 253 0 min 0,000 mm 0,0 UV-I 0 W/m 0,9 C -6,7 C 46,7 km/h (6 Bft) 93,75 %
14.03.2019 01:00 4,2 C 7,2 C 2,8 C 80 % 1011,4 hPa 0,0 l/m 24,4 km/h (4 Bft) W 269 0 min 0,051 mm 0,0 UV-I 0 W/m 1,1 C -5,8 C 38,6 km/h (5 Bft) 95,74 %
14.03.2019 01:02 4,0 C 7,2 C 2,8 C 81 % 1011,4 hPa 0,2 l/m 25,3 km/h (4 Bft) SW 234 0 min 0,000 mm 0,0 UV-I 0 W/m 1,0 C -6,4 C 41,8 km/h (6 Bft) 95,45 %
14.03.2019 01:04 3,8 C 7,2 C 2,8 C 83 % 1011,5 hPa 0,0 l/m 22,2 km/h (4 Bft) W 273 0 min 0,000 mm 0,0 UV-I 0 W/m 1,2 C -5,6 C 33,8 km/h (5 Bft) 94,34 %
14.03.2019 01:06 3,6 C 7,2 C 2,8 C 84 % 1011,5 hPa 0,0 l/m 27,1 km/h (4 Bft) W 266 0 min 0,000 mm 0,0 UV-I 0 W/m 1,2 C -7,5 C 35,4 km/h (5 Bft) 92,68 %
14.03.2019 01:08 3,5 C 7,2 C 2,8 C 85 % 1011,4 hPa 0,0 l/m 23,0 km/h (4 Bft) W-SW 242 0 min 0,000 mm 0,0 UV-I 0 W/m 1,2 C -6,3 C 33,8 km/h (5 Bft) 95,74 %
14.03.2019 01:10 3,4 C 7,2 C 2,8 C 85 % 1011,4 hPa 0,0 l/m 21,0 km/h (4 Bft) W 259 0 min 0,000 mm 0,0 UV-I 0 W/m 1,1 C -5,6 C 29,0 km/h (5 Bft) 96,00 %
14.03.2019 01:12 3,4 C 7,2 C 2,2 C 86 % 1011,4 hPa 0,0 l/m 19,4 km/h (3 Bft) W-SW 244 0 min 0,000 mm 0,0 UV-I 0 W/m 1,3 C -5,0 C 29,0 km/h (5 Bft) 98,00 %
14.03.2019 01:14 3,3 C 7,2 C 2,2 C 86 % 1011,4 hPa 0,0 l/m 20,0 km/h (4 Bft) W-SW 254 0 min 0,000 mm 0,0 UV-I 0 W/m 1,2 C -5,4 C 30,6 km/h (5 Bft) 100,00 %
14.03.2019 01:16 3,3 C 7,2 C 2,2 C 86 % 1011,4 hPa 0,0 l/m 26,2 km/h (4 Bft) SW 221 0 min 0,000 mm 0,0 UV-I 0 W/m 1,2 C -7,6 C 37,0 km/h (5 Bft) 100,00 %
14.03.2019 01:18 3,3 C 7,2 C 2,2 C 87 % 1011,4 hPa 0,2 l/m 19,3 km/h (3 Bft) W 268 0 min 0,000 mm 0,0 UV-I 0 W/m 1,3 C -5,1 C 30,6 km/h (5 Bft) 100,00 %
14.03.2019 01:20 3,2 C 7,2 C 2,2 C 87 % 1011,4 hPa 0,0 l/m 22,3 km/h (4 Bft) W-SW 257 0 min 0,000 mm 0,0 UV-I 0 W/m 1,2 C -6,4 C 33,8 km/h (5 Bft) 98,00 %
14.03.2019 01:22 3,2 C 7,2 C 2,2 C 87 % 1011,4 hPa 0,0 l/m 21,6 km/h (4 Bft) W-SW 248 0 min 0,000 mm 0,0 UV-I 0 W/m 1,2 C -6,1 C 35,4 km/h (5 Bft) 100,00 %
14.03.2019 01:24 3,2 C 7,2 C 2,2 C 87 % 1011,5 hPa 0,0 l/m 24,9 km/h (4 Bft) W 276 0 min 0,000 mm 0,0 UV-I 0 W/m 1,2 C -7,3 C 33,8 km/h (5 Bft) 100,00 %
14.03.2019 01:26 3,1 C 7,2 C 2,2 C 87 % 1011,5 hPa 0,0 l/m 18,0 km/h (3 Bft) W 269 0 min 0,000 mm 0,0 UV-I 0 W/m 1,2 C -4,7 C 29,0 km/h (5 Bft) 98,21 %
14.03.2019 01:28 3,1 C 7,2 C 2,2 C 88 % 1011,5 hPa 0,0 l/m 20,6 km/h (4 Bft) W 266 0 min 0,000 mm 0,0 UV-I 0 W/m 1,3 C -5,9 C 27,4 km/h (4 Bft) 100,00 %
14.03.2019 01:30 3,1 C 7,2 C 2,2 C 88 % 1011,4 hPa 0,0 l/m 21,3 km/h (4 Bft) W-SW 238 0 min 0,000 mm 0,0 UV-I 0 W/m 1,3 C -6,2 C 30,6 km/h (5 Bft) 100,00 %
14.03.2019 01:32 3,0 C 7,2 C 2,2 C 88 % 1011,4 hPa 0,0 l/m 22,3 km/h (4 Bft) SW 217 0 min 0,000 mm 0,0 UV-I 0 W/m 1,2 C -6,7 C 30,6 km/h (5 Bft) 100,00 %
14.03.2019 01:34 3,0 C 7,2 C 2,2 C 88 % 1011,4 hPa 0,0 l/m 20,0 km/h (4 Bft) SW 222 0 min 0,000 mm 0,0 UV-I 0 W/m 1,2 C -5,8 C 32,2 km/h (5 Bft) 100,00 %
14.03.2019 01:36 2,9 C 7,2 C 2,2 C 88 % 1011,4 hPa 0,0 l/m 19,6 km/h (3 Bft) W-SW 248 0 min 0,000 mm 0,0 UV-I 0 W/m 1,1 C -5,7 C 37,0 km/h (5 Bft) 100,00 %
14.03.2019 01:38 2,9 C 7,2 C 2,2 C 88 % 1011,3 hPa 0,0 l/m 23,2 km/h (4 Bft) W-SW 240 0 min 0,000 mm 0,0 UV-I 0 W/m 1,1 C -7,2 C 35,4 km/h (5 Bft) 97,56 %
14.03.2019 01:40 2,9 C 7,2 C 1,7 C 88 % 1011,2 hPa 0,0 l/m 23,7 km/h (4 Bft) SW 234 0 min 0,000 mm 0,0 UV-I 0 W/m 1,1 C -7,3 C 32,2 km/h (5 Bft) 100,00 %
14.03.2019 01:42 2,9 C 7,2 C 1,7 C 88 % 1011,3 hPa 0,0 l/m 22,0 km/h (4 Bft) SW 234 0 min 0,000 mm 0,0 UV-I 0 W/m 1,1 C -6,7 C 35,4 km/h (5 Bft) 100,00 %
14.03.2019 01:44 2,9 C 7,2 C 1,7 C 89 % 1011,2 hPa 0,0 l/m 26,1 km/h (4 Bft) W-SW 240 0 min 0,000 mm 0,0 UV-I 0 W/m 1,3 C -8,2 C 37,0 km/h (5 Bft) 97,37 %
14.03.2019 01:46 2,8 C 7,2 C 1,7 C 88 % 1011,2 hPa 0,0 l/m 20,9 km/h (4 Bft) W-SW 241 0 min 0,000 mm 0,0 UV-I 0 W/m 1,0 C -6,4 C 30,6 km/h (5 Bft) 96,23 %
14.03.2019 01:48 2,8 C 7,2 C 1,7 C 88 % 1011,0 hPa 0,0 l/m 23,8 km/h (4 Bft) SW 217 0 min 0,000 mm 0,0 UV-I 0 W/m 1,0 C -7,5 C 37,0 km/h (5 Bft) 97,37 %
14.03.2019 01:50 2,8 C 7,2 C 1,7 C 88 % 1011,0 hPa 0,0 l/m 22,7 km/h (4 Bft) SW 224 0 min 0,000 mm 0,0 UV-I 0 W/m 1,0 C -7,1 C 33,8 km/h (5 Bft) 98,21 %
14.03.2019 01:52 2,8 C 7,2 C 1,7 C 88 % 1011,0 hPa 0,0 l/m 24,1 km/h (4 Bft) W 278 0 min 0,000 mm 0,0 UV-I 0 W/m 1,0 C -7,6 C 37,0 km/h (5 Bft) 97,37 %
14.03.2019 01:54 2,9 C 7,2 C 1,7 C 88 % 1010,9 hPa 0,0 l/m 23,3 km/h (4 Bft) SW 225 0 min 0,000 mm 0,0 UV-I 0 W/m 1,1 C -7,2 C 30,6 km/h (5 Bft) 98,21 %
14.03.2019 01:56 2,9 C 7,2 C 1,7 C 88 % 1010,9 hPa 0,0 l/m 23,2 km/h (4 Bft) SW 219 0 min 0,000 mm 0,0 UV-I 0 W/m 1,1 C -7,2 C 35,4 km/h (5 Bft) 100,00 %
14.03.2019 01:58 2,9 C 7,2 C 1,7 C 88 % 1010,9 hPa 0,0 l/m 20,7 km/h (4 Bft) SW 235 0 min 0,000 mm 0,0 UV-I 0 W/m 1,1 C -6,2 C 29,0 km/h (5 Bft) 96,23 %
14.03.2019 02:00 2,9 C 7,2 C 2,2 C 88 % 1010,9 hPa 0,0 l/m 19,8 km/h (3 Bft) W-SW 238 0 min 0,025 mm 0,0 UV-I 0 W/m 1,1 C -5,8 C 25,7 km/h (4 Bft) 97,73 %
14.03.2019 02:02 2,9 C 7,2 C 2,2 C 88 % 1010,9 hPa 0,0 l/m 18,0 km/h (3 Bft) W-SW 246 0 min 0,000 mm 0,0 UV-I 0 W/m 1,1 C -5,0 C 27,4 km/h (4 Bft) 96,67 %
14.03.2019 02:04 2,9 C 7,2 C 1,7 C 88 % 1010,9 hPa 0,0 l/m 23,8 km/h (4 Bft) SW 225 0 min 0,000 mm 0,0 UV-I 0 W/m 1,1 C -7,4 C 33,8 km/h (5 Bft) 95,52 %
14.03.2019 02:06 2,9 C 7,2 C 1,7 C 88 % 1010,8 hPa 0,0 l/m 16,6 km/h (3 Bft) W-SW 239 0 min 0,000 mm 0,0 UV-I 0 W/m 1,1 C -4,3 C 24,1 km/h (4 Bft) 95,45 %
14.03.2019 02:08 2,9 C 7,2 C 1,7 C 88 % 1010,8 hPa 0,0 l/m 16,0 km/h (3 Bft) SW 236 0 min 0,000 mm 0,0 UV-I 0 W/m 1,1 C -4,0 C 20,9 km/h (4 Bft) 94,34 %
14.03.2019 02:10 2,9 C 7,2 C 1,7 C 88 % 1010,8 hPa 0,0 l/m 19,1 km/h (3 Bft) SW 234 0 min 0,000 mm 0,0 UV-I 0 W/m 1,1 C -5,5 C 30,6 km/h (5 Bft) 94,74 %
14.03.2019 02:12 2,9 C 7,2 C 1,7 C 88 % 1010,7 hPa 0,0 l/m 15,1 km/h (3 Bft) W-SW 239 0 min 0,000 mm 0,0 UV-I 0 W/m 1,1 C -3,5 C 20,9 km/h (4 Bft) 94,87 %
14.03.2019 02:14 2,8 C 7,2 C 1,7 C 88 % 1010,8 hPa 0,0 l/m 16,4 km/h (3 Bft) SW 219 0 min 0,000 mm 0,0 UV-I 0 W/m 1,0 C -4,3 C 25,7 km/h (4 Bft) 94,44 %
14.03.2019 02:16 2,8 C 7,2 C 1,7 C 88 % 1010,8 hPa 0,0 l/m 16,3 km/h (3 Bft) W 263 0 min 0,000 mm 0,0 UV-I 0 W/m 1,0 C -4,3 C 22,5 km/h (4 Bft) 95,74 %
14.03.2019 02:18 2,8 C 7,2 C 1,7 C 88 % 1010,8 hPa 0,0 l/m 17,1 km/h (3 Bft) W-SW 246 0 min 0,000 mm 0,0 UV-I 0 W/m 1,0 C -4,7 C 25,7 km/h (4 Bft) 95,74 %
14.03.2019 02:20 2,8 C 7,2 C 1,7 C 88 % 1010,8 hPa 0,0 l/m 16,6 km/h (3 Bft) W-SW 242 0 min 0,000 mm 0,0 UV-I 0 W/m 1,0 C -4,4 C 22,5 km/h (4 Bft) 97,73 %
14.03.2019 02:22 2,8 C 7,2 C 1,7 C 88 % 1010,7 hPa 0,0 l/m 15,9 km/h (3 Bft) W-SW 245 0 min 0,000 mm 0,0 UV-I 0 W/m 1,0 C -4,1 C 24,1 km/h (4 Bft) 96,23 %
14.03.2019 02:24 2,8 C 7,2 C 1,7 C 88 % 1010,7 hPa 0,0 l/m 14,2 km/h (3 Bft) W 262 0 min 0,000 mm 0,0 UV-I 0 W/m 1,0 C -3,1 C 20,9 km/h (4 Bft) 95,45 %
14.03.2019 02:26 2,8 C 7,2 C 1,7 C 89 % 1010,7 hPa 0,0 l/m 15,2 km/h (3 Bft) W-SW 254 0 min 0,000 mm 0,0 UV-I 0 W/m 1,2 C -3,7 C 20,9 km/h (4 Bft) 94,34 %
14.03.2019 02:28 2,8 C 7,2 C 1,7 C 89 % 1010,7 hPa 0,0 l/m 13,4 km/h (3 Bft) SW 236 0 min 0,000 mm 0,0 UV-I 0 W/m 1,2 C -2,7 C 24,1 km/h (4 Bft) 100,00 %
14.03.2019 02:30 2,8 C 7,2 C 2,2 C 88 % 1010,7 hPa 0,0 l/m 15,3 km/h (3 Bft) W-NW 285 0 min 0,000 mm 0,0 UV-I 0 W/m 1,0 C -3,8 C 24,1 km/h (4 Bft) 100,00 %
14.03.2019 02:32 2,8 C 7,2 C 2,2 C 88 % 1010,7 hPa 0,0 l/m 11,7 km/h (2 Bft) W-SW 250 0 min 0,000 mm 0,0 UV-I 0 W/m 1,0 C -1,6 C 17,7 km/h (3 Bft) 100,00 %
14.03.2019 02:34 2,9 C 7,2 C 2,2 C 88 % 1010,6 hPa 0,0 l/m 13,9 km/h (3 Bft) W-SW 253 0 min 0,000 mm 0,0 UV-I 0 W/m 1,1 C -2,8 C 22,5 km/h (4 Bft) 100,00 %
14.03.2019 02:36 2,9 C 7,2 C 2,2 C 88 % 1010,6 hPa 0,0 l/m 11,6 km/h (2 Bft) SW 229 0 min 0,000 mm 0,0 UV-I 0 W/m 1,1 C -1,4 C 17,7 km/h (3 Bft) 100,00 %
14.03.2019 02:38 2,9 C 7,2 C 2,2 C 88 % 1010,6 hPa 0,0 l/m 11,1 km/h (2 Bft) W-NW 283 0 min 0,000 mm 0,0 UV-I 0 W/m 1,1 C -1,0 C 17,7 km/h (3 Bft) 100,00 %
14.03.2019 02:40 3,0 C 7,2 C 2,2 C 88 % 1010,6 hPa 0,0 l/m 13,7 km/h (3 Bft) W 262 0 min 0,000 mm 0,0 UV-I 0 W/m 1,2 C -2,6 C 19,3 km/h (3 Bft) 97,37 %
14.03.2019 02:42 3,0 C 7,2 C 2,2 C 88 % 1010,6 hPa 0,0 l/m 11,7 km/h (2 Bft) W 265 0 min 0,000 mm 0,0 UV-I 0 W/m 1,2 C -1,3 C 17,7 km/h (3 Bft) 98,00 %
14.03.2019 02:44 3,1 C 7,2 C 2,2 C 88 % 1010,6 hPa 0,0 l/m 16,1 km/h (3 Bft) W 269 0 min 0,000 mm 0,0 UV-I 0 W/m 1,3 C -3,8 C 20,9 km/h (4 Bft) 100,00 %
14.03.2019 02:46 3,1 C 7,2 C 2,2 C 87 % 1010,6 hPa 0,0 l/m 14,6 km/h (3 Bft) W-SW 258 0 min 0,000 mm 0,0 UV-I 0 W/m 1,2 C -3,0 C 19,3 km/h (3 Bft) 100,00 %
14.03.2019 02:48 3,1 C 7,2 C 2,2 C 87 % 1010,6 hPa 0,0 l/m 14,4 km/h (3 Bft) W 268 0 min 0,000 mm 0,0 UV-I 0 W/m 1,2 C -2,9 C 19,3 km/h (3 Bft) 100,00 %
14.03.2019 02:50 3,2 C 7,2 C 2,2 C 87 % 1010,6 hPa 0,0 l/m 16,1 km/h (3 Bft) W 266 0 min 0,000 mm 0,0 UV-I 0 W/m 1,2 C -3,7 C 22,5 km/h (4 Bft) 100,00 %
14.03.2019 02:52 3,2 C 7,2 C 2,2 C 86 % 1010,6 hPa 0,0 l/m 17,5 km/h (3 Bft) W 270 0 min 0,000 mm 0,0 UV-I 0 W/m 1,1 C -4,4 C 27,4 km/h (4 Bft) 96,23 %
14.03.2019 02:54 3,3 C 7,2 C 2,2 C 86 % 1010,6 hPa 0,0 l/m 17,3 km/h (3 Bft) W-SW 240 0 min 0,000 mm 0,0 UV-I 0 W/m 1,2 C -4,2 C 24,1 km/h (4 Bft) 100,00 %
14.03.2019 02:56 3,3 C 7,2 C 2,2 C 86 % 1010,5 hPa 0,0 l/m 15,7 km/h (3 Bft) W-SW 258 0 min 0,000 mm 0,0 UV-I 0 W/m 1,2 C -3,4 C 20,9 km/h (4 Bft) 100,00 %
14.03.2019 02:58 3,3 C 7,2 C 2,2 C 86 % 1010,5 hPa 0,0 l/m 15,3 km/h (3 Bft) SW 224 0 min 0,000 mm 0,0 UV-I 0 W/m 1,2 C -3,1 C 27,4 km/h (4 Bft) 100,00 %
14.03.2019 03:00 3,4 C 7,2 C 2,8 C 85 % 1010,5 hPa 0,0 l/m 15,8 km/h (3 Bft) W-NW 283 0 min 0,000 mm 0,0 UV-I 0 W/m 1,1 C -3,3 C 24,1 km/h (4 Bft) 100,00 %
14.03.2019 03:02 3,4 C 7,2 C 2,8 C 85 % 1010,6 hPa 0,0 l/m 15,1 km/h (3 Bft) W 261 0 min 0,026 mm 0,0 UV-I 0 W/m 1,1 C -2,9 C 29,0 km/h (5 Bft) 98,11 %
14.03.2019 03:04 3,4 C 7,2 C 2,8 C 85 % 1010,6 hPa 0,0 l/m 16,8 km/h (3 Bft) W-SW 254 0 min 0,000 mm 0,0 UV-I 0 W/m 1,1 C -3,8 C 24,1 km/h (4 Bft) 100,00 %
14.03.2019 03:06 3,4 C 7,2 C 2,8 C 85 % 1010,6 hPa 0,0 l/m 18,2 km/h (3 Bft) W 271 0 min 0,000 mm 0,0 UV-I 0 W/m 1,1 C -4,5 C 25,7 km/h (4 Bft) 98,11 %
14.03.2019 03:08 3,5 C 7,2 C 2,8 C 85 % 1010,6 hPa 0,0 l/m 15,1 km/h (3 Bft) W 261 0 min 0,000 mm 0,0 UV-I 0 W/m 1,2 C -2,8 C 20,9 km/h (4 Bft) 97,73 %
14.03.2019 03:10 3,6 C 7,2 C 2,8 C 85 % 1010,7 hPa 0,0 l/m 17,9 km/h (3 Bft) W-SW 242 0 min 0,000 mm 0,0 UV-I 0 W/m 1,3 C -4,1 C 22,5 km/h (4 Bft) 100,00 %
14.03.2019 03:12 3,6 C 7,2 C 2,8 C 85 % 1010,7 hPa 0,0 l/m 14,3 km/h (3 Bft) W-SW 252 0 min 0,000 mm 0,0 UV-I 0 W/m 1,3 C -2,2 C 19,3 km/h (3 Bft) 100,00 %
14.03.2019 03:14 3,6 C 7,2 C 2,8 C 85 % 1010,7 hPa 0,0 l/m 20,3 km/h (4 Bft) W-SW 244 0 min 0,000 mm 0,0 UV-I 0 W/m 1,3 C -5,1 C 37,0 km/h (5 Bft) 100,00 %
14.03.2019 03:16 3,6 C 7,2 C 2,8 C 84 % 1010,8 hPa 0,0 l/m 17,5 km/h (3 Bft) S-SW 213 0 min 0,000 mm 0,0 UV-I 0 W/m 1,2 C -3,9 C 25,7 km/h (4 Bft) 100,00 %
14.03.2019 03:18 3,7 C 7,2 C 2,8 C 84 % 1010,8 hPa 0,0 l/m 20,0 km/h (4 Bft) W 265 0 min 0,000 mm 0,0 UV-I 0 W/m 1,3 C -4,9 C 30,6 km/h (5 Bft) 100,00 %
14.03.2019 03:20 3,7 C 7,2 C 2,8 C 84 % 1010,8 hPa 0,0 l/m 16,7 km/h (3 Bft) W 271 0 min 0,000 mm 0,0 UV-I 0 W/m 1,3 C -3,4 C 32,2 km/h (5 Bft) 100,00 %
14.03.2019 03:22 3,7 C 7,2 C 2,8 C 84 % 1010,8 hPa 0,0 l/m 25,2 km/h (4 Bft) W-SW 238 0 min 0,000 mm 0,0 UV-I 0 W/m 1,3 C -6,8 C 38,6 km/h (5 Bft) 100,00 %
14.03.2019 03:24 3,8 C 7,2 C 2,8 C 84 % 1010,9 hPa 0,0 l/m 23,6 km/h (4 Bft) W 268 0 min 0,000 mm 0,0 UV-I 0 W/m 1,4 C -6,1 C 37,0 km/h (5 Bft) 97,87 %
14.03.2019 03:26 3,8 C 7,2 C 2,8 C 84 % 1010,9 hPa 0,0 l/m 18,7 km/h (3 Bft) W-SW 249 0 min 0,000 mm 0,0 UV-I 0 W/m 1,4 C -4,2 C 25,7 km/h (4 Bft) 95,45 %
14.03.2019 03:28 3,8 C 7,2 C 2,8 C 84 % 1010,8 hPa 0,0 l/m 23,7 km/h (4 Bft) W 265 0 min 0,000 mm 0,0 UV-I 0 W/m 1,4 C -6,1 C 33,8 km/h (5 Bft) 98,00 %
14.03.2019 03:30 3,8 C 7,2 C 2,8 C 84 % 1010,8 hPa 0,0 l/m 21,5 km/h (4 Bft) W 273 0 min 0,000 mm 0,0 UV-I 0 W/m 1,4 C -5,3 C 27,4 km/h (4 Bft) 96,00 %
14.03.2019 03:32 3,8 C 7,2 C 2,8 C 84 % 1010,8 hPa 0,0 l/m 22,1 km/h (4 Bft) W-SW 255 0 min 0,000 mm 0,0 UV-I 0 W/m 1,4 C -5,5 C 29,0 km/h (5 Bft) 94,87 %
14.03.2019 03:34 3,9 C 7,2 C 2,8 C 84 % 1010,8 hPa 0,0 l/m 19,2 km/h (3 Bft) W-SW 254 0 min 0,000 mm 0,0 UV-I 0 W/m 1,4 C -4,3 C 37,0 km/h (5 Bft) 98,21 %
14.03.2019 03:36 3,9 C 7,2 C 2,8 C 84 % 1010,8 hPa 0,0 l/m 19,2 km/h (3 Bft) W 274 0 min 0,000 mm 0,0 UV-I 0 W/m 1,4 C -4,3 C 35,4 km/h (5 Bft) 97,37 %
14.03.2019 03:38 3,8 C 7,2 C 2,8 C 84 % 1010,8 hPa 0,0 l/m 18,7 km/h (3 Bft) W 277 0 min 0,000 mm 0,0 UV-I 0 W/m 1,4 C -4,2 C 30,6 km/h (5 Bft) 98,11 %
14.03.2019 03:40 3,8 C 7,2 C 2,8 C 84 % 1010,8 hPa 0,0 l/m 18,0 km/h (3 Bft) W-SW 245 0 min 0,000 mm 0,0 UV-I 0 W/m 1,4 C -3,9 C 30,6 km/h (5 Bft) 98,00 %
14.03.2019 03:42 3,8 C 7,2 C 2,8 C 85 % 1010,9 hPa 0,0 l/m 21,0 km/h (4 Bft) W 277 0 min 0,000 mm 0,0 UV-I 0 W/m 1,5 C -5,1 C 33,8 km/h (5 Bft) 97,87 %
14.03.2019 03:44 3,8 C 7,2 C 2,8 C 85 % 1010,9 hPa 0,0 l/m 22,5 km/h (4 Bft) W 264 0 min 0,000 mm 0,0 UV-I 0 W/m 1,5 C -5,7 C 30,6 km/h (5 Bft) 97,14 %
14.03.2019 03:46 3,8 C 7,2 C 2,8 C 85 % 1010,9 hPa 0,0 l/m 23,6 km/h (4 Bft) W 263 0 min 0,000 mm 0,0 UV-I 0 W/m 1,5 C -6,1 C 32,2 km/h (5 Bft) 100,00 %
14.03.2019 03:48 3,8 C 7,2 C 2,8 C 85 % 1011,0 hPa 0,0 l/m 24,0 km/h (4 Bft) W-SW 240 0 min 0,000 mm 0,0 UV-I 0 W/m 1,5 C -6,2 C 35,4 km/h (5 Bft) 97,73 %
14.03.2019 03:50 3,8 C 7,2 C 2,8 C 85 % 1011,0 hPa 0,0 l/m 23,5 km/h (4 Bft) SW 225 0 min 0,000 mm 0,0 UV-I 0 W/m 1,5 C -6,1 C 40,2 km/h (6 Bft) 100,00 %
14.03.2019 03:52 3,8 C 7,2 C 2,8 C 85 % 1011,0 hPa 0,0 l/m 20,9 km/h (4 Bft) W 279 0 min 0,000 mm 0,0 UV-I 0 W/m 1,5 C -5,1 C 37,0 km/h (5 Bft) 97,73 %
14.03.2019 03:54 3,8 C 7,2 C 2,8 C 85 % 1011,1 hPa 0,0 l/m 19,4 km/h (3 Bft) SW 216 0 min 0,000 mm 0,0 UV-I 0 W/m 1,5 C -4,5 C 29,0 km/h (5 Bft) 96,00 %
14.03.2019 03:56 3,8 C 7,2 C 2,8 C 86 % 1011,1 hPa 0,0 l/m 24,5 km/h (4 Bft) W-SW 255 0 min 0,000 mm 0,0 UV-I 0 W/m 1,7 C -6,4 C 32,2 km/h (5 Bft) 97,87 %
14.03.2019 03:58 3,8 C 7,2 C 2,8 C 86 % 1011,1 hPa 0,0 l/m 22,2 km/h (4 Bft) SW 222 0 min 0,000 mm 0,0 UV-I 0 W/m 1,7 C -5,6 C 32,2 km/h (5 Bft) 98,00 %
14.03.2019 04:00 3,8 C 7,2 C 2,8 C 86 % 1011,2 hPa 0,0 l/m 23,2 km/h (4 Bft) W-SW 244 0 min 0,025 mm 0,0 UV-I 0 W/m 1,7 C -6,0 C 41,8 km/h (6 Bft) 97,56 %
14.03.2019 04:02 3,7 C 7,2 C 2,8 C 86 % 1011,2 hPa 0,0 l/m 26,8 km/h (4 Bft) W-SW 241 0 min 0,000 mm 0,0 UV-I 0 W/m 1,6 C -7,3 C 40,2 km/h (6 Bft) 100,00 %
14.03.2019 04:04 3,7 C 7,2 C 2,8 C 86 % 1011,2 hPa 0,0 l/m 25,0 km/h (4 Bft) W 267 0 min 0,000 mm 0,0 UV-I 0 W/m 1,6 C -6,7 C 33,8 km/h (5 Bft) 98,00 %
14.03.2019 04:06 3,7 C 7,2 C 2,8 C 86 % 1011,2 hPa 0,0 l/m 19,5 km/h (3 Bft) SW 235 0 min 0,000 mm 0,0 UV-I 0 W/m 1,6 C -4,6 C 33,8 km/h (5 Bft) 94,00 %
14.03.2019 04:08 3,6 C 7,2 C 2,8 C 86 % 1011,2 hPa 0,0 l/m 23,6 km/h (4 Bft) W-NW 298 0 min 0,000 mm 0,0 UV-I 0 W/m 1,5 C -6,4 C 41,8 km/h (6 Bft) 97,44 %
14.03.2019 04:10 3,6 C 7,2 C 2,8 C 86 % 1011,2 hPa 0,0 l/m 19,2 km/h (3 Bft) W-SW 248 0 min 0,000 mm 0,0 UV-I 0 W/m 1,5 C -4,6 C 25,7 km/h (4 Bft) 95,12 %
14.03.2019 04:12 3,6 C 7,2 C 2,8 C 87 % 1011,3 hPa 0,0 l/m 28,7 km/h (4 Bft) W-SW 254 0 min 0,000 mm 0,0 UV-I 0 W/m 1,6 C -8,0 C 40,2 km/h (6 Bft) 94,92 %
14.03.2019 04:14 3,6 C 7,2 C 2,8 C 87 % 1011,3 hPa 0,0 l/m 26,1 km/h (4 Bft) W 265 0 min 0,000 mm 0,0 UV-I 0 W/m 1,6 C -7,2 C 38,6 km/h (5 Bft) 95,74 %
14.03.2019 04:16 3,6 C 7,2 C 2,8 C 87 % 1011,4 hPa 0,0 l/m 20,1 km/h (4 Bft) W-NW 293 0 min 0,000 mm 0,0 UV-I 0 W/m 1,6 C -5,0 C 32,2 km/h (5 Bft) 96,00 %
14.03.2019 04:18 3,6 C 7,2 C 2,8 C 87 % 1011,3 hPa 0,0 l/m 24,5 km/h (4 Bft) SW 225 0 min 0,000 mm 0,0 UV-I 0 W/m 1,6 C -6,7 C 30,6 km/h (5 Bft) 95,45 %
14.03.2019 04:20 3,6 C 7,2 C 2,8 C 87 % 1011,4 hPa 0,0 l/m 19,2 km/h (3 Bft) W-SW 255 0 min 0,000 mm 0,0 UV-I 0 W/m 1,6 C -4,6 C 32,2 km/h (5 Bft) 90,24 %
14.03.2019 04:22 3,5 C 7,2 C 2,8 C 87 % 1011,3 hPa 0,0 l/m 22,0 km/h (4 Bft) W-SW 242 0 min 0,000 mm 0,0 UV-I 0 W/m 1,5 C -5,9 C 29,0 km/h (5 Bft) 94,00 %
14.03.2019 04:24 3,5 C 7,2 C 2,8 C 87 % 1011,3 hPa 0,0 l/m 18,8 km/h (3 Bft) W-SW 252 0 min 0,000 mm 0,0 UV-I 0 W/m 1,5 C -4,6 C 27,4 km/h (4 Bft) 95,12 %
14.03.2019 04:26 3,5 C 7,2 C 2,8 C 87 % 1011,3 hPa 0,0 l/m 23,6 km/h (4 Bft) W-SW 252 0 min 0,000 mm 0,0 UV-I 0 W/m 1,5 C -6,5 C 33,8 km/h (5 Bft) 92,45 %
14.03.2019 04:28 3,5 C 7,2 C 2,8 C 87 % 1011,3 hPa 0,0 l/m 20,0 km/h (4 Bft) W-SW 247 0 min 0,000 mm 0,0 UV-I 0 W/m 1,5 C -5,1 C 30,6 km/h (5 Bft) 96,00 %
14.03.2019 04:30 3,4 C 7,2 C 2,8 C 88 % 1011,4 hPa 0,0 l/m 20,6 km/h (4 Bft) S-SW 206 0 min 0,000 mm 0,0 UV-I 0 W/m 1,6 C -5,5 C 32,2 km/h (5 Bft) 97,37 %
14.03.2019 04:32 3,4 C 7,2 C 2,8 C 88 % 1011,4 hPa 0,0 l/m 19,8 km/h (3 Bft) SW 227 0 min 0,000 mm 0,0 UV-I 0 W/m 1,6 C -5,2 C 30,6 km/h (5 Bft) 98,00 %
14.03.2019 04:34 3,4 C 7,2 C 2,8 C 88 % 1011,4 hPa 0,0 l/m 18,2 km/h (3 Bft) SW 229 0 min 0,000 mm 0,0 UV-I 0 W/m 1,6 C -4,5 C 29,0 km/h (5 Bft) 96,23 %
14.03.2019 04:36 3,4 C 7,2 C 2,8 C 88 % 1011,5 hPa 0,0 l/m 22,3 km/h (4 Bft) SW 225 0 min 0,000 mm 0,0 UV-I 0 W/m 1,6 C -6,2 C 35,4 km/h (5 Bft) 97,37 %
14.03.2019 04:38 3,4 C 7,2 C 2,8 C 88 % 1011,5 hPa 0,0 l/m 19,2 km/h (3 Bft) W-SW 242 0 min 0,000 mm 0,0 UV-I 0 W/m 1,6 C -4,9 C 32,2 km/h (5 Bft) 98,21 %
14.03.2019 04:40 3,4 C 7,2 C 2,8 C 88 % 1011,5 hPa 0,0 l/m 22,0 km/h (4 Bft) W-SW 238 0 min 0,000 mm 0,0 UV-I 0 W/m 1,6 C -6,0 C 33,8 km/h (5 Bft) 96,00 %
14.03.2019 04:42 3,4 C 7,2 C 2,8 C 88 % 1011,5 hPa 0,0 l/m 20,8 km/h (4 Bft) S-SW 207 0 min 0,000 mm 0,0 UV-I 0 W/m 1,6 C -5,6 C 33,8 km/h (5 Bft) 95,12 %
14.03.2019 04:44 3,4 C 7,2 C 2,8 C 88 % 1011,5 hPa 0,0 l/m 17,8 km/h (3 Bft) SW 226 0 min 0,000 mm 0,0 UV-I 0 W/m 1,6 C -4,3 C 25,7 km/h (4 Bft) 95,74 %
14.03.2019 04:46 3,4 C 7,2 C 2,8 C 88 % 1011,6 hPa 0,0 l/m 21,2 km/h (4 Bft) W-SW 242 0 min 0,000 mm 0,0 UV-I 0 W/m 1,6 C -5,7 C 32,2 km/h (5 Bft) 94,87 %
14.03.2019 04:48 3,4 C 7,2 C 2,8 C 88 % 1011,6 hPa 0,0 l/m 18,4 km/h (3 Bft) SW 220 0 min 0,000 mm 0,0 UV-I 0 W/m 1,6 C -4,5 C 29,0 km/h (5 Bft) 96,43 %
14.03.2019 04:50 3,4 C 7,2 C 2,8 C 88 % 1011,6 hPa 0,0 l/m 15,2 km/h (3 Bft) S-SW 206 0 min 0,000 mm 0,0 UV-I 0 W/m 1,6 C -3,0 C 24,1 km/h (4 Bft) 95,45 %
14.03.2019 04:52 3,4 C 7,2 C 2,8 C 88 % 1011,6 hPa 0,0 l/m 15,5 km/h (3 Bft) W-SW 243 0 min 0,000 mm 0,0 UV-I 0 W/m 1,6 C -3,1 C 24,1 km/h (4 Bft) 94,34 %
14.03.2019 04:54 3,4 C 7,2 C 2,8 C 88 % 1011,6 hPa 0,0 l/m 18,1 km/h (3 Bft) W-SW 248 0 min 0,000 mm 0,0 UV-I 0 W/m 1,6 C -4,4 C 30,6 km/h (5 Bft) 97,37 %
14.03.2019 04:56 3,4 C 7,2 C 2,8 C 88 % 1011,6 hPa 0,0 l/m 19,4 km/h (3 Bft) SW 236 0 min 0,000 mm 0,0 UV-I 0 W/m 1,6 C -5,0 C 30,6 km/h (5 Bft) 94,64 %
14.03.2019 04:58 3,4 C 7,2 C 2,8 C 88 % 1011,7 hPa 0,0 l/m 17,0 km/h (3 Bft) W-SW 257 0 min 0,000 mm 0,0 UV-I 0 W/m 1,6 C -3,9 C 24,1 km/h (4 Bft) 95,74 %
14.03.2019 05:00 3,5 C 7,2 C 2,8 C 88 % 1011,7 hPa 0,0 l/m 16,3 km/h (3 Bft) SW 227 0 min 0,000 mm 0,0 UV-I 0 W/m 1,7 C -3,4 C 24,1 km/h (4 Bft) 92,11 %
14.03.2019 05:02 3,5 C 7,2 C 3,3 C 88 % 1011,8 hPa 0,0 l/m 14,2 km/h (3 Bft) W-SW 248 0 min 0,025 mm 0,0 UV-I 0 W/m 1,7 C -2,3 C 19,3 km/h (3 Bft) 92,00 %
14.03.2019 05:04 3,6 C 7,2 C 3,3 C 88 % 1011,9 hPa 0,0 l/m 17,1 km/h (3 Bft) W 261 0 min 0,000 mm 0,0 UV-I 0 W/m 1,8 C -3,7 C 25,7 km/h (4 Bft) 94,29 %
14.03.2019 05:06 3,6 C 7,2 C 3,3 C 88 % 1011,9 hPa 0,0 l/m 12,0 km/h (2 Bft) W-SW 244 0 min 0,000 mm 0,0 UV-I 0 W/m 1,8 C -0,9 C 24,1 km/h (4 Bft) 96,77 %
14.03.2019 05:08 3,6 C 7,2 C 3,3 C 88 % 1012,0 hPa 0,0 l/m 15,8 km/h (3 Bft) SW 236 0 min 0,000 mm 0,0 UV-I 0 W/m 1,8 C -3,0 C 20,9 km/h (4 Bft) 98,00 %
14.03.2019 05:10 3,7 C 7,2 C 3,3 C 88 % 1011,9 hPa 0,0 l/m 14,1 km/h (3 Bft) W 259 0 min 0,000 mm 0,0 UV-I 0 W/m 1,9 C -2,0 C 19,3 km/h (3 Bft) 97,87 %
14.03.2019 05:12 3,8 C 7,2 C 3,3 C 87 % 1011,9 hPa 0,0 l/m 12,4 km/h (3 Bft) W 276 0 min 0,000 mm 0,0 UV-I 0 W/m 1,8 C -0,9 C 19,3 km/h (3 Bft) 97,37 %
14.03.2019 05:14 3,8 C 7,2 C 3,3 C 87 % 1011,9 hPa 0,0 l/m 15,5 km/h (3 Bft) SW 227 0 min 0,000 mm 0,0 UV-I 0 W/m 1,8 C -2,6 C 27,4 km/h (4 Bft) 97,87 %
14.03.2019 05:16 3,9 C 7,2 C 3,3 C 86 % 1011,9 hPa 0,0 l/m 16,1 km/h (3 Bft) W-SW 253 0 min 0,000 mm 0,0 UV-I 0 W/m 1,8 C -2,8 C 27,4 km/h (4 Bft) 98,00 %
14.03.2019 05:18 4,1 C 7,2 C 3,3 C 86 % 1012,0 hPa 0,0 l/m 14,7 km/h (3 Bft) W 273 0 min 0,000 mm 0,0 UV-I 0 W/m 2,0 C -1,9 C 25,7 km/h (4 Bft) 100,00 %
14.03.2019 05:20 4,1 C 7,2 C 3,3 C 85 % 1011,9 hPa 0,0 l/m 13,5 km/h (3 Bft) SW 234 0 min 0,000 mm 0,0 UV-I 0 W/m 1,8 C -1,2 C 20,9 km/h (4 Bft) 100,00 %
14.03.2019 05:22 4,1 C 7,2 C 3,3 C 85 % 1011,9 hPa 0,0 l/m 12,9 km/h (3 Bft) W 274 0 min 0,000 mm 0,0 UV-I 0 W/m 1,8 C -0,8 C 19,3 km/h (3 Bft) 100,00 %
14.03.2019 05:24 4,2 C 7,2 C 3,3 C 85 % 1011,9 hPa 0,0 l/m 13,4 km/h (3 Bft) W 272 0 min 0,000 mm 0,0 UV-I 0 W/m 1,9 C -1,0 C 20,9 km/h (4 Bft) 100,00 %
14.03.2019 05:26 4,2 C 7,2 C 3,3 C 84 % 1011,9 hPa 0,0 l/m 15,2 km/h (3 Bft) SW 236 0 min 0,000 mm 0,0 UV-I 0 W/m 1,7 C -2,0 C 27,4 km/h (4 Bft) 97,87 %
14.03.2019 05:28 4,2 C 7,2 C 3,3 C 84 % 1011,9 hPa 0,0 l/m 15,5 km/h (3 Bft) W 267 0 min 0,000 mm 0,0 UV-I 0 W/m 1,7 C -2,2 C 20,9 km/h (4 Bft) 96,00 %
14.03.2019 05:30 4,3 C 7,2 C 3,3 C 84 % 1011,9 hPa 0,0 l/m 16,4 km/h (3 Bft) W-SW 257 0 min 0,000 mm 0,0 UV-I 0 W/m 1,8 C -2,5 C 24,1 km/h (4 Bft) 100,00 %
14.03.2019 05:32 4,3 C 7,2 C 3,3 C 84 % 1011,8 hPa 0,0 l/m 20,7 km/h (4 Bft) W-SW 245 0 min 0,000 mm 0,0 UV-I 0 W/m 1,8 C -4,4 C 30,6 km/h (5 Bft) 100,00 %
14.03.2019 05:34 4,3 C 7,2 C 3,3 C 84 % 1011,9 hPa 0,0 l/m 19,7 km/h (3 Bft) W-SW 245 0 min 0,000 mm 0,0 UV-I 0 W/m 1,8 C -4,0 C 32,2 km/h (5 Bft) 100,00 %
14.03.2019 05:36 4,2 C 7,2 C 3,3 C 85 % 1011,9 hPa 0,0 l/m 14,5 km/h (3 Bft) W 260 0 min 0,000 mm 0,0 UV-I 0 W/m 1,9 C -1,6 C 20,9 km/h (4 Bft) 100,00 %
14.03.2019 05:38 4,2 C 7,2 C 3,3 C 85 % 1011,9 hPa 0,0 l/m 16,7 km/h (3 Bft) W 261 0 min 0,000 mm 0,0 UV-I 0 W/m 1,9 C -2,7 C 24,1 km/h (4 Bft) 100,00 %
14.03.2019 05:40 4,1 C 7,2 C 3,3 C 85 % 1011,9 hPa 0,0 l/m 14,6 km/h (3 Bft) W-SW 258 0 min 0,000 mm 0,0 UV-I 0 W/m 1,8 C -1,8 C 22,5 km/h (4 Bft) 98,21 %
14.03.2019 05:42 4,1 C 7,2 C 3,3 C 86 % 1012,0 hPa 0,0 l/m 15,3 km/h (3 Bft) W 267 0 min 0,000 mm 0,0 UV-I 0 W/m 2,0 C -2,2 C 20,9 km/h (4 Bft) 100,00 %
14.03.2019 05:44 4,0 C 7,2 C 3,3 C 87 % 1012,1 hPa 0,0 l/m 18,1 km/h (3 Bft) W 261 0 min 0,000 mm 0,0 UV-I 0 W/m 2,0 C -3,6 C 25,7 km/h (4 Bft) 100,00 %
14.03.2019 05:46 3,9 C 7,2 C 3,3 C 87 % 1012,1 hPa 0,0 l/m 16,7 km/h (3 Bft) W 273 0 min 0,000 mm 0,0 UV-I 0 W/m 1,9 C -3,1 C 20,9 km/h (4 Bft) 97,37 %
14.03.2019 05:48 3,9 C 7,2 C 3,3 C 87 % 1012,1 hPa 0,0 l/m 13,9 km/h (3 Bft) W 264 0 min 0,000 mm 0,0 UV-I 0 W/m 1,9 C -1,7 C 19,3 km/h (3 Bft) 100,00 %
14.03.2019 05:50 3,8 C 7,2 C 3,3 C 88 % 1012,2 hPa 0,0 l/m 15,1 km/h (3 Bft) W 269 0 min 0,000 mm 0,0 UV-I 0 W/m 2,0 C -2,4 C 22,5 km/h (4 Bft) 100,00 %
14.03.2019 05:52 3,8 C 7,2 C 2,8 C 88 % 1012,2 hPa 0,2 l/m 17,3 km/h (3 Bft) W-SW 258 0 min 0,000 mm 0,0 UV-I 0 W/m 2,0 C -3,5 C 33,8 km/h (5 Bft) 98,11 %
14.03.2019 05:54 3,7 C 7,2 C 2,8 C 88 % 1012,2 hPa 0,0 l/m 19,4 km/h (3 Bft) W 277 0 min 0,000 mm 0,0 UV-I 0 W/m 1,9 C -4,6 C 33,8 km/h (5 Bft) 100,00 %
14.03.2019 05:56 3,7 C 7,2 C 2,8 C 88 % 1012,2 hPa 0,2 l/m 14,8 km/h (3 Bft) W 273 0 min 0,000 mm 0,0 UV-I 0 W/m 1,9 C -2,4 C 25,7 km/h (4 Bft) 100,00 %
14.03.2019 05:58 3,7 C 7,2 C 2,8 C 88 % 1012,2 hPa 0,0 l/m 12,9 km/h (3 Bft) W 264 0 min 0,000 mm 0,0 UV-I 0 W/m 1,9 C -1,3 C 17,7 km/h (3 Bft) 100,00 %
14.03.2019 06:00 3,6 C 7,2 C 2,8 C 89 % 1012,2 hPa 0,2 l/m 13,5 km/h (3 Bft) W 274 0 min 0,026 mm 0,0 UV-I 0 W/m 2,0 C -1,8 C 17,7 km/h (3 Bft) 97,78 %
14.03.2019 06:02 3,5 C 7,2 C 2,8 C 89 % 1012,2 hPa 0,0 l/m 17,5 km/h (3 Bft) W 275 0 min 0,000 mm 0,0 UV-I 0 W/m 1,9 C -4,0 C 24,1 km/h (4 Bft) 95,12 %
14.03.2019 06:04 3,4 C 7,2 C 2,8 C 89 % 1012,2 hPa 0,2 l/m 13,2 km/h (3 Bft) W 273 0 min 0,000 mm 0,0 UV-I 0 W/m 1,8 C -1,8 C 19,3 km/h (3 Bft) 96,00 %
14.03.2019 06:06 3,4 C 7,2 C 2,8 C 89 % 1012,2 hPa 0,0 l/m 12,4 km/h (3 Bft) W 280 0 min 0,000 mm 0,0 UV-I 0 W/m 1,8 C -1,3 C 17,7 km/h (3 Bft) 92,00 %
14.03.2019 06:08 3,3 C 7,2 C 2,8 C 90 % 1012,2 hPa 0,2 l/m 13,3 km/h (3 Bft) W-SW 257 0 min 0,000 mm 0,0 UV-I 0 W/m 1,8 C -2,0 C 17,7 km/h (3 Bft) 97,56 %
14.03.2019 06:10 3,3 C 7,2 C 2,8 C 90 % 1012,2 hPa 0,0 l/m 14,5 km/h (3 Bft) W 271 0 min 0,000 mm 0,0 UV-I 0 W/m 1,8 C -2,7 C 22,5 km/h (4 Bft) 96,43 %
14.03.2019 06:12 3,3 C 7,2 C 2,8 C 90 % 1012,2 hPa 0,2 l/m 15,9 km/h (3 Bft) SW 234 0 min 0,000 mm 0,0 UV-I 0 W/m 1,8 C -3,5 C 20,9 km/h (4 Bft) 93,62 %
14.03.2019 06:14 3,2 C 7,2 C 2,8 C 91 % 1012,2 hPa 0,0 l/m 11,4 km/h (2 Bft) W 267 0 min 0,000 mm 0,0 UV-I 0 W/m 1,9 C -0,9 C 17,7 km/h (3 Bft) 95,45 %
14.03.2019 06:16 3,2 C 7,2 C 2,8 C 91 % 1012,2 hPa 0,0 l/m 14,5 km/h (3 Bft) W 270 0 min 0,000 mm 0,0 UV-I 0 W/m 1,9 C -2,8 C 22,5 km/h (4 Bft) 96,00 %
14.03.2019 06:18 3,2 C 7,2 C 2,8 C 91 % 1012,4 hPa 0,2 l/m 10,9 km/h (2 Bft) W 266 0 min 0,000 mm 0,0 UV-I 0 W/m 1,9 C -0,6 C 16,1 km/h (3 Bft) 95,74 %
14.03.2019 06:20 3,2 C 7,2 C 2,8 C 91 % 1012,3 hPa 0,2 l/m 10,0 km/h (2 Bft) W 280 0 min 0,000 mm 0,0 UV-I 0 W/m 1,9 C 0,1 C 17,7 km/h (3 Bft) 95,45 %
14.03.2019 06:22 3,1 C 7,2 C 2,8 C 92 % 1012,2 hPa 0,0 l/m 9,1 km/h (2 Bft) W 263 0 min 0,000 mm 0,0 UV-I 1 W/m 1,9 C 0,7 C 12,9 km/h (3 Bft) 97,73 %
14.03.2019 06:24 3,0 C 7,2 C 2,8 C 92 % 1012,2 hPa 0,2 l/m 12,5 km/h (3 Bft) W-NW 283 0 min 0,000 mm 0,0 UV-I 5 W/m 1,8 C -1,9 C 17,7 km/h (3 Bft) 96,23 %
14.03.2019 06:26 3,0 C 7,2 C 2,8 C 92 % 1012,2 hPa 0,0 l/m 12,8 km/h (3 Bft) W-NW 287 0 min 0,000 mm 0,0 UV-I 5 W/m 1,8 C -2,1 C 19,3 km/h (3 Bft) 97,56 %
14.03.2019 06:28 3,0 C 7,2 C 2,8 C 92 % 1012,3 hPa 0,0 l/m 10,2 km/h (2 Bft) W 265 0 min 0,000 mm 0,0 UV-I 1 W/m 1,8 C -0,3 C 12,9 km/h (3 Bft) 96,23 %
14.03.2019 06:30 3,1 C 7,2 C 2,8 C 92 % 1012,2 hPa 0,0 l/m 10,7 km/h (2 Bft) W-SW 258 0 min 0,000 mm 0,0 UV-I 5 W/m 1,9 C -0,5 C 16,1 km/h (3 Bft) 97,56 %
14.03.2019 06:32 3,1 C 7,2 C 2,8 C 93 % 1012,2 hPa 0,2 l/m 12,7 km/h (3 Bft) W-SW 248 0 min 0,000 mm 0,0 UV-I 5 W/m 2,1 C -1,9 C 17,7 km/h (3 Bft) 98,00 %
14.03.2019 06:34 3,1 C 7,2 C 2,8 C 93 % 1012,2 hPa 0,0 l/m 12,8 km/h (3 Bft) W-SW 257 0 min 0,000 mm 0,0 UV-I 5 W/m 2,1 C -1,9 C 19,3 km/h (3 Bft) 97,44 %
14.03.2019 06:36 3,1 C 7,2 C 2,8 C 93 % 1012,2 hPa 0,0 l/m 9,5 km/h (2 Bft) W 274 0 min 0,000 mm 0,0 UV-I 7 W/m 2,1 C 0,4 C 16,1 km/h (3 Bft) 98,00 %
14.03.2019 06:38 3,1 C 7,2 C 2,8 C 93 % 1012,2 hPa 0,0 l/m 11,9 km/h (2 Bft) W 265 0 min 0,000 mm 0,0 UV-I 8 W/m 2,1 C -1,4 C 14,5 km/h (3 Bft) 95,12 %
14.03.2019 06:40 3,1 C 7,2 C 2,8 C 93 % 1012,2 hPa 0,0 l/m 13,8 km/h (3 Bft) W-NW 285 0 min 0,000 mm 0,0 UV-I 7 W/m 2,1 C -2,5 C 17,7 km/h (3 Bft) 98,11 %
14.03.2019 06:42 3,1 C 7,2 C 2,8 C 93 % 1012,2 hPa 0,0 l/m 11,4 km/h (2 Bft) W 275 0 min 0,000 mm 0,0 UV-I 7 W/m 2,1 C -1,0 C 17,7 km/h (3 Bft) 97,67 %
14.03.2019 06:44 3,1 C 7,2 C 2,8 C 93 % 1012,2 hPa 0,0 l/m 10,1 km/h (2 Bft) W-SW 241 0 min 0,000 mm 0,0 UV-I 9 W/m 2,1 C -0,1 C 16,1 km/h (3 Bft) 98,00 %
14.03.2019 06:46 3,2 C 7,2 C 2,8 C 93 % 1012,2 hPa 0,0 l/m 12,1 km/h (2 Bft) W-SW 250 0 min 0,000 mm 0,0 UV-I 9 W/m 2,2 C -1,4 C 17,7 km/h (3 Bft) 100,00 %
14.03.2019 06:48 3,2 C 7,2 C 2,8 C 93 % 1012,2 hPa 0,0 l/m 10,2 km/h (2 Bft) W 271 0 min 0,000 mm 0,0 UV-I 11 W/m 2,2 C -0,1 C 19,3 km/h (3 Bft) 100,00 %
14.03.2019 06:50 3,3 C 7,2 C 2,8 C 93 % 1012,2 hPa 0,0 l/m 10,5 km/h (2 Bft) W-SW 255 0 min 0,000 mm 0,0 UV-I 10 W/m 2,3 C -0,2 C 16,1 km/h (3 Bft) 96,61 %
14.03.2019 06:52 3,3 C 7,2 C 2,8 C 93 % 1012,3 hPa 0,0 l/m 10,1 km/h (2 Bft) W-SW 244 0 min 0,000 mm 0,0 UV-I 9 W/m 2,3 C 0,1 C 16,1 km/h (3 Bft) 97,87 %
14.03.2019 06:54 3,3 C 7,2 C 2,8 C 93 % 1012,3 hPa 0,0 l/m 12,6 km/h (3 Bft) W-SW 248 0 min 0,000 mm 0,0 UV-I 10 W/m 2,3 C -1,6 C 20,9 km/h (4 Bft) 100,00 %
14.03.2019 06:56 3,4 C 7,2 C 2,8 C 93 % 1012,3 hPa 0,0 l/m 10,7 km/h (2 Bft) W 267 0 min 0,000 mm 0,0 UV-I 12 W/m 2,4 C -0,2 C 16,1 km/h (3 Bft) 100,00 %
14.03.2019 06:58 3,4 C 7,2 C 2,8 C 92 % 1012,3 hPa 0,0 l/m 13,2 km/h (3 Bft) W 273 0 min 0,000 mm 0,0 UV-I 16 W/m 2,2 C -1,8 C 20,9 km/h (4 Bft) 100,00 %
14.03.2019 07:00 3,5 C 7,2 C 3,3 C 92 % 1012,3 hPa 0,0 l/m 14,9 km/h (3 Bft) W 267 0 min 0,000 mm 0,0 UV-I 20 W/m 2,3 C -2,7 C 24,1 km/h (4 Bft) 100,00 %
14.03.2019 07:02 3,6 C 7,2 C 3,3 C 92 % 1012,3 hPa 0,0 l/m 12,1 km/h (2 Bft) W 271 0 min 0,000 mm 0,0 UV-I 28 W/m 2,4 C -0,9 C 17,7 km/h (3 Bft) 96,23 %
14.03.2019 07:04 3,6 C 7,2 C 3,3 C 92 % 1012,3 hPa 0,0 l/m 13,0 km/h (3 Bft) W 266 0 min 0,000 mm 0,0 UV-I 33 W/m 2,4 C -1,5 C 20,9 km/h (4 Bft) 100,00 %
14.03.2019 07:06 3,6 C 7,2 C 3,3 C 92 % 1012,3 hPa 0,0 l/m 16,7 km/h (3 Bft) W 259 0 min 0,000 mm 0,0 UV-I 31 W/m 2,4 C -3,5 C 20,9 km/h (4 Bft) 98,11 %
14.03.2019 07:08 3,7 C 7,2 C 3,3 C 91 % 1012,2 hPa 0,0 l/m 15,9 km/h (3 Bft) W-SW 251 0 min 0,000 mm 0,0 UV-I 37 W/m 2,4 C -3,0 C 24,1 km/h (4 Bft) 98,00 %
14.03.2019 07:10 3,7 C 7,2 C 3,3 C 91 % 1012,2 hPa 0,0 l/m 15,0 km/h (3 Bft) SW 225 0 min 0,000 mm 0,0 UV-I 43 W/m 2,4 C -2,5 C 22,5 km/h (4 Bft) 100,00 %
14.03.2019 07:12 3,8 C 7,2 C 3,3 C 91 % 1012,3 hPa 0,0 l/m 14,1 km/h (3 Bft) W 259 0 min 0,000 mm 0,0 UV-I 52 W/m 2,5 C -1,9 C 20,9 km/h (4 Bft) 100,00 %
14.03.2019 07:14 3,8 C 7,2 C 3,9 C 90 % 1012,2 hPa 0,0 l/m 12,6 km/h (3 Bft) W-SW 250 0 min 0,000 mm 0,0 UV-I 66 W/m 2,3 C -1,0 C 17,7 km/h (3 Bft) 100,00 %
14.03.2019 07:16 3,9 C 7,2 C 3,9 C 90 % 1012,3 hPa 0,0 l/m 17,3 km/h (3 Bft) W-SW 249 2 min 0,000 mm 0,0 UV-I 99 W/m 2,4 C -3,4 C 24,1 km/h (4 Bft) 100,00 %
14.03.2019 07:18 3,9 C 7,2 C 3,9 C 90 % 1012,3 hPa 0,0 l/m 15,2 km/h (3 Bft) W-SW 251 2 min 0,000 mm 0,0 UV-I 105 W/m 2,4 C -2,4 C 20,9 km/h (4 Bft) 100,00 %
14.03.2019 07:20 4,0 C 7,2 C 3,9 C 89 % 1012,4 hPa 0,0 l/m 16,2 km/h (3 Bft) W-SW 239 0 min 0,000 mm 0,0 UV-I 83 W/m 2,4 C -2,8 C 24,1 km/h (4 Bft) 98,21 %
14.03.2019 07:22 4,1 C 7,2 C 3,9 C 89 % 1012,3 hPa 0,0 l/m 15,0 km/h (3 Bft) W-SW 252 0 min 0,000 mm 0,0 UV-I 74 W/m 2,5 C -2,0 C 20,9 km/h (4 Bft) 97,87 %
14.03.2019 07:24 4,1 C 7,2 C 3,9 C 89 % 1012,3 hPa 0,0 l/m 16,6 km/h (3 Bft) W-SW 250 0 min 0,000 mm 0,0 UV-I 90 W/m 2,5 C -2,8 C 22,5 km/h (4 Bft) 93,62 %
14.03.2019 07:26 4,1 C 7,2 C 4,4 C 89 % 1012,3 hPa 0,0 l/m 13,5 km/h (3 Bft) W 266 2 min 0,000 mm 0,0 UV-I 124 W/m 2,5 C -1,2 C 19,3 km/h (3 Bft) 95,74 %
14.03.2019 07:28 4,1 C 7,2 C 4,4 C 89 % 1012,4 hPa 0,0 l/m 14,3 km/h (3 Bft) W-SW 243 2 min 0,000 mm 0,0 UV-I 136 W/m 2,5 C -1,6 C 30,6 km/h (5 Bft) 98,00 %
14.03.2019 07:30 4,1 C 7,2 C 4,4 C 89 % 1012,4 hPa 0,0 l/m 15,3 km/h (3 Bft) W-SW 250 0 min 0,000 mm 0,0 UV-I 94 W/m 2,5 C -2,2 C 27,4 km/h (4 Bft) 97,56 %
14.03.2019 07:32 4,2 C 7,2 C 4,4 C 89 % 1012,4 hPa 0,0 l/m 15,0 km/h (3 Bft) W-SW 255 2 min 0,000 mm 0,0 UV-I 134 W/m 2,6 C -1,9 C 24,1 km/h (4 Bft) 95,45 %
14.03.2019 07:34 4,2 C 7,2 C 3,9 C 89 % 1012,4 hPa 0,0 l/m 14,9 km/h (3 Bft) W-SW 255 0 min 0,000 mm 0,0 UV-I 43 W/m 2,6 C -1,8 C 22,5 km/h (4 Bft) 93,18 %
14.03.2019 07:36 4,2 C 7,2 C 3,9 C 88 % 1012,5 hPa 0,0 l/m 14,3 km/h (3 Bft) W 264 0 min 0,000 mm 0,0 UV-I 32 W/m 2,4 C -1,5 C 20,9 km/h (4 Bft) 98,00 %
14.03.2019 07:38 4,1 C 7,2 C 3,3 C 88 % 1012,5 hPa 0,0 l/m 17,1 km/h (3 Bft) W-SW 257 0 min 0,000 mm 0,0 UV-I 27 W/m 2,3 C -3,1 C 27,4 km/h (4 Bft) 98,00 %
14.03.2019 07:40 4,0 C 7,2 C 3,3 C 88 % 1012,5 hPa 0,0 l/m 14,8 km/h (3 Bft) W-SW 255 0 min 0,000 mm 0,0 UV-I 22 W/m 2,2 C -2,0 C 22,5 km/h (4 Bft) 97,87 %
14.03.2019 07:42 3,9 C 7,2 C 3,3 C 89 % 1012,5 hPa 0,0 l/m 13,8 km/h (3 Bft) W-SW 252 0 min 0,000 mm 0,0 UV-I 25 W/m 2,3 C -1,6 C 17,7 km/h (3 Bft) 100,00 %
14.03.2019 07:44 3,9 C 7,2 C 3,3 C 89 % 1012,5 hPa 0,2 l/m 19,2 km/h (3 Bft) SW 236 0 min 0,000 mm 0,0 UV-I 24 W/m 2,3 C -4,3 C 32,2 km/h (5 Bft) 100,00 %
14.03.2019 07:46 3,9 C 7,2 C 3,3 C 89 % 1012,5 hPa 0,2 l/m 19,5 km/h (3 Bft) W 281 0 min 0,000 mm 0,0 UV-I 24 W/m 2,3 C -4,4 C 30,6 km/h (5 Bft) 98,00 %
14.03.2019 07:48 3,8 C 7,2 C 3,3 C 89 % 1012,5 hPa 0,0 l/m 21,3 km/h (4 Bft) SW 226 0 min 0,000 mm 0,0 UV-I 24 W/m 2,2 C -5,2 C 32,2 km/h (5 Bft) 95,74 %
14.03.2019 07:50 3,8 C 7,2 C 3,3 C 89 % 1012,5 hPa 0,0 l/m 21,1 km/h (4 Bft) W 275 0 min 0,000 mm 0,0 UV-I 28 W/m 2,2 C -5,2 C 29,0 km/h (5 Bft) 100,00 %
14.03.2019 07:52 3,8 C 7,2 C 3,3 C 89 % 1012,5 hPa 0,0 l/m 19,8 km/h (3 Bft) W-NW 300 0 min 0,000 mm 0,0 UV-I 38 W/m 2,2 C -4,6 C 41,8 km/h (6 Bft) 97,87 %
14.03.2019 07:54 3,8 C 7,2 C 3,3 C 89 % 1012,5 hPa 0,0 l/m 20,6 km/h (4 Bft) W-SW 239 0 min 0,000 mm 0,0 UV-I 42 W/m 2,2 C -5,0 C 27,4 km/h (4 Bft) 100,00 %
14.03.2019 07:56 3,8 C 7,2 C 3,3 C 89 % 1012,5 hPa 0,0 l/m 21,0 km/h (4 Bft) W 265 0 min 0,000 mm 0,0 UV-I 44 W/m 2,2 C -5,1 C 30,6 km/h (5 Bft) 97,37 %
14.03.2019 07:58 3,8 C 7,2 C 3,3 C 89 % 1012,5 hPa 0,0 l/m 16,4 km/h (3 Bft) W-SW 252 0 min 0,000 mm 0,0 UV-I 41 W/m 2,2 C -3,1 C 29,0 km/h (5 Bft) 98,39 %
14.03.2019 08:00 3,8 C 7,2 C 3,3 C 89 % 1012,6 hPa 0,0 l/m 15,3 km/h (3 Bft) SW 232 0 min 0,025 mm 0,0 UV-I 34 W/m 2,2 C -2,5 C 22,5 km/h (4 Bft) 100,00 %
14.03.2019 08:02 3,8 C 7,2 C 3,3 C 89 % 1012,5 hPa 0,0 l/m 15,6 km/h (3 Bft) SW 230 0 min 0,000 mm 0,0 UV-I 35 W/m 2,2 C -2,7 C 24,1 km/h (4 Bft) 97,14 %
14.03.2019 08:04 3,7 C 7,2 C 3,3 C 89 % 1012,6 hPa 0,0 l/m 16,2 km/h (3 Bft) W-SW 244 0 min 0,000 mm 0,0 UV-I 42 W/m 2,1 C -3,1 C 22,5 km/h (4 Bft) 97,87 %
14.03.2019 08:06 3,8 C 7,2 C 3,3 C 89 % 1012,6 hPa 0,0 l/m 12,4 km/h (3 Bft) SW 232 0 min 0,000 mm 0,0 UV-I 48 W/m 2,2 C -0,9 C 29,0 km/h (5 Bft) 98,00 %
14.03.2019 08:08 3,8 C 7,2 C 3,3 C 89 % 1012,6 hPa 0,0 l/m 14,1 km/h (3 Bft) SW 232 0 min 0,000 mm 0,0 UV-I 47 W/m 2,2 C -1,9 C 22,5 km/h (4 Bft) 100,00 %
14.03.2019 08:10 3,8 C 7,2 C 3,3 C 89 % 1012,6 hPa 0,0 l/m 12,9 km/h (3 Bft) W-SW 250 0 min 0,000 mm 0,0 UV-I 42 W/m 2,2 C -1,2 C 17,7 km/h (3 Bft) 95,12 %
14.03.2019 08:12 3,8 C 7,2 C 3,3 C 89 % 1012,6 hPa 0,0 l/m 10,9 km/h (2 Bft) W-SW 242 0 min 0,000 mm 0,0 UV-I 50 W/m 2,2 C 0,1 C 19,3 km/h (3 Bft) 98,00 %
14.03.2019 08:15 3,8 C 7,2 C 3,9 C 89 % 1012,6 hPa 0,0 l/m 10,1 km/h (2 Bft) W-SW 252 0 min 0,000 mm 0,0 UV-I 56 W/m 2,2 C 0,7 C 16,1 km/h (3 Bft) 97,37 %
14.03.2019 08:16 3,8 C 7,2 C 3,9 C 89 % 1012,6 hPa 0,0 l/m 9,0 km/h (2 Bft) W-SW 241 0 min 0,000 mm 0,0 UV-I 54 W/m 2,2 C 1,5 C 14,5 km/h (3 Bft) 100,00 %
14.03.2019 08:18 3,9 C 7,2 C 3,9 C 89 % 1012,6 hPa 0,0 l/m 12,4 km/h (3 Bft) W-SW 248 0 min 0,000 mm 0,0 UV-I 56 W/m 2,3 C -0,8 C 20,9 km/h (4 Bft) 98,00 %
14.03.2019 08:20 3,9 C 7,2 C 3,9 C 89 % 1012,6 hPa 0,0 l/m 13,9 km/h (3 Bft) W 277 0 min 0,000 mm 0,0 UV-I 51 W/m 2,3 C -1,7 C 24,1 km/h (4 Bft) 98,11 %
14.03.2019 08:22 4,0 C 7,2 C 3,9 C 89 % 1012,6 hPa 0,0 l/m 18,0 km/h (3 Bft) W 269 0 min 0,000 mm 0,0 UV-I 55 W/m 2,4 C -3,6 C 29,0 km/h (5 Bft) 97,56 %
14.03.2019 08:25 4,1 C 7,2 C 3,9 C 88 % 1012,6 hPa 0,0 l/m 19,2 km/h (3 Bft) W-SW 240 0 min 0,000 mm 0,0 UV-I 56 W/m 2,3 C -4,0 C 30,6 km/h (5 Bft) 94,12 %
14.03.2019 08:26 4,1 C 7,2 C 3,9 C 88 % 1012,7 hPa 0,0 l/m 24,9 km/h (4 Bft) SW 227 0 min 0,000 mm 0,0 UV-I 66 W/m 2,3 C -6,1 C 30,6 km/h (5 Bft) 96,15 %
14.03.2019 08:28 4,2 C 7,2 C 3,9 C 87 % 1012,7 hPa 0,0 l/m 17,9 km/h (3 Bft) W 261 0 min 0,000 mm 0,0 UV-I 69 W/m 2,2 C -3,3 C 30,6 km/h (5 Bft) 96,30 %
14.03.2019 08:30 4,2 C 7,2 C 3,9 C 87 % 1012,6 hPa 0,0 l/m 19,1 km/h (3 Bft) SW 225 0 min 0,000 mm 0,0 UV-I 75 W/m 2,2 C -3,8 C 27,4 km/h (4 Bft) 94,29 %
14.03.2019 08:32 4,3 C 7,2 C 3,9 C 87 % 1012,6 hPa 0,0 l/m 21,4 km/h (4 Bft) W-SW 248 0 min 0,000 mm 0,0 UV-I 72 W/m 2,3 C -4,6 C 35,4 km/h (5 Bft) 95,74 %
14.03.2019 08:34 4,3 C 7,2 C 3,9 C 86 % 1012,6 hPa 0,0 l/m 22,2 km/h (4 Bft) SW 234 0 min 0,000 mm 0,0 UV-I 79 W/m 2,2 C -4,9 C 33,8 km/h (5 Bft) 93,62 %
14.03.2019 08:36 4,4 C 7,2 C 4,4 C 86 % 1012,6 hPa 0,0 l/m 21,9 km/h (4 Bft) SW 219 0 min 0,000 mm 0,0 UV-I 91 W/m 2,3 C -4,7 C 30,6 km/h (5 Bft) 94,87 %
14.03.2019 08:38 4,4 C 7,2 C 4,4 C 86 % 1012,6 hPa 0,0 l/m 18,1 km/h (3 Bft) W-SW 246 0 min 0,000 mm 0,0 UV-I 96 W/m 2,3 C -3,1 C 27,4 km/h (4 Bft) 94,00 %
14.03.2019 08:40 4,4 C 7,2 C 4,4 C 86 % 1012,6 hPa 0,0 l/m 20,7 km/h (4 Bft) S-SW 212 0 min 0,000 mm 0,0 UV-I 98 W/m 2,3 C -4,2 C 37,0 km/h (5 Bft) 93,62 %
14.03.2019 08:42 4,5 C 7,2 C 4,4 C 86 % 1012,7 hPa 0,0 l/m 17,8 km/h (3 Bft) W-SW 246 0 min 0,000 mm 0,0 UV-I 101 W/m 2,4 C -2,9 C 30,6 km/h (5 Bft) 91,49 %
14.03.2019 08:44 4,5 C 7,2 C 4,4 C 86 % 1012,6 hPa 0,0 l/m 24,5 km/h (4 Bft) W-SW 253 0 min 0,000 mm 0,0 UV-I 112 W/m 2,4 C -5,5 C 35,4 km/h (5 Bft) 95,74 %
14.03.2019 08:46 4,6 C 7,2 C 4,4 C 85 % 1012,7 hPa 0,0 l/m 21,8 km/h (4 Bft) SW 232 0 min 0,000 mm 0,0 UV-I 123 W/m 2,3 C -4,4 C 35,4 km/h (5 Bft) 95,74 %
14.03.2019 08:48 4,6 C 7,2 C 5,0 C 85 % 1012,7 hPa 0,0 l/m 18,7 km/h (3 Bft) W-SW 257 0 min 0,000 mm 0,0 UV-I 127 W/m 2,3 C -3,2 C 25,7 km/h (4 Bft) 95,74 %
14.03.2019 08:50 4,7 C 7,2 C 5,0 C 85 % 1012,6 hPa 0,0 l/m 15,5 km/h (3 Bft) W 279 0 min 0,000 mm 0,0 UV-I 129 W/m 2,4 C -1,5 C 25,7 km/h (4 Bft) 91,49 %
14.03.2019 08:52 4,7 C 7,2 C 5,0 C 85 % 1012,6 hPa 0,0 l/m 18,1 km/h (3 Bft) W-SW 238 0 min 0,000 mm 0,0 UV-I 140 W/m 2,4 C -2,8 C 27,4 km/h (4 Bft) 97,87 %
14.03.2019 08:54 4,7 C 7,2 C 5,0 C 85 % 1012,6 hPa 0,0 l/m 19,3 km/h (3 Bft) W-SW 242 0 min 0,000 mm 0,0 UV-I 147 W/m 2,4 C -3,3 C 29,0 km/h (5 Bft) 94,00 %
14.03.2019 08:56 4,8 C 7,2 C 5,0 C 85 % 1012,7 hPa 0,0 l/m 21,5 km/h (4 Bft) W 263 0 min 0,000 mm 0,0 UV-I 142 W/m 2,5 C -4,0 C 30,6 km/h (5 Bft) 91,49 %
14.03.2019 08:58 4,8 C 7,2 C 5,0 C 84 % 1012,7 hPa 0,0 l/m 19,3 km/h (3 Bft) W-SW 252 0 min 0,000 mm 0,0 UV-I 135 W/m 2,3 C -3,1 C 27,4 km/h (4 Bft) 97,87 %
14.03.2019 09:00 4,8 C 7,2 C 5,0 C 84 % 1012,7 hPa 0,0 l/m 19,5 km/h (3 Bft) W-SW 237 0 min 0,051 mm 0,0 UV-I 126 W/m 2,3 C -3,2 C 29,0 km/h (5 Bft) 97,87 %
14.03.2019 09:02 4,8 C 7,2 C 5,0 C 84 % 1012,7 hPa 0,0 l/m 18,5 km/h (3 Bft) W 278 0 min 0,000 mm 0,0 UV-I 123 W/m 2,3 C -2,8 C 27,4 km/h (4 Bft) 95,74 %
14.03.2019 09:04 4,9 C 7,2 C 5,0 C 84 % 1012,6 hPa 0,0 l/m 18,9 km/h (3 Bft) W 265 0 min 0,000 mm 0,0 UV-I 140 W/m 2,4 C -2,9 C 29,0 km/h (5 Bft) 92,11 %
14.03.2019 09:06 4,9 C 7,2 C 5,0 C 84 % 1012,8 hPa 0,0 l/m 20,2 km/h (4 Bft) W 267 0 min 0,000 mm 0,0 UV-I 153 W/m 2,4 C -3,4 C 27,4 km/h (4 Bft) 98,00 %
14.03.2019 09:08 4,9 C 7,2 C 5,0 C 83 % 1012,7 hPa 0,0 l/m 22,4 km/h (4 Bft) W-NW 293 0 min 0,000 mm 0,0 UV-I 153 W/m 2,3 C -4,2 C 33,8 km/h (5 Bft) 97,87 %
14.03.2019 09:10 5,0 C 7,2 C 5,6 C 83 % 1012,8 hPa 0,0 l/m 15,0 km/h (3 Bft) W 271 0 min 0,000 mm 0,0 UV-I 143 W/m 2,4 C -0,9 C 24,1 km/h (4 Bft) 97,92 %
14.03.2019 09:12 5,0 C 7,2 C 5,6 C 83 % 1012,7 hPa 0,0 l/m 18,7 km/h (3 Bft) W-SW 252 0 min 0,000 mm 0,0 UV-I 132 W/m 2,4 C -2,6 C 32,2 km/h (5 Bft) 95,74 %
14.03.2019 09:14 5,1 C 7,2 C 5,6 C 83 % 1012,8 hPa 0,0 l/m 18,4 km/h (3 Bft) SW 236 0 min 0,000 mm 0,0 UV-I 143 W/m 2,5 C -2,4 C 29,0 km/h (5 Bft) 98,00 %
14.03.2019 09:16 5,1 C 7,2 C 5,6 C 83 % 1012,8 hPa 0,0 l/m 19,4 km/h (3 Bft) W-SW 240 0 min 0,000 mm 0,0 UV-I 197 W/m 2,5 C -2,8 C 29,0 km/h (5 Bft) 97,87 %
14.03.2019 09:18 5,2 C 7,2 C 6,1 C 83 % 1012,8 hPa 0,0 l/m 16,3 km/h (3 Bft) W 261 0 min 0,000 mm 0,0 UV-I 175 W/m 2,6 C -1,3 C 27,4 km/h (4 Bft) 98,00 %
14.03.2019 09:20 5,2 C 7,2 C 5,6 C 83 % 1012,7 hPa 0,0 l/m 22,9 km/h (4 Bft) W-NW 288 0 min 0,000 mm 0,0 UV-I 157 W/m 2,6 C -4,0 C 37,0 km/h (5 Bft) 97,14 %
14.03.2019 09:22 5,2 C 7,2 C 5,6 C 83 % 1012,7 hPa 0,0 l/m 20,4 km/h (4 Bft) W-SW 257 0 min 0,000 mm 0,0 UV-I 155 W/m 2,6 C -3,1 C 37,0 km/h (5 Bft) 97,87 %
14.03.2019 09:24 5,2 C 7,2 C 5,6 C 82 % 1012,7 hPa 0,0 l/m 22,7 km/h (4 Bft) W 261 0 min 0,000 mm 0,0 UV-I 163 W/m 2,4 C -3,9 C 33,8 km/h (5 Bft) 97,96 %
14.03.2019 09:26 5,2 C 7,2 C 5,6 C 82 % 1012,7 hPa 0,0 l/m 19,3 km/h (3 Bft) W-SW 244 0 min 0,000 mm 0,0 UV-I 177 W/m 2,4 C -2,6 C 27,4 km/h (4 Bft) 97,87 %
14.03.2019 09:28 5,2 C 7,2 C 5,6 C 82 % 1012,7 hPa 0,0 l/m 19,0 km/h (3 Bft) W-SW 243 0 min 0,000 mm 0,0 UV-I 193 W/m 2,4 C -2,5 C 27,4 km/h (4 Bft) 97,87 %
14.03.2019 09:30 5,2 C 7,2 C 6,1 C 82 % 1012,7 hPa 0,0 l/m 17,1 km/h (3 Bft) W-SW 240 0 min 0,000 mm 0,0 UV-I 188 W/m 2,4 C -1,7 C 25,7 km/h (4 Bft) 97,87 %
14.03.2019 09:32 5,2 C 7,2 C 6,1 C 82 % 1012,7 hPa 0,0 l/m 17,2 km/h (3 Bft) W-NW 286 0 min 0,000 mm 0,0 UV-I 183 W/m 2,4 C -1,7 C 24,1 km/h (4 Bft) 97,87 %
14.03.2019 09:34 5,2 C 7,2 C 6,1 C 82 % 1012,7 hPa 0,0 l/m 21,0 km/h (4 Bft) W-SW 240 0 min 0,000 mm 0,4 UV-I 203 W/m 2,4 C -3,3 C 33,8 km/h (5 Bft) 95,74 %
14.03.2019 09:36 5,2 C 7,2 C 6,1 C 82 % 1012,6 hPa 0,0 l/m 21,5 km/h (4 Bft) S-SW 209 0 min 0,000 mm 0,5 UV-I 203 W/m 2,4 C -3,5 C 32,2 km/h (5 Bft) 93,62 %
14.03.2019 09:38 5,2 C 7,2 C 6,1 C 82 % 1012,8 hPa 0,0 l/m 22,2 km/h (4 Bft) W-SW 237 0 min 0,000 mm 0,5 UV-I 220 W/m 2,4 C -3,7 C 33,8 km/h (5 Bft) 100,00 %
14.03.2019 09:40 5,1 C 7,2 C 6,1 C 82 % 1012,6 hPa 0,0 l/m 26,9 km/h (4 Bft) W-SW 240 0 min 0,000 mm 0,5 UV-I 216 W/m 2,3 C -5,4 C 38,6 km/h (5 Bft) 100,00 %
14.03.2019 09:42 5,1 C 7,2 C 6,1 C 82 % 1012,7 hPa 0,0 l/m 21,3 km/h (4 Bft) W-SW 257 0 min 0,000 mm 0,5 UV-I 198 W/m 2,3 C -3,5 C 32,2 km/h (5 Bft) 100,00 %
14.03.2019 09:44 5,1 C 7,2 C 6,1 C 82 % 1012,6 hPa 0,0 l/m 23,2 km/h (4 Bft) W-SW 250 0 min 0,000 mm 0,5 UV-I 205 W/m 2,3 C -4,2 C 38,6 km/h (5 Bft) 98,00 %
14.03.2019 09:46 5,1 C 7,2 C 6,1 C 82 % 1012,5 hPa 0,0 l/m 28,6 km/h (4 Bft) SW 219 0 min 0,000 mm 0,5 UV-I 216 W/m 2,3 C -5,9 C 43,5 km/h (6 Bft) 100,00 %
14.03.2019 09:48 5,1 C 7,2 C 6,1 C 82 % 1012,5 hPa 0,0 l/m 25,9 km/h (4 Bft) SW 228 0 min 0,000 mm 0,6 UV-I 236 W/m 2,3 C -5,1 C 37,0 km/h (5 Bft) 97,87 %
14.03.2019 09:50 5,2 C 7,2 C 6,7 C 82 % 1012,5 hPa 0,0 l/m 24,6 km/h (4 Bft) W-SW 255 0 min 0,000 mm 0,7 UV-I 265 W/m 2,4 C -4,5 C 38,6 km/h (5 Bft) 97,44 %
14.03.2019 09:52 5,2 C 7,2 C 6,7 C 82 % 1012,5 hPa 0,0 l/m 26,5 km/h (4 Bft) W 262 0 min 0,000 mm 0,7 UV-I 283 W/m 2,4 C -5,1 C 35,4 km/h (5 Bft) 91,49 %
14.03.2019 09:54 5,3 C 7,2 C 7,8 C 83 % 1012,4 hPa 0,0 l/m 17,7 km/h (3 Bft) W-SW 241 2 min 0,000 mm 0,8 UV-I 352 W/m 2,7 C -1,8 C 24,1 km/h (4 Bft) 98,00 %
14.03.2019 09:56 5,5 C 7,2 C 9,4 C 83 % 1012,4 hPa 0,0 l/m 19,4 km/h (3 Bft) W-SW 240 2 min 0,000 mm 0,9 UV-I 532 W/m 2,8 C -2,3 C 30,6 km/h (5 Bft) 98,00 %
14.03.2019 09:58 5,7 C 7,2 C 9,4 C 83 % 1012,4 hPa 0,0 l/m 18,6 km/h (3 Bft) W-SW 244 2 min 0,000 mm 0,8 UV-I 429 W/m 3,0 C -1,7 C 30,6 km/h (5 Bft) 95,74 %
14.03.2019 10:00 5,8 C 7,2 C 8,3 C 82 % 1012,4 hPa 0,0 l/m 21,5 km/h (4 Bft) SW 218 0 min 0,127 mm 0,7 UV-I 272 W/m 3,0 C -2,7 C 33,8 km/h (5 Bft) 95,74 %
14.03.2019 10:02 5,8 C 7,2 C 7,8 C 81 % 1012,5 hPa 0,0 l/m 20,6 km/h (4 Bft) SW 216 0 min 0,000 mm 0,7 UV-I 259 W/m 2,8 C -2,4 C 32,2 km/h (5 Bft) 95,74 %
14.03.2019 10:04 5,7 C 7,2 C 7,8 C 81 % 1012,4 hPa 0,0 l/m 23,2 km/h (4 Bft) W-SW 258 0 min 0,000 mm 0,7 UV-I 257 W/m 2,7 C -3,4 C 37,0 km/h (5 Bft) 95,74 %
14.03.2019 10:06 5,7 C 7,2 C 7,2 C 80 % 1012,5 hPa 0,0 l/m 20,8 km/h (4 Bft) W-SW 247 0 min 0,000 mm 0,7 UV-I 238 W/m 2,5 C -2,6 C 33,8 km/h (5 Bft) 97,37 %
14.03.2019 10:08 5,8 C 7,2 C 7,2 C 80 % 1012,4 hPa 0,0 l/m 22,5 km/h (4 Bft) W-SW 245 0 min 0,000 mm 0,8 UV-I 262 W/m 2,6 C -3,0 C 35,4 km/h (5 Bft) 97,87 %
14.03.2019 10:10 5,8 C 7,2 C 7,8 C 80 % 1012,5 hPa 0,0 l/m 21,9 km/h (4 Bft) SW 215 0 min 0,000 mm 0,8 UV-I 273 W/m 2,6 C -2,8 C 33,8 km/h (5 Bft) 93,62 %
14.03.2019 10:12 5,9 C 7,2 C 7,8 C 80 % 1012,4 hPa 0,0 l/m 25,4 km/h (4 Bft) S-SW 204 2 min 0,000 mm 0,8 UV-I 345 W/m 2,7 C -3,8 C 38,6 km/h (5 Bft) 93,62 %
14.03.2019 10:14 6,1 C 7,2 C 7,8 C 80 % 1012,3 hPa 0,0 l/m 18,7 km/h (3 Bft) W 263 2 min 0,000 mm 0,8 UV-I 309 W/m 2,9 C -1,2 C 33,8 km/h (5 Bft) 95,74 %
14.03.2019 10:16 6,1 C 7,2 C 8,3 C 79 % 1012,2 hPa 0,0 l/m 27,2 km/h (4 Bft) W-SW 247 2 min 0,000 mm 0,9 UV-I 332 W/m 2,7 C -4,1 C 40,2 km/h (6 Bft) 95,74 %
14.03.2019 10:18 6,3 C 7,2 C 10,6 C 78 % 1012,2 hPa 0,0 l/m 25,0 km/h (4 Bft) SW 236 2 min 0,000 mm 1,2 UV-I 513 W/m 2,8 C -3,2 C 35,4 km/h (5 Bft) 97,87 %
14.03.2019 10:20 6,5 C 7,2 C 11,7 C 77 % 1012,3 hPa 0,0 l/m 23,2 km/h (4 Bft) W 273 2 min 0,000 mm 1,2 UV-I 597 W/m 2,8 C -2,3 C 38,6 km/h (5 Bft) 96,00 %
14.03.2019 10:22 6,7 C 7,2 C 10,6 C 76 % 1012,2 hPa 0,0 l/m 28,0 km/h (4 Bft) SW 229 2 min 0,000 mm 1,0 UV-I 513 W/m 2,8 C -3,5 C 41,8 km/h (6 Bft) 95,74 %
14.03.2019 10:24 6,8 C 7,2 C 10,0 C 76 % 1012,2 hPa 0,0 l/m 21,3 km/h (4 Bft) W-SW 253 2 min 0,000 mm 1,0 UV-I 388 W/m 2,9 C -1,3 C 32,2 km/h (5 Bft) 97,87 %
14.03.2019 10:26 6,9 C 7,2 C 10,0 C 76 % 1012,2 hPa 0,0 l/m 20,0 km/h (4 Bft) W-SW 254 2 min 0,000 mm 1,0 UV-I 419 W/m 3,0 C -0,7 C 30,6 km/h (5 Bft) 95,74 %
14.03.2019 10:28 6,9 C 7,2 C 9,4 C 75 % 1012,2 hPa 0,0 l/m 20,5 km/h (4 Bft) W 269 2 min 0,000 mm 0,9 UV-I 531 W/m 2,8 C -0,9 C 32,2 km/h (5 Bft) 95,83 %
14.03.2019 10:30 6,9 C 7,2 C 9,4 C 75 % 1012,2 hPa 0,0 l/m 17,3 km/h (3 Bft) W 265 0 min 0,000 mm 0,9 UV-I 298 W/m 2,8 C 0,3 C 24,1 km/h (4 Bft) 95,74 %
14.03.2019 10:32 7,0 C 7,2 C 9,4 C 75 % 1012,0 hPa 0,0 l/m 18,9 km/h (3 Bft) W-SW 254 0 min 0,000 mm 0,9 UV-I 315 W/m 2,9 C -0,2 C 29,0 km/h (5 Bft) 91,49 %
14.03.2019 10:34 7,1 C 7,2 C 10,6 C 75 % 1012,1 hPa 0,0 l/m 21,8 km/h (4 Bft) W-SW 237 0 min 0,000 mm 1,0 UV-I 279 W/m 3,0 C -1,1 C 33,8 km/h (5 Bft) 97,87 %
14.03.2019 10:36 7,1 C 7,2 C 10,0 C 74 % 1012,1 hPa 0,0 l/m 22,4 km/h (4 Bft) S-SW 207 0 min 0,000 mm 1,0 UV-I 283 W/m 2,8 C -1,3 C 43,5 km/h (6 Bft) 95,74 %
14.03.2019 10:38 7,1 C 7,2 C 9,4 C 73 % 1012,0 hPa 0,0 l/m 24,9 km/h (4 Bft) SW 224 0 min 0,000 mm 0,9 UV-I 268 W/m 2,6 C -2,1 C 37,0 km/h (5 Bft) 95,74 %
14.03.2019 10:40 7,1 C 7,2 C 8,3 C 73 % 1012,0 hPa 0,0 l/m 28,7 km/h (4 Bft) W 274 0 min 0,000 mm 0,8 UV-I 272 W/m 2,6 C -3,1 C 41,8 km/h (6 Bft) 97,87 %
14.03.2019 10:42 7,1 C 7,2 C 7,8 C 73 % 1012,1 hPa 0,0 l/m 26,1 km/h (4 Bft) SW 236 0 min 0,000 mm 0,7 UV-I 236 W/m 2,6 C -2,4 C 37,0 km/h (5 Bft) 93,62 %
14.03.2019 10:44 7,1 C 7,2 C 8,3 C 73 % 1012,0 hPa 0,0 l/m 25,1 km/h (4 Bft) W 269 0 min 0,000 mm 0,8 UV-I 289 W/m 2,6 C -2,1 C 38,6 km/h (5 Bft) 97,87 %
14.03.2019 10:46 7,1 C 7,2 C 8,9 C 74 % 1012,0 hPa 0,0 l/m 18,2 km/h (3 Bft) W 259 0 min 0,000 mm 0,9 UV-I 304 W/m 2,8 C 0,2 C 30,6 km/h (5 Bft) 98,00 %
14.03.2019 10:48 7,2 C 7,2 C 9,4 C 73 % 1012,0 hPa 0,0 l/m 24,3 km/h (4 Bft) W 273 0 min 0,000 mm 0,8 UV-I 325 W/m 2,7 C -1,8 C 35,4 km/h (5 Bft) 97,87 %
14.03.2019 10:50 7,2 C 7,2 C 8,9 C 73 % 1012,0 hPa 0,0 l/m 27,1 km/h (4 Bft) W 261 0 min 0,000 mm 0,8 UV-I 318 W/m 2,7 C -2,5 C 43,5 km/h (6 Bft) 100,00 %
14.03.2019 10:52 7,2 C 7,2 C 8,9 C 73 % 1012,0 hPa 0,0 l/m 26,7 km/h (4 Bft) SW 229 0 min 0,000 mm 0,8 UV-I 283 W/m 2,7 C -2,4 C 43,5 km/h (6 Bft) 94,74 %
14.03.2019 10:54 7,2 C 7,2 C 8,3 C 73 % 1012,0 hPa 0,0 l/m 21,8 km/h (4 Bft) W 261 0 min 0,000 mm 0,6 UV-I 226 W/m 2,7 C -1,0 C 32,2 km/h (5 Bft) 97,87 %
14.03.2019 10:56 7,2 C 7,2 C 8,3 C 74 % 1012,0 hPa 0,0 l/m 20,5 km/h (4 Bft) W-SW 239 0 min 0,000 mm 0,6 UV-I 207 W/m 2,9 C -0,5 C 37,0 km/h (5 Bft) 100,00 %
14.03.2019 10:58 7,2 C 7,2 C 8,3 C 73 % 1012,0 hPa 0,0 l/m 23,6 km/h (4 Bft) W 279 0 min 0,000 mm 0,7 UV-I 226 W/m 2,7 C -1,5 C 40,2 km/h (6 Bft) 97,87 %
14.03.2019 11:00 7,2 C 7,2 C 7,8 C 72 % 1012,0 hPa 0,0 l/m 23,5 km/h (4 Bft) W-NW 287 0 min 0,000 mm 0,6 UV-I 199 W/m 2,5 C -1,5 C 37,0 km/h (5 Bft) 100,00 %
14.03.2019 11:02 7,2 C 7,2 C 7,8 C 72 % 1012,0 hPa 0,0 l/m 27,2 km/h (4 Bft) W 275 0 min 0,178 mm 0,7 UV-I 221 W/m 2,5 C -2,6 C 41,8 km/h (6 Bft) 98,00 %
14.03.2019 11:04 7,1 C 7,2 C 7,8 C 71 % 1012,0 hPa 0,0 l/m 31,2 km/h (5 Bft) W 274 0 min 0,000 mm 0,9 UV-I 292 W/m 2,2 C -3,7 C 43,5 km/h (6 Bft) 100,00 %
14.03.2019 11:06 7,1 C 7,2 C 8,3 C 72 % 1012,0 hPa 0,0 l/m 25,0 km/h (4 Bft) SW 227 0 min 0,000 mm 1,1 UV-I 305 W/m 2,4 C -2,1 C 37,0 km/h (5 Bft) 100,00 %
14.03.2019 11:08 7,2 C 7,2 C 9,4 C 73 % 1012,0 hPa 0,0 l/m 22,7 km/h (4 Bft) W-SW 252 0 min 0,000 mm 1,1 UV-I 325 W/m 2,7 C -1,3 C 38,6 km/h (5 Bft) 100,00 %
14.03.2019 11:10 7,3 C 7,2 C 9,4 C 74 % 1011,9 hPa 0,0 l/m 18,6 km/h (3 Bft) W-SW 242 2 min 0,000 mm 1,1 UV-I 338 W/m 3,0 C 0,3 C 30,6 km/h (5 Bft) 97,92 %
14.03.2019 11:12 7,3 C 7,2 C 10,0 C 72 % 1012,0 hPa 0,0 l/m 24,6 km/h (4 Bft) SW 232 2 min 0,000 mm 1,2 UV-I 389 W/m 2,6 C -1,7 C 37,0 km/h (5 Bft) 100,00 %
14.03.2019 11:14 7,4 C 7,2 C 10,0 C 72 % 1012,0 hPa 0,0 l/m 27,0 km/h (4 Bft) SW 231 2 min 0,000 mm 1,1 UV-I 448 W/m 2,7 C -2,2 C 40,2 km/h (6 Bft) 97,87 %
14.03.2019 11:16 7,3 C 7,2 C 10,6 C 72 % 1011,9 hPa 0,0 l/m 30,8 km/h (5 Bft) W-NW 299 2 min 0,000 mm 1,4 UV-I 430 W/m 2,6 C -3,3 C 45,1 km/h (6 Bft) 97,37 %
14.03.2019 11:18 7,4 C 7,2 C 10,6 C 73 % 1012,0 hPa 0,0 l/m 30,1 km/h (5 Bft) SW 233 2 min 0,000 mm 1,3 UV-I 484 W/m 2,9 C -3,0 C 48,3 km/h (6 Bft) 98,00 %
14.03.2019 11:20 7,3 C 7,2 C 10,6 C 73 % 1011,9 hPa 0,0 l/m 33,8 km/h (5 Bft) SW 232 2 min 0,000 mm 1,3 UV-I 443 W/m 2,8 C -4,0 C 49,9 km/h (6 Bft) 97,87 %
14.03.2019 11:22 7,3 C 7,2 C 11,1 C 73 % 1012,1 hPa 0,0 l/m 35,7 km/h (5 Bft) W-SW 247 2 min 0,000 mm 1,3 UV-I 407 W/m 2,8 C -4,4 C 53,1 km/h (7 Bft) 97,87 %
14.03.2019 11:24 7,3 C 7,2 C 11,1 C 73 % 1012,0 hPa 0,0 l/m 32,3 km/h (5 Bft) W-SW 253 2 min 0,000 mm 1,4 UV-I 661 W/m 2,8 C -3,7 C 51,5 km/h (7 Bft) 98,00 %
14.03.2019 11:26 7,3 C 7,2 C 12,2 C 72 % 1011,8 hPa 0,0 l/m 33,8 km/h (5 Bft) SW 226 2 min 0,000 mm 1,5 UV-I 655 W/m 2,6 C -4,0 C 45,1 km/h (6 Bft) 97,87 %
14.03.2019 11:28 7,3 C 7,2 C 12,2 C 73 % 1011,8 hPa 0,2 l/m 36,4 km/h (5 Bft) W-SW 242 2 min 0,000 mm 1,5 UV-I 625 W/m 2,8 C -4,5 C 59,5 km/h (7 Bft) 97,87 %
14.03.2019 11:30 7,3 C 7,2 C 12,2 C 73 % 1011,8 hPa 0,0 l/m 26,5 km/h (4 Bft) W-SW 243 2 min 0,000 mm 1,5 UV-I 606 W/m 2,8 C -2,2 C 41,8 km/h (6 Bft) 95,74 %
14.03.2019 11:32 7,4 C 7,2 C 12,8 C 74 % 1011,7 hPa 0,0 l/m 23,2 km/h (4 Bft) W-SW 255 2 min 0,000 mm 1,5 UV-I 619 W/m 3,1 C -1,1 C 35,4 km/h (5 Bft) 97,37 %
14.03.2019 11:34 7,6 C 7,2 C 12,8 C 73 % 1011,6 hPa 0,0 l/m 27,7 km/h (4 Bft) SW 234 2 min 0,000 mm 1,4 UV-I 620 W/m 3,1 C -2,2 C 40,2 km/h (6 Bft) 98,00 %
14.03.2019 11:36 7,7 C 7,2 C 12,8 C 72 % 1011,6 hPa 0,0 l/m 28,5 km/h (4 Bft) W-SW 256 2 min 0,000 mm 1,5 UV-I 629 W/m 3,0 C -2,2 C 45,1 km/h (6 Bft) 97,87 %
14.03.2019 11:38 7,7 C 7,2 C 12,8 C 72 % 1011,5 hPa 0,0 l/m 30,9 km/h (5 Bft) W-SW 251 2 min 0,000 mm 1,5 UV-I 654 W/m 3,0 C -2,8 C 46,7 km/h (6 Bft) 97,87 %
14.03.2019 11:40 7,7 C 7,2 C 12,8 C 71 % 1011,5 hPa 0,0 l/m 28,1 km/h (4 Bft) W-SW 254 2 min 0,000 mm 1,3 UV-I 640 W/m 2,8 C -2,1 C 45,1 km/h (6 Bft) 100,00 %
14.03.2019 11:42 7,7 C 7,2 C 12,8 C 71 % 1011,4 hPa 0,0 l/m 28,4 km/h (4 Bft) W 268 2 min 0,000 mm 1,4 UV-I 768 W/m 2,8 C -2,2 C 46,7 km/h (6 Bft) 97,92 %
14.03.2019 11:44 7,7 C 7,2 C 11,7 C 71 % 1011,4 hPa 0,0 l/m 20,8 km/h (4 Bft) W-SW 246 0 min 0,000 mm 1,0 UV-I 296 W/m 2,8 C 0,0 C 32,2 km/h (5 Bft) 100,00 %
14.03.2019 11:46 7,8 C 7,2 C 13,9 C 72 % 1011,4 hPa 0,0 l/m 27,6 km/h (4 Bft) SW 225 2 min 0,000 mm 1,6 UV-I 605 W/m 3,1 C -1,9 C 37,0 km/h (5 Bft) 100,00 %
14.03.2019 11:48 8,0 C 7,2 C 15,0 C 71 % 1011,3 hPa 0,0 l/m 22,4 km/h (4 Bft) W-NW 294 2 min 0,000 mm 1,6 UV-I 788 W/m 3,1 C -0,1 C 38,6 km/h (5 Bft) 100,00 %
14.03.2019 11:50 8,2 C 7,2 C 16,1 C 71 % 1011,4 hPa 0,0 l/m 27,3 km/h (4 Bft) W 259 2 min 0,000 mm 1,6 UV-I 806 W/m 3,3 C -1,2 C 43,5 km/h (6 Bft) 100,00 %
14.03.2019 11:52 8,3 C 7,2 C 16,1 C 70 % 1011,2 hPa 0,0 l/m 26,2 km/h (4 Bft) W-SW 256 2 min 0,000 mm 1,6 UV-I 759 W/m 3,2 C -0,8 C 45,1 km/h (6 Bft) 100,00 %
14.03.2019 11:54 8,3 C 7,2 C 15,6 C 68 % 1011,1 hPa 0,0 l/m 32,2 km/h (5 Bft) W 275 2 min 0,000 mm 1,6 UV-I 681 W/m 2,7 C -2,2 C 46,7 km/h (6 Bft) 100,00 %
14.03.2019 11:56 8,3 C 7,2 C 16,1 C 69 % 1011,0 hPa 0,0 l/m 32,3 km/h (5 Bft) W-SW 253 2 min 0,000 mm 1,6 UV-I 660 W/m 3,0 C -2,2 C 53,1 km/h (7 Bft) 97,87 %
14.03.2019 11:58 8,3 C 7,2 C 15,6 C 69 % 1011,0 hPa 0,0 l/m 28,3 km/h (4 Bft) W 277 2 min 0,000 mm 1,6 UV-I 644 W/m 3,0 C -1,3 C 43,5 km/h (6 Bft) 98,00 %
14.03.2019 12:00 8,2 C 7,2 C 15,6 C 67 % 1010,9 hPa 0,0 l/m 31,3 km/h (5 Bft) W 277 2 min 0,305 mm 1,6 UV-I 636 W/m 2,4 C -2,2 C 46,7 km/h (6 Bft) 100,00 %
14.03.2019 12:02 8,2 C 7,2 C 16,1 C 68 % 1010,9 hPa 0,0 l/m 27,8 km/h (4 Bft) SW 232 2 min 0,000 mm 1,6 UV-I 638 W/m 2,7 C -1,3 C 49,9 km/h (6 Bft) 100,00 %
14.03.2019 12:04 8,2 C 7,2 C 15,6 C 69 % 1010,9 hPa 0,0 l/m 28,0 km/h (4 Bft) W 261 2 min 0,000 mm 1,6 UV-I 664 W/m 2,9 C -1,4 C 46,7 km/h (6 Bft) 100,00 %
14.03.2019 12:06 8,3 C 7,2 C 16,1 C 69 % 1010,9 hPa 0,0 l/m 29,0 km/h (5 Bft) SW 236 2 min 0,000 mm 1,6 UV-I 664 W/m 3,0 C -1,5 C 49,9 km/h (6 Bft) 97,87 %
14.03.2019 12:08 8,3 C 7,2 C 14,4 C 68 % 1010,8 hPa 0,0 l/m 27,4 km/h (4 Bft) W-SW 246 2 min 0,000 mm 1,4 UV-I 679 W/m 2,7 C -1,1 C 40,2 km/h (6 Bft) 94,00 %
14.03.2019 12:10 8,3 C 7,2 C 15,0 C 67 % 1010,8 hPa 0,0 l/m 27,0 km/h (4 Bft) W 262 2 min 0,000 mm 1,5 UV-I 692 W/m 2,5 C -1,0 C 40,2 km/h (6 Bft) 97,87 %
14.03.2019 12:12 8,3 C 7,2 C 13,3 C 67 % 1010,8 hPa 0,0 l/m 27,1 km/h (4 Bft) W-SW 251 2 min 0,000 mm 1,4 UV-I 493 W/m 2,5 C -1,0 C 51,5 km/h (7 Bft) 97,87 %
14.03.2019 12:14 8,3 C 7,2 C 14,4 C 67 % 1010,7 hPa 0,0 l/m 26,7 km/h (4 Bft) SW 223 2 min 0,000 mm 1,6 UV-I 459 W/m 2,5 C -0,9 C 41,8 km/h (6 Bft) 97,37 %
14.03.2019 12:16 8,3 C 7,2 C 15,0 C 66 % 1010,6 hPa 0,0 l/m 27,8 km/h (4 Bft) W-NW 282 2 min 0,000 mm 1,5 UV-I 699 W/m 2,3 C -1,2 C 38,6 km/h (5 Bft) 95,83 %
14.03.2019 12:18 8,3 C 7,2 C 15,6 C 66 % 1010,6 hPa 0,0 l/m 26,4 km/h (4 Bft) W-SW 248 2 min 0,000 mm 1,6 UV-I 720 W/m 2,3 C -0,9 C 49,9 km/h (6 Bft) 97,87 %
14.03.2019 12:20 8,4 C 7,2 C 15,6 C 66 % 1010,6 hPa 0,0 l/m 25,9 km/h (4 Bft) SW 227 2 min 0,000 mm 1,6 UV-I 656 W/m 2,4 C -0,6 C 45,1 km/h (6 Bft) 97,87 %
14.03.2019 12:22 8,5 C 7,2 C 16,1 C 66 % 1010,6 hPa 0,0 l/m 28,9 km/h (5 Bft) NW 305 2 min 0,000 mm 1,5 UV-I 703 W/m 2,5 C -1,2 C 45,1 km/h (6 Bft) 98,00 %
14.03.2019 12:24 8,7 C 7,2 C 16,1 C 65 % 1010,4 hPa 0,0 l/m 34,7 km/h (5 Bft) W 267 2 min 0,000 mm 1,6 UV-I 765 W/m 2,5 C -2,1 C 56,3 km/h (7 Bft) 98,00 %
14.03.2019 12:26 8,7 C 7,2 C 16,7 C 65 % 1010,3 hPa 0,0 l/m 26,7 km/h (4 Bft) S-SW 213 2 min 0,000 mm 1,6 UV-I 747 W/m 2,5 C -0,4 C 43,5 km/h (6 Bft) 95,74 %
14.03.2019 12:28 8,8 C 7,2 C 16,1 C 64 % 1010,2 hPa 0,0 l/m 30,7 km/h (5 Bft) W 264 2 min 0,000 mm 1,6 UV-I 678 W/m 2,4 C -1,2 C 46,7 km/h (6 Bft) 94,74 %
14.03.2019 12:30 8,7 C 7,2 C 16,1 C 64 % 1010,3 hPa 0,0 l/m 29,2 km/h (5 Bft) W-NW 289 2 min 0,000 mm 1,5 UV-I 616 W/m 2,3 C -1,0 C 49,9 km/h (6 Bft) 97,87 %
14.03.2019 12:32 8,8 C 7,2 C 15,6 C 64 % 1010,2 hPa 0,0 l/m 25,4 km/h (4 Bft) W-SW 258 2 min 0,000 mm 1,5 UV-I 578 W/m 2,4 C 0,1 C 43,5 km/h (6 Bft) 98,11 %
14.03.2019 12:34 8,7 C 7,2 C 15,6 C 64 % 1010,2 hPa 0,0 l/m 25,6 km/h (4 Bft) SW 234 2 min 0,000 mm 1,4 UV-I 574 W/m 2,3 C -0,1 C 46,7 km/h (6 Bft) 98,00 %
14.03.2019 12:36 8,8 C 7,2 C 13,9 C 65 % 1010,1 hPa 0,0 l/m 23,2 km/h (4 Bft) W-SW 248 2 min 0,000 mm 1,1 UV-I 483 W/m 2,6 C 0,7 C 43,5 km/h (6 Bft) 97,87 %
14.03.2019 12:38 8,6 C 7,2 C 12,2 C 64 % 1010,1 hPa 0,0 l/m 29,1 km/h (5 Bft) W-SW 257 0 min 0,000 mm 0,9 UV-I 341 W/m 2,2 C -1,1 C 45,1 km/h (6 Bft) 97,87 %
14.03.2019 12:40 8,4 C 7,2 C 11,1 C 63 % 1010,1 hPa 0,0 l/m 24,1 km/h (4 Bft) W 265 0 min 0,000 mm 0,8 UV-I 250 W/m 1,8 C -0,1 C 37,0 km/h (5 Bft) 95,74 %
14.03.2019 12:42 8,2 C 7,2 C 10,6 C 64 % 1010,0 hPa 0,0 l/m 32,1 km/h (5 Bft) W-SW 257 0 min 0,000 mm 0,7 UV-I 236 W/m 1,8 C -2,3 C 56,3 km/h (7 Bft) 97,87 %
14.03.2019 12:44 8,1 C 7,2 C 11,1 C 64 % 1009,9 hPa 0,0 l/m 26,4 km/h (4 Bft) W 263 0 min 0,000 mm 0,7 UV-I 259 W/m 1,7 C -1,1 C 45,1 km/h (6 Bft) 97,87 %
14.03.2019 12:46 8,2 C 7,2 C 12,2 C 65 % 1009,8 hPa 0,0 l/m 24,9 km/h (4 Bft) SW 225 2 min 0,000 mm 0,9 UV-I 408 W/m 2,0 C -0,6 C 37,0 km/h (5 Bft) 97,87 %
14.03.2019 12:48 8,4 C 7,2 C 13,3 C 66 % 1009,8 hPa 0,0 l/m 19,9 km/h (4 Bft) W 270 2 min 0,000 mm 1,0 UV-I 461 W/m 2,4 C 1,3 C 27,4 km/h (4 Bft) 97,14 %
14.03.2019 12:50 8,6 C 7,2 C 13,9 C 65 % 1009,7 hPa 0,0 l/m 23,0 km/h (4 Bft) SW 232 2 min 0,000 mm 1,1 UV-I 551 W/m 2,4 C 0,5 C 40,2 km/h (6 Bft) 97,87 %
14.03.2019 12:52 8,7 C 7,2 C 14,4 C 63 % 1009,7 hPa 0,0 l/m 24,8 km/h (4 Bft) W 263 2 min 0,000 mm 1,0 UV-I 506 W/m 2,1 C 0,1 C 41,8 km/h (6 Bft) 97,87 %
14.03.2019 12:54 8,8 C 7,2 C 15,0 C 64 % 1009,5 hPa 0,0 l/m 17,9 km/h (3 Bft) W 271 2 min 0,000 mm 1,1 UV-I 500 W/m 2,4 C 2,5 C 29,0 km/h (5 Bft) 97,92 %
14.03.2019 12:56 9,0 C 7,2 C 14,4 C 64 % 1009,5 hPa 0,0 l/m 18,5 km/h (3 Bft) W-SW 240 2 min 0,000 mm 1,2 UV-I 489 W/m 2,6 C 2,5 C 32,2 km/h (5 Bft) 97,87 %
14.03.2019 12:58 9,0 C 7,2 C 13,9 C 64 % 1009,4 hPa 0,0 l/m 18,4 km/h (3 Bft) W 262 2 min 0,000 mm 0,9 UV-I 402 W/m 2,6 C 2,6 C 27,4 km/h (4 Bft) 98,00 %
14.03.2019 13:00 8,9 C 7,2 C 13,3 C 63 % 1009,3 hPa 0,0 l/m 24,9 km/h (4 Bft) SW 234 2 min 0,304 mm 1,0 UV-I 361 W/m 2,2 C 0,4 C 40,2 km/h (6 Bft) 98,00 %
14.03.2019 13:02 8,8 C 7,2 C 12,2 C 62 % 1009,2 hPa 0,0 l/m 27,1 km/h (4 Bft) W-SW 249 0 min 0,000 mm 0,9 UV-I 327 W/m 1,9 C -0,3 C 37,0 km/h (5 Bft) 100,00 %
14.03.2019 13:04 8,7 C 7,2 C 11,7 C 62 % 1009,1 hPa 0,0 l/m 20,3 km/h (4 Bft) W 261 0 min 0,000 mm 0,8 UV-I 261 W/m 1,8 C 1,5 C 30,6 km/h (5 Bft) 100,00 %
14.03.2019 13:06 8,6 C 7,2 C 11,1 C 62 % 1009,1 hPa 0,0 l/m 30,0 km/h (5 Bft) W 267 0 min 0,000 mm 0,7 UV-I 264 W/m 1,7 C -1,3 C 45,1 km/h (6 Bft) 100,00 %
14.03.2019 13:08 8,4 C 7,2 C 11,1 C 60 % 1009,0 hPa 0,0 l/m 25,7 km/h (4 Bft) W 275 0 min 0,000 mm 0,8 UV-I 278 W/m 1,1 C -0,5 C 37,0 km/h (5 Bft) 100,00 %
14.03.2019 13:10 8,4 C 7,2 C 10,6 C 61 % 1009,0 hPa 0,0 l/m 22,3 km/h (4 Bft) W-SW 243 0 min 0,000 mm 0,7 UV-I 259 W/m 1,3 C 0,5 C 37,0 km/h (5 Bft) 95,74 %
14.03.2019 13:12 8,4 C 7,2 C 10,6 C 60 % 1009,0 hPa 0,0 l/m 30,4 km/h (5 Bft) W 280 0 min 0,000 mm 0,7 UV-I 269 W/m 1,1 C -1,7 C 51,5 km/h (7 Bft) 100,00 %
14.03.2019 13:14 8,4 C 7,2 C 11,1 C 59 % 1008,9 hPa 0,0 l/m 28,0 km/h (4 Bft) W 264 0 min 0,000 mm 0,9 UV-I 330 W/m 0,9 C -1,1 C 38,6 km/h (5 Bft) 100,00 %
14.03.2019 13:16 8,4 C 7,2 C 11,7 C 61 % 1008,9 hPa 0,0 l/m 20,8 km/h (4 Bft) W-NW 293 0 min 0,000 mm 0,9 UV-I 327 W/m 1,3 C 0,9 C 32,2 km/h (5 Bft) 100,00 %
14.03.2019 13:18 8,5 C 7,2 C 11,7 C 59 % 1008,9 hPa 0,0 l/m 25,3 km/h (4 Bft) W 260 0 min 0,000 mm 0,9 UV-I 326 W/m 1,0 C -0,3 C 40,2 km/h (6 Bft) 100,00 %
14.03.2019 13:20 8,6 C 7,2 C 11,1 C 59 % 1008,8 hPa 0,0 l/m 25,6 km/h (4 Bft) W 279 0 min 0,000 mm 0,8 UV-I 305 W/m 1,0 C -0,2 C 37,0 km/h (5 Bft) 100,00 %
14.03.2019 13:22 8,6 C 7,2 C 11,1 C 59 % 1008,8 hPa 0,0 l/m 27,2 km/h (4 Bft) W 274 0 min 0,000 mm 0,7 UV-I 271 W/m 1,0 C -0,6 C 40,2 km/h (6 Bft) 100,00 %
14.03.2019 13:24 8,6 C 7,2 C 10,6 C 59 % 1008,8 hPa 0,0 l/m 26,9 km/h (4 Bft) SW 227 0 min 0,000 mm 0,6 UV-I 217 W/m 1,0 C -0,6 C 53,1 km/h (7 Bft) 100,00 %
14.03.2019 13:26 8,5 C 7,2 C 10,0 C 56 % 1008,8 hPa 0,0 l/m 31,7 km/h (5 Bft) W 273 0 min 0,000 mm 0,2 UV-I 164 W/m 0,2 C -1,8 C 45,1 km/h (6 Bft) 100,00 %
14.03.2019 13:28 8,4 C 7,2 C 9,4 C 56 % 1008,7 hPa 0,0 l/m 35,0 km/h (5 Bft) W-SW 242 0 min 0,000 mm 0,2 UV-I 166 W/m 0,1 C -2,6 C 61,2 km/h (7 Bft) 100,00 %
14.03.2019 13:30 8,4 C 7,2 C 9,4 C 55 % 1008,6 hPa 0,0 l/m 35,4 km/h (5 Bft) W 271 0 min 0,000 mm 0,5 UV-I 195 W/m -0,1 C -2,7 C 53,1 km/h (7 Bft) 100,00 %
14.03.2019 13:32 8,3 C 7,2 C 9,4 C 56 % 1008,6 hPa 0,0 l/m 29,1 km/h (5 Bft) W 267 0 min 0,000 mm 0,5 UV-I 189 W/m 0,0 C -1,5 C 49,9 km/h (6 Bft) 100,00 %
14.03.2019 13:34 8,3 C 7,2 C 9,4 C 56 % 1008,6 hPa 0,0 l/m 26,3 km/h (4 Bft) W 265 0 min 0,000 mm 0,5 UV-I 175 W/m 0,0 C -0,8 C 43,5 km/h (6 Bft) 100,00 %
14.03.2019 13:36 8,3 C 7,2 C 10,0 C 56 % 1008,6 hPa 0,0 l/m 23,2 km/h (4 Bft) W 269 0 min 0,000 mm 0,5 UV-I 217 W/m 0,0 C 0,1 C 37,0 km/h (5 Bft) 97,87 %
14.03.2019 13:38 8,4 C 7,2 C 10,0 C 57 % 1008,4 hPa 0,0 l/m 21,8 km/h (4 Bft) W 263 0 min 0,000 mm 0,6 UV-I 226 W/m 0,4 C 0,6 C 38,6 km/h (5 Bft) 100,00 %
14.03.2019 13:40 8,4 C 7,2 C 10,0 C 57 % 1008,5 hPa 0,0 l/m 21,8 km/h (4 Bft) W 269 0 min 0,000 mm 0,3 UV-I 170 W/m 0,4 C 0,6 C 32,2 km/h (5 Bft) 100,00 %
14.03.2019 13:42 8,4 C 7,2 C 10,0 C 58 % 1008,5 hPa 0,0 l/m 19,6 km/h (3 Bft) W-NW 284 0 min 0,000 mm 0,0 UV-I 149 W/m 0,6 C 1,4 C 40,2 km/h (6 Bft) 100,00 %
14.03.2019 13:44 8,4 C 7,2 C 9,4 C 55 % 1008,4 hPa 0,0 l/m 29,9 km/h (5 Bft) W 266 0 min 0,000 mm 0,0 UV-I 134 W/m -0,1 C -1,6 C 43,5 km/h (6 Bft) 100,00 %
14.03.2019 13:46 8,4 C 7,2 C 8,9 C 55 % 1008,4 hPa 0,0 l/m 35,3 km/h (5 Bft) W 274 0 min 0,000 mm 0,0 UV-I 119 W/m -0,1 C -2,7 C 53,1 km/h (7 Bft) 100,00 %
14.03.2019 13:48 8,3 C 7,2 C 8,9 C 55 % 1008,4 hPa 0,0 l/m 36,6 km/h (5 Bft) W-SW 240 0 min 0,000 mm 0,0 UV-I 141 W/m -0,2 C -3,1 C 56,3 km/h (7 Bft) 100,00 %
14.03.2019 13:50 8,3 C 7,2 C 9,4 C 56 % 1008,3 hPa 0,0 l/m 23,8 km/h (4 Bft) W-NW 282 0 min 0,000 mm 0,3 UV-I 162 W/m 0,0 C -0,1 C 41,8 km/h (6 Bft) 98,00 %
14.03.2019 13:52 8,3 C 7,2 C 9,4 C 55 % 1008,3 hPa 0,0 l/m 31,1 km/h (5 Bft) W-SW 243 0 min 0,000 mm 0,5 UV-I 187 W/m -0,2 C -2,0 C 43,5 km/h (6 Bft) 97,87 %
14.03.2019 13:54 8,3 C 7,2 C 9,4 C 55 % 1008,3 hPa 0,0 l/m 29,0 km/h (5 Bft) W 263 0 min 0,000 mm 0,5 UV-I 200 W/m -0,2 C -1,5 C 43,5 km/h (6 Bft) 93,62 %
14.03.2019 13:56 8,3 C 7,2 C 9,4 C 56 % 1008,3 hPa 0,0 l/m 24,6 km/h (4 Bft) W 272 0 min 0,000 mm 0,5 UV-I 194 W/m 0,0 C -0,4 C 33,8 km/h (5 Bft) 91,49 %
14.03.2019 13:58 8,3 C 7,2 C 9,4 C 56 % 1008,2 hPa 0,0 l/m 21,5 km/h (4 Bft) W 270 0 min 0,000 mm 0,5 UV-I 186 W/m 0,0 C 0,6 C 29,0 km/h (5 Bft) 93,62 %
14.03.2019 14:00 8,3 C 7,2 C 9,4 C 56 % 1008,2 hPa 0,0 l/m 22,3 km/h (4 Bft) W-SW 250 0 min 0,204 mm 0,4 UV-I 181 W/m 0,0 C 0,3 C 27,4 km/h (4 Bft) 95,74 %
14.03.2019 14:02 8,3 C 7,2 C 9,4 C 56 % 1008,2 hPa 0,0 l/m 24,5 km/h (4 Bft) W 275 0 min 0,000 mm 0,0 UV-I 166 W/m 0,0 C -0,3 C 37,0 km/h (5 Bft) 91,49 %
14.03.2019 14:04 8,3 C 7,2 C 10,0 C 56 % 1008,2 hPa 0,0 l/m 19,2 km/h (3 Bft) W-SW 256 0 min 0,000 mm 0,4 UV-I 209 W/m 0,0 C 1,4 C 37,0 km/h (5 Bft) 91,67 %
14.03.2019 14:06 8,3 C 7,2 C 10,0 C 56 % 1008,2 hPa 0,0 l/m 20,7 km/h (4 Bft) W-SW 242 0 min 0,000 mm 0,6 UV-I 262 W/m 0,0 C 0,9 C 32,2 km/h (5 Bft) 94,64 %
14.03.2019 14:08 8,3 C 7,2 C 10,6 C 56 % 1008,0 hPa 0,0 l/m 29,2 km/h (5 Bft) W-NW 300 0 min 0,000 mm 0,7 UV-I 289 W/m 0,0 C -1,5 C 46,7 km/h (6 Bft) 94,00 %
14.03.2019 14:10 8,3 C 7,2 C 10,6 C 56 % 1008,0 hPa 0,0 l/m 21,9 km/h (4 Bft) W 275 2 min 0,000 mm 0,8 UV-I 330 W/m 0,0 C 0,5 C 32,2 km/h (5 Bft) 92,00 %
14.03.2019 14:12 8,4 C 7,2 C 11,1 C 56 % 1008,0 hPa 0,0 l/m 30,2 km/h (5 Bft) W 275 2 min 0,000 mm 0,8 UV-I 332 W/m 0,1 C -1,6 C 49,9 km/h (6 Bft) 91,49 %
14.03.2019 14:14 8,4 C 7,2 C 10,6 C 55 % 1008,0 hPa 0,0 l/m 30,9 km/h (5 Bft) W-SW 246 2 min 0,000 mm 0,7 UV-I 303 W/m -0,1 C -1,8 C 51,5 km/h (7 Bft) 92,31 %
14.03.2019 14:16 8,4 C 7,2 C 10,6 C 55 % 1007,9 hPa 0,0 l/m 28,7 km/h (4 Bft) SW 227 2 min 0,000 mm 0,7 UV-I 300 W/m -0,1 C -1,3 C 40,2 km/h (6 Bft) 93,62 %
14.03.2019 14:18 8,4 C 7,2 C 11,1 C 56 % 1007,9 hPa 0,0 l/m 30,4 km/h (5 Bft) W-SW 244 2 min 0,000 mm 0,7 UV-I 329 W/m 0,1 C -1,7 C 46,7 km/h (6 Bft) 92,00 %
14.03.2019 14:20 8,5 C 7,2 C 11,1 C 56 % 1007,9 hPa 0,0 l/m 23,7 km/h (4 Bft) W 266 2 min 0,000 mm 0,8 UV-I 360 W/m 0,2 C 0,2 C 35,4 km/h (5 Bft) 91,49 %
14.03.2019 14:22 8,6 C 7,2 C 11,7 C 56 % 1007,9 hPa 0,0 l/m 23,6 km/h (4 Bft) SW 236 2 min 0,000 mm 0,8 UV-I 353 W/m 0,3 C 0,3 C 38,6 km/h (5 Bft) 96,00 %
14.03.2019 14:24 8,6 C 7,2 C 11,1 C 55 % 1007,9 hPa 0,0 l/m 28,2 km/h (4 Bft) W 261 2 min 0,000 mm 0,7 UV-I 317 W/m 0,1 C -0,9 C 43,5 km/h (6 Bft) 97,87 %
14.03.2019 14:26 8,6 C 7,2 C 11,1 C 55 % 1007,9 hPa 0,0 l/m 29,9 km/h (5 Bft) W-NW 283 2 min 0,000 mm 0,7 UV-I 313 W/m 0,1 C -1,3 C 41,8 km/h (6 Bft) 95,74 %
14.03.2019 14:28 8,6 C 7,2 C 11,1 C 56 % 1007,9 hPa 0,0 l/m 20,3 km/h (4 Bft) W 263 2 min 0,000 mm 0,7 UV-I 290 W/m 0,3 C 1,4 C 27,4 km/h (4 Bft) 95,74 %
14.03.2019 14:30 8,7 C 7,2 C 11,1 C 57 % 1007,8 hPa 0,0 l/m 26,1 km/h (4 Bft) SW 226 0 min 0,000 mm 0,6 UV-I 247 W/m 0,7 C -0,2 C 48,3 km/h (6 Bft) 97,87 %
14.03.2019 14:32 8,6 C 7,2 C 10,6 C 56 % 1007,8 hPa 0,0 l/m 30,2 km/h (5 Bft) W 275 0 min 0,000 mm 0,5 UV-I 210 W/m 0,3 C -1,4 C 43,5 km/h (6 Bft) 97,37 %
14.03.2019 14:34 8,4 C 7,2 C 10,0 C 56 % 1007,9 hPa 0,0 l/m 29,8 km/h (5 Bft) W 281 0 min 0,000 mm 0,0 UV-I 168 W/m 0,1 C -1,5 C 43,5 km/h (6 Bft) 98,00 %
14.03.2019 14:36 8,3 C 7,2 C 9,4 C 57 % 1007,9 hPa 0,0 l/m 27,5 km/h (4 Bft) W-SW 250 0 min 0,000 mm 0,0 UV-I 154 W/m 0,3 C -1,1 C 41,8 km/h (6 Bft) 97,87 %
14.03.2019 14:38 8,3 C 7,2 C 9,4 C 58 % 1007,7 hPa 0,0 l/m 22,3 km/h (4 Bft) W-SW 242 0 min 0,000 mm 0,0 UV-I 173 W/m 0,5 C 0,3 C 37,0 km/h (5 Bft) 97,87 %
14.03.2019 14:40 8,2 C 7,2 C 9,4 C 57 % 1007,8 hPa 0,0 l/m 29,5 km/h (5 Bft) W 267 0 min 0,000 mm 0,4 UV-I 195 W/m 0,2 C -1,8 C 45,1 km/h (6 Bft) 95,74 %
14.03.2019 14:42 8,1 C 7,2 C 10,0 C 58 % 1007,8 hPa 0,0 l/m 19,2 km/h (3 Bft) W-SW 242 0 min 0,000 mm 0,5 UV-I 205 W/m 0,3 C 1,1 C 32,2 km/h (5 Bft) 97,87 %
14.03.2019 14:44 8,1 C 7,2 C 10,0 C 59 % 1007,7 hPa 0,0 l/m 24,2 km/h (4 Bft) W 269 0 min 0,000 mm 0,5 UV-I 213 W/m 0,6 C -0,5 C 35,4 km/h (5 Bft) 98,00 %
14.03.2019 14:46 8,1 C 7,2 C 9,4 C 58 % 1007,6 hPa 0,0 l/m 31,0 km/h (5 Bft) W-SW 250 0 min 0,000 mm 0,5 UV-I 210 W/m 0,3 C -2,2 C 46,7 km/h (6 Bft) 97,87 %
14.03.2019 14:48 8,0 C 7,2 C 9,4 C 58 % 1007,6 hPa 0,0 l/m 24,3 km/h (4 Bft) W-NW 287 0 min 0,000 mm 0,4 UV-I 202 W/m 0,3 C -0,7 C 41,8 km/h (6 Bft) 97,44 %
14.03.2019 14:50 7,9 C 7,2 C 9,4 C 59 % 1007,5 hPa 0,0 l/m 26,8 km/h (4 Bft) W 263 0 min 0,000 mm 0,0 UV-I 193 W/m 0,4 C -1,5 C 37,0 km/h (5 Bft) 98,04 %
14.03.2019 14:52 7,9 C 7,2 C 9,4 C 59 % 1007,5 hPa 0,0 l/m 20,1 km/h (4 Bft) W-SW 246 0 min 0,000 mm 0,0 UV-I 178 W/m 0,4 C 0,5 C 29,0 km/h (5 Bft) 97,96 %
14.03.2019 14:54 7,8 C 7,2 C 9,4 C 59 % 1007,5 hPa 0,0 l/m 23,7 km/h (4 Bft) SW 227 0 min 0,000 mm 0,0 UV-I 163 W/m 0,3 C -0,8 C 40,2 km/h (6 Bft) 97,92 %
14.03.2019 14:56 7,8 C 7,2 C 8,9 C 60 % 1007,4 hPa 0,0 l/m 20,6 km/h (4 Bft) W-SW 247 0 min 0,000 mm 0,0 UV-I 146 W/m 0,5 C 0,2 C 30,6 km/h (5 Bft) 97,87 %
14.03.2019 14:58 7,8 C 7,2 C 8,9 C 60 % 1007,3 hPa 0,0 l/m 22,2 km/h (4 Bft) W 279 0 min 0,000 mm 0,0 UV-I 130 W/m 0,5 C -0,3 C 32,2 km/h (5 Bft) 97,87 %
14.03.2019 15:00 7,8 C 7,2 C 8,9 C 61 % 1007,3 hPa 0,0 l/m 14,3 km/h (3 Bft) W-SW 257 0 min 0,203 mm 0,0 UV-I 118 W/m 0,8 C 2,8 C 20,9 km/h (4 Bft) 96,00 %
14.03.2019 15:02 7,8 C 7,2 C 8,9 C 61 % 1007,3 hPa 0,0 l/m 13,1 km/h (3 Bft) W 265 0 min 0,000 mm 0,0 UV-I 107 W/m 0,8 C 3,4 C 20,9 km/h (4 Bft) 97,56 %
14.03.2019 15:04 7,7 C 7,2 C 8,3 C 61 % 1007,2 hPa 0,0 l/m 17,4 km/h (3 Bft) W 265 0 min 0,000 mm 0,0 UV-I 94 W/m 0,7 C 1,3 C 29,0 km/h (5 Bft) 97,87 %
14.03.2019 15:06 7,7 C 7,2 C 8,3 C 61 % 1007,2 hPa 0,0 l/m 21,3 km/h (4 Bft) W-SW 242 0 min 0,000 mm 0,0 UV-I 89 W/m 0,7 C -0,1 C 30,6 km/h (5 Bft) 97,87 %
14.03.2019 15:08 7,7 C 7,2 C 7,8 C 60 % 1007,1 hPa 0,0 l/m 26,2 km/h (4 Bft) W 276 0 min 0,000 mm 0,0 UV-I 81 W/m 0,4 C -1,6 C 40,2 km/h (6 Bft) 97,87 %
14.03.2019 15:10 7,6 C 7,2 C 7,8 C 60 % 1007,1 hPa 0,0 l/m 26,5 km/h (4 Bft) SW 234 0 min 0,000 mm 0,0 UV-I 79 W/m 0,3 C -1,8 C 40,2 km/h (6 Bft) 97,87 %
14.03.2019 15:12 7,6 C 7,2 C 7,8 C 61 % 1007,1 hPa 0,0 l/m 27,5 km/h (4 Bft) W-SW 241 0 min 0,000 mm 0,0 UV-I 78 W/m 0,6 C -2,1 C 41,8 km/h (6 Bft) 97,87 %
14.03.2019 15:14 7,5 C 7,2 C 7,8 C 62 % 1007,3 hPa 0,0 l/m 28,7 km/h (4 Bft) W-SW 244 0 min 0,000 mm 0,0 UV-I 76 W/m 0,7 C -2,5 C 43,5 km/h (6 Bft) 95,74 %
14.03.2019 15:16 7,4 C 7,2 C 7,2 C 62 % 1007,1 hPa 0,0 l/m 26,8 km/h (4 Bft) W 259 0 min 0,000 mm 0,0 UV-I 78 W/m 0,6 C -2,2 C 40,2 km/h (6 Bft) 97,87 %
14.03.2019 15:18 7,3 C 7,2 C 7,2 C 63 % 1007,1 hPa 0,0 l/m 30,3 km/h (5 Bft) W-SW 241 0 min 0,000 mm 0,0 UV-I 75 W/m 0,7 C -3,2 C 46,7 km/h (6 Bft) 95,74 %
14.03.2019 15:20 7,2 C 7,2 C 7,2 C 64 % 1007,1 hPa 0,0 l/m 30,8 km/h (5 Bft) W-SW 244 0 min 0,000 mm 0,0 UV-I 80 W/m 0,9 C -3,5 C 45,1 km/h (6 Bft) 98,00 %
14.03.2019 15:22 7,1 C 7,2 C 7,2 C 64 % 1007,1 hPa 0,0 l/m 25,2 km/h (4 Bft) W 271 0 min 0,000 mm 0,0 UV-I 76 W/m 0,8 C -2,2 C 38,6 km/h (5 Bft) 97,37 %
14.03.2019 15:24 7,1 C 7,2 C 7,2 C 65 % 1006,9 hPa 0,0 l/m 24,7 km/h (4 Bft) W-SW 257 0 min 0,000 mm 0,0 UV-I 73 W/m 1,0 C -2,0 C 37,0 km/h (5 Bft) 97,87 %
14.03.2019 15:26 7,0 C 7,2 C 7,2 C 65 % 1006,9 hPa 0,0 l/m 20,6 km/h (4 Bft) W 266 0 min 0,000 mm 0,0 UV-I 72 W/m 0,9 C -0,8 C 32,2 km/h (5 Bft) 92,45 %
14.03.2019 15:28 7,0 C 7,2 C 6,7 C 65 % 1006,9 hPa 0,0 l/m 20,8 km/h (4 Bft) SW 229 0 min 0,000 mm 0,0 UV-I 64 W/m 0,9 C -0,9 C 35,4 km/h (5 Bft) 97,44 %
14.03.2019 15:30 6,9 C 7,2 C 7,2 C 67 % 1006,9 hPa 0,0 l/m 21,8 km/h (4 Bft) S 191 0 min 0,000 mm 0,0 UV-I 72 W/m 1,2 C -1,4 C 38,6 km/h (5 Bft) 98,00 %
14.03.2019 15:32 6,8 C 7,2 C 7,2 C 67 % 1006,8 hPa 0,0 l/m 19,3 km/h (3 Bft) S-SW 193 0 min 0,000 mm 0,0 UV-I 74 W/m 1,1 C -0,6 C 33,8 km/h (5 Bft) 95,74 %
14.03.2019 15:34 6,8 C 7,2 C 6,7 C 67 % 1006,7 hPa 0,0 l/m 28,6 km/h (4 Bft) SW 232 0 min 0,000 mm 0,0 UV-I 71 W/m 1,1 C -3,5 C 41,8 km/h (6 Bft) 95,74 %
14.03.2019 15:36 6,8 C 7,2 C 6,7 C 68 % 1006,7 hPa 0,0 l/m 27,1 km/h (4 Bft) SW 229 0 min 0,000 mm 0,0 UV-I 77 W/m 1,3 C -3,1 C 35,4 km/h (5 Bft) 94,00 %
14.03.2019 15:38 6,7 C 7,2 C 7,2 C 68 % 1006,7 hPa 0,0 l/m 25,1 km/h (4 Bft) SW 225 0 min 0,000 mm 0,0 UV-I 85 W/m 1,2 C -2,7 C 32,2 km/h (5 Bft) 100,00 %
14.03.2019 15:40 6,7 C 7,2 C 7,2 C 68 % 1006,7 hPa 0,0 l/m 23,0 km/h (4 Bft) SW 214 0 min 0,000 mm 0,0 UV-I 86 W/m 1,2 C -2,0 C 30,6 km/h (5 Bft) 100,00 %
14.03.2019 15:42 6,7 C 7,2 C 7,2 C 69 % 1006,7 hPa 0,0 l/m 19,6 km/h (3 Bft) SW 231 0 min 0,000 mm 0,0 UV-I 83 W/m 1,4 C -0,8 C 30,6 km/h (5 Bft) 100,00 %
14.03.2019 15:44 6,7 C 7,2 C 6,7 C 69 % 1006,6 hPa 0,0 l/m 25,1 km/h (4 Bft) W-SW 251 0 min 0,000 mm 0,0 UV-I 79 W/m 1,4 C -2,7 C 43,5 km/h (6 Bft) 100,00 %
14.03.2019 15:46 6,6 C 7,2 C 6,7 C 69 % 1006,6 hPa 0,0 l/m 19,6 km/h (3 Bft) SW 236 0 min 0,000 mm 0,0 UV-I 81 W/m 1,3 C -1,0 C 30,6 km/h (5 Bft) 100,00 %
14.03.2019 15:48 6,6 C 7,2 C 6,7 C 69 % 1006,5 hPa 0,0 l/m 22,0 km/h (4 Bft) W 262 0 min 0,000 mm 0,0 UV-I 83 W/m 1,3 C -1,8 C 33,8 km/h (5 Bft) 98,00 %
14.03.2019 15:50 6,6 C 7,2 C 6,7 C 69 % 1006,6 hPa 0,0 l/m 24,5 km/h (4 Bft) W-SW 254 0 min 0,000 mm 0,0 UV-I 90 W/m 1,3 C -2,6 C 38,6 km/h (5 Bft) 98,00 %
14.03.2019 15:52 6,5 C 7,2 C 6,7 C 69 % 1006,5 hPa 0,0 l/m 20,2 km/h (4 Bft) W 268 0 min 0,000 mm 0,0 UV-I 94 W/m 1,2 C -1,3 C 30,6 km/h (5 Bft) 97,56 %
14.03.2019 15:54 6,4 C 7,2 C 6,7 C 71 % 1006,4 hPa 0,0 l/m 24,8 km/h (4 Bft) W 259 0 min 0,000 mm 0,0 UV-I 94 W/m 1,5 C -3,0 C 32,2 km/h (5 Bft) 96,00 %
14.03.2019 15:56 6,4 C 7,2 C 6,7 C 71 % 1006,4 hPa 0,0 l/m 20,7 km/h (4 Bft) SW 221 0 min 0,000 mm 0,0 UV-I 90 W/m 1,5 C -1,6 C 29,0 km/h (5 Bft) 96,00 %
14.03.2019 15:58 6,3 C 7,2 C 6,7 C 71 % 1006,2 hPa 0,0 l/m 22,5 km/h (4 Bft) W-SW 252 0 min 0,000 mm 0,0 UV-I 85 W/m 1,4 C -2,4 C 33,8 km/h (5 Bft) 97,87 %
14.03.2019 16:00 6,3 C 7,2 C 6,1 C 72 % 1006,2 hPa 0,0 l/m 20,9 km/h (4 Bft) W-SW 256 0 min 0,101 mm 0,0 UV-I 92 W/m 1,6 C -1,8 C 35,4 km/h (5 Bft) 97,87 %
14.03.2019 16:02 6,3 C 7,2 C 6,1 C 72 % 1006,2 hPa 0,0 l/m 24,2 km/h (4 Bft) SW 227 0 min 0,000 mm 0,0 UV-I 95 W/m 1,6 C -2,9 C 38,6 km/h (5 Bft) 95,74 %
14.03.2019 16:04 6,2 C 7,2 C 6,1 C 73 % 1006,1 hPa 0,0 l/m 22,2 km/h (4 Bft) W-SW 241 0 min 0,000 mm 0,0 UV-I 87 W/m 1,7 C -2,4 C 30,6 km/h (5 Bft) 96,00 %
14.03.2019 16:06 6,2 C 7,2 C 6,1 C 73 % 1006,0 hPa 0,0 l/m 20,1 km/h (4 Bft) W-SW 257 0 min 0,000 mm 0,0 UV-I 87 W/m 1,7 C -1,7 C 25,7 km/h (4 Bft) 94,74 %
14.03.2019 16:09 6,2 C 7,2 C 6,1 C 73 % 1005,9 hPa 0,0 l/m 20,1 km/h (4 Bft) W 259 0 min 0,000 mm 0,0 UV-I 91 W/m 1,7 C -1,7 C 29,0 km/h (5 Bft) 97,30 %
14.03.2019 16:10 6,2 C 7,2 C 6,7 C 73 % 1005,9 hPa 0,0 l/m 20,8 km/h (4 Bft) W-SW 247 0 min 0,000 mm 0,0 UV-I 90 W/m 1,7 C -1,9 C 27,4 km/h (4 Bft) 100,00 %
14.03.2019 16:12 6,2 C 7,2 C 6,7 C 73 % 1005,9 hPa 0,0 l/m 21,0 km/h (4 Bft) W-SW 254 0 min 0,000 mm 0,0 UV-I 85 W/m 1,7 C -2,0 C 32,2 km/h (5 Bft) 95,74 %
14.03.2019 16:14 6,2 C 7,2 C 6,7 C 73 % 1005,8 hPa 0,0 l/m 14,1 km/h (3 Bft) SW 230 0 min 0,000 mm 0,0 UV-I 76 W/m 1,7 C 1,0 C 22,5 km/h (4 Bft) 97,87 %
14.03.2019 16:16 6,2 C 7,2 C 6,7 C 73 % 1005,7 hPa 0,0 l/m 15,9 km/h (3 Bft) SW 236 0 min 0,000 mm 0,0 UV-I 66 W/m 1,7 C 0,1 C 22,5 km/h (4 Bft) 96,00 %
14.03.2019 16:18 6,2 C 7,2 C 6,7 C 73 % 1005,7 hPa 0,0 l/m 17,7 km/h (3 Bft) SW 232 0 min 0,000 mm 0,0 UV-I 57 W/m 1,7 C -0,7 C 27,4 km/h (4 Bft) 97,87 %
14.03.2019 16:20 6,2 C 7,2 C 6,1 C 73 % 1005,7 hPa 0,0 l/m 17,1 km/h (3 Bft) W-SW 250 0 min 0,000 mm 0,0 UV-I 54 W/m 1,7 C -0,4 C 25,7 km/h (4 Bft) 97,87 %
14.03.2019 16:22 6,2 C 7,2 C 6,1 C 73 % 1005,7 hPa 0,0 l/m 17,4 km/h (3 Bft) SW 222 0 min 0,000 mm 0,0 UV-I 53 W/m 1,7 C -0,6 C 25,7 km/h (4 Bft) 97,87 %
14.03.2019 16:24 6,2 C 7,2 C 6,1 C 73 % 1005,6 hPa 0,0 l/m 14,2 km/h (3 Bft) W 267 0 min 0,000 mm 0,0 UV-I 53 W/m 1,7 C 0,9 C 19,3 km/h (3 Bft) 95,74 %
14.03.2019 16:26 6,2 C 7,2 C 6,7 C 73 % 1005,6 hPa 0,0 l/m 15,8 km/h (3 Bft) W-SW 257 0 min 0,000 mm 0,0 UV-I 53 W/m 1,7 C 0,1 C 27,4 km/h (4 Bft) 97,37 %
14.03.2019 16:28 6,2 C 7,2 C 6,7 C 73 % 1005,6 hPa 0,0 l/m 17,3 km/h (3 Bft) W 266 0 min 0,000 mm 0,0 UV-I 53 W/m 1,7 C -0,5 C 24,1 km/h (4 Bft) 100,00 %
14.03.2019 16:30 6,2 C 7,2 C 6,7 C 73 % 1005,6 hPa 0,0 l/m 14,9 km/h (3 Bft) W-SW 248 0 min 0,000 mm 0,0 UV-I 51 W/m 1,7 C 0,6 C 25,7 km/h (4 Bft) 100,00 %
14.03.2019 16:32 6,3 C 7,2 C 6,7 C 73 % 1005,6 hPa 0,0 l/m 16,0 km/h (3 Bft) W 263 0 min 0,000 mm 0,0 UV-I 49 W/m 1,8 C 0,2 C 24,1 km/h (4 Bft) 97,87 %
14.03.2019 16:34 6,3 C 7,2 C 6,7 C 73 % 1005,6 hPa 0,0 l/m 16,2 km/h (3 Bft) SW 234 0 min 0,000 mm 0,0 UV-I 48 W/m 1,8 C 0,1 C 22,5 km/h (4 Bft) 97,87 %
14.03.2019 16:36 6,3 C 7,2 C 6,7 C 73 % 1005,5 hPa 0,0 l/m 18,4 km/h (3 Bft) SW 225 0 min 0,000 mm 0,0 UV-I 47 W/m 1,8 C -0,9 C 29,0 km/h (5 Bft) 100,00 %
14.03.2019 16:38 6,3 C 7,2 C 6,1 C 73 % 1005,6 hPa 0,0 l/m 14,5 km/h (3 Bft) W 269 0 min 0,000 mm 0,0 UV-I 46 W/m 1,8 C 0,9 C 20,9 km/h (4 Bft) 95,31 %
14.03.2019 16:40 6,3 C 7,2 C 6,1 C 73 % 1005,6 hPa 0,0 l/m 16,9 km/h (3 Bft) W-SW 247 0 min 0,000 mm 0,0 UV-I 44 W/m 1,8 C -0,2 C 24,1 km/h (4 Bft) 97,87 %
14.03.2019 16:42 6,3 C 7,2 C 6,1 C 73 % 1005,5 hPa 0,0 l/m 21,1 km/h (4 Bft) W 263 0 min 0,000 mm 0,0 UV-I 44 W/m 1,8 C -1,9 C 35,4 km/h (5 Bft) 97,87 %
14.03.2019 16:44 6,3 C 7,2 C 6,1 C 73 % 1005,6 hPa 0,0 l/m 23,7 km/h (4 Bft) W-SW 250 0 min 0,000 mm 0,0 UV-I 44 W/m 1,8 C -2,8 C 41,8 km/h (6 Bft) 97,92 %
14.03.2019 16:46 6,2 C 7,2 C 5,6 C 73 % 1005,5 hPa 0,0 l/m 27,7 km/h (4 Bft) W-SW 250 0 min 0,000 mm 0,0 UV-I 42 W/m 1,7 C -4,1 C 43,5 km/h (6 Bft) 95,74 %
14.03.2019 16:48 6,2 C 7,2 C 5,6 C 74 % 1005,5 hPa 0,0 l/m 20,6 km/h (4 Bft) SW 221 0 min 0,000 mm 0,0 UV-I 37 W/m 1,9 C -1,8 C 32,2 km/h (5 Bft) 97,87 %
14.03.2019 16:50 6,1 C 7,2 C 5,0 C 75 % 1005,5 hPa 0,0 l/m 24,5 km/h (4 Bft) W-SW 251 0 min 0,000 mm 0,0 UV-I 29 W/m 2,0 C -3,3 C 43,5 km/h (6 Bft) 97,87 %
14.03.2019 16:52 5,9 C 7,2 C 5,0 C 76 % 1005,5 hPa 0,0 l/m 19,4 km/h (3 Bft) SW 235 0 min 0,000 mm 0,0 UV-I 21 W/m 2,0 C -1,8 C 29,0 km/h (5 Bft) 97,87 %
14.03.2019 16:54 5,8 C 7,2 C 4,4 C 77 % 1005,5 hPa 0,0 l/m 25,5 km/h (4 Bft) SW 228 0 min 0,000 mm 0,0 UV-I 17 W/m 2,1 C -4,0 C 35,4 km/h (5 Bft) 97,87 %
14.03.2019 16:56 5,7 C 7,2 C 4,4 C 78 % 1005,5 hPa 0,0 l/m 23,5 km/h (4 Bft) SW 234 0 min 0,000 mm 0,0 UV-I 16 W/m 2,2 C -3,5 C 37,0 km/h (5 Bft) 95,74 %
14.03.2019 16:58 5,6 C 7,2 C 4,4 C 78 % 1005,4 hPa 0,0 l/m 18,3 km/h (3 Bft) S-SW 213 0 min 0,000 mm 0,0 UV-I 18 W/m 2,1 C -1,7 C 27,4 km/h (4 Bft) 100,00 %
14.03.2019 17:00 5,4 C 7,2 C 4,4 C 79 % 1005,4 hPa 0,0 l/m 21,7 km/h (4 Bft) W 259 0 min 0,000 mm 0,0 UV-I 19 W/m 2,1 C -3,3 C 32,2 km/h (5 Bft) 97,87 %
14.03.2019 17:02 5,4 C 7,2 C 4,4 C 80 % 1005,4 hPa 0,0 l/m 17,9 km/h (3 Bft) W-SW 255 0 min 0,077 mm 0,0 UV-I 18 W/m 2,2 C -1,8 C 29,0 km/h (5 Bft) 100,00 %
14.03.2019 17:04 5,3 C 7,2 C 3,9 C 81 % 1005,3 hPa 0,2 l/m 22,7 km/h (4 Bft) W-SW 238 0 min 0,000 mm 0,0 UV-I 18 W/m 2,3 C -3,8 C 40,2 km/h (6 Bft) 100,00 %
14.03.2019 17:06 5,2 C 7,2 C 3,9 C 81 % 1005,2 hPa 0,0 l/m 23,4 km/h (4 Bft) W-SW 240 0 min 0,000 mm 0,0 UV-I 18 W/m 2,2 C -4,2 C 37,0 km/h (5 Bft) 100,00 %
14.03.2019 17:08 5,1 C 7,2 C 3,9 C 82 % 1005,2 hPa 0,0 l/m 22,1 km/h (4 Bft) W-SW 244 0 min 0,000 mm 0,0 UV-I 18 W/m 2,3 C -3,8 C 32,2 km/h (5 Bft) 100,00 %
14.03.2019 17:10 5,1 C 7,2 C 3,9 C 82 % 1005,1 hPa 0,0 l/m 23,8 km/h (4 Bft) S-SW 210 0 min 0,000 mm 0,0 UV-I 16 W/m 2,3 C -4,4 C 37,0 km/h (5 Bft) 100,00 %
14.03.2019 17:12 5,0 C 7,2 C 3,9 C 82 % 1005,1 hPa 0,0 l/m 21,9 km/h (4 Bft) SW 232 0 min 0,000 mm 0,0 UV-I 16 W/m 2,2 C -3,9 C 33,8 km/h (5 Bft) 100,00 %
14.03.2019 17:14 5,0 C 7,2 C 3,9 C 82 % 1005,1 hPa 0,0 l/m 21,3 km/h (4 Bft) SW 219 0 min 0,000 mm 0,0 UV-I 17 W/m 2,2 C -3,7 C 32,2 km/h (5 Bft) 100,00 %
14.03.2019 17:16 4,9 C 7,2 C 3,9 C 83 % 1005,0 hPa 0,0 l/m 20,8 km/h (4 Bft) W 264 0 min 0,000 mm 0,0 UV-I 18 W/m 2,3 C -3,6 C 29,0 km/h (5 Bft) 97,87 %
14.03.2019 17:18 4,9 C 7,2 C 3,9 C 83 % 1005,0 hPa 0,0 l/m 19,3 km/h (3 Bft) S-SW 203 0 min 0,000 mm 0,0 UV-I 21 W/m 2,3 C -3,0 C 30,6 km/h (5 Bft) 100,00 %
14.03.2019 17:20 4,9 C 7,2 C 3,9 C 83 % 1005,0 hPa 0,2 l/m 19,9 km/h (4 Bft) W-SW 239 0 min 0,000 mm 0,0 UV-I 23 W/m 2,3 C -3,3 C 32,2 km/h (5 Bft) 100,00 %
14.03.2019 17:22 4,8 C 7,2 C 3,9 C 84 % 1004,9 hPa 0,0 l/m 21,0 km/h (4 Bft) W 265 0 min 0,000 mm 0,0 UV-I 22 W/m 2,3 C -3,8 C 29,0 km/h (5 Bft) 100,00 %
14.03.2019 17:24 4,8 C 7,2 C 3,9 C 84 % 1004,9 hPa 0,0 l/m 20,7 km/h (4 Bft) SW 234 0 min 0,000 mm 0,0 UV-I 16 W/m 2,3 C -3,7 C 33,8 km/h (5 Bft) 100,00 %
14.03.2019 17:26 4,8 C 7,2 C 3,9 C 84 % 1004,9 hPa 0,0 l/m 17,6 km/h (3 Bft) SW 223 0 min 0,000 mm 0,0 UV-I 11 W/m 2,3 C -2,4 C 30,6 km/h (5 Bft) 100,00 %
14.03.2019 17:28 4,7 C 7,2 C 3,9 C 85 % 1004,8 hPa 0,0 l/m 13,6 km/h (3 Bft) SW 232 0 min 0,000 mm 0,0 UV-I 8 W/m 2,4 C -0,5 C 24,1 km/h (4 Bft) 100,00 %
14.03.2019 17:30 4,7 C 7,2 C 3,9 C 85 % 1004,7 hPa 0,0 l/m 17,2 km/h (3 Bft) SW 233 0 min 0,000 mm 0,0 UV-I 7 W/m 2,4 C -2,4 C 29,0 km/h (5 Bft) 95,74 %
14.03.2019 17:32 4,7 C 7,2 C 3,9 C 86 % 1004,7 hPa 0,2 l/m 15,3 km/h (3 Bft) W-SW 244 0 min 0,000 mm 0,0 UV-I 8 W/m 2,6 C -1,4 C 22,5 km/h (4 Bft) 100,00 %
14.03.2019 17:34 4,6 C 7,2 C 3,9 C 86 % 1004,7 hPa 0,0 l/m 14,6 km/h (3 Bft) SW 234 0 min 0,000 mm 0,0 UV-I 9 W/m 2,5 C -1,2 C 24,1 km/h (4 Bft) 100,00 %
14.03.2019 17:36 4,6 C 7,2 C 3,9 C 86 % 1004,7 hPa 0,0 l/m 12,9 km/h (3 Bft) SW 233 0 min 0,000 mm 0,0 UV-I 9 W/m 2,5 C -0,2 C 20,9 km/h (4 Bft) 95,74 %
14.03.2019 17:38 4,6 C 7,2 C 3,9 C 86 % 1004,6 hPa 0,0 l/m 12,4 km/h (3 Bft) S-SW 211 0 min 0,000 mm 0,0 UV-I 11 W/m 2,5 C 0,1 C 17,7 km/h (3 Bft) 100,00 %
14.03.2019 17:40 4,6 C 7,2 C 3,9 C 87 % 1004,6 hPa 0,0 l/m 10,4 km/h (2 Bft) W-SW 242 0 min 0,000 mm 0,0 UV-I 11 W/m 2,6 C 1,3 C 16,1 km/h (3 Bft) 100,00 %
14.03.2019 17:42 4,5 C 7,2 C 3,9 C 87 % 1004,6 hPa 0,0 l/m 11,2 km/h (2 Bft) SW 227 0 min 0,000 mm 0,0 UV-I 10 W/m 2,5 C 0,7 C 19,3 km/h (3 Bft) 100,00 %
14.03.2019 17:44 4,4 C 7,2 C 3,9 C 87 % 1004,5 hPa 0,0 l/m 13,5 km/h (3 Bft) W-SW 241 0 min 0,000 mm 0,0 UV-I 7 W/m 2,4 C -0,8 C 17,7 km/h (3 Bft) 100,00 %
14.03.2019 17:46 4,4 C 7,2 C 3,9 C 87 % 1004,5 hPa 0,0 l/m 9,0 km/h (2 Bft) SW 223 0 min 0,000 mm 0,0 UV-I 7 W/m 2,4 C 2,2 C 14,5 km/h (3 Bft) 95,74 %
14.03.2019 17:48 4,4 C 7,2 C 3,9 C 87 % 1004,5 hPa 0,2 l/m 10,7 km/h (2 Bft) SW 225 0 min 0,000 mm 0,0 UV-I 7 W/m 2,4 C 0,9 C 17,7 km/h (3 Bft) 97,87 %
14.03.2019 17:50 4,4 C 7,2 C 3,9 C 88 % 1004,4 hPa 0,0 l/m 12,1 km/h (2 Bft) SW 229 0 min 0,000 mm 0,0 UV-I 7 W/m 2,6 C 0,0 C 20,9 km/h (4 Bft) 97,87 %
14.03.2019 17:52 4,4 C 7,2 C 3,9 C 88 % 1004,4 hPa 0,0 l/m 9,8 km/h (2 Bft) SW 223 0 min 0,000 mm 0,0 UV-I 6 W/m 2,6 C 1,6 C 19,3 km/h (3 Bft) 98,00 %
14.03.2019 17:54 4,4 C 7,2 C 3,9 C 88 % 1004,4 hPa 0,0 l/m 10,8 km/h (2 Bft) SW 225 0 min 0,000 mm 0,0 UV-I 7 W/m 2,6 C 0,8 C 17,7 km/h (3 Bft) 95,74 %
14.03.2019 17:56 4,3 C 7,2 C 3,9 C 88 % 1004,3 hPa 0,2 l/m 10,8 km/h (2 Bft) S-SW 211 0 min 0,000 mm 0,0 UV-I 7 W/m 2,5 C 0,7 C 19,3 km/h (3 Bft) 93,62 %
14.03.2019 17:58 4,3 C 7,2 C 3,9 C 88 % 1004,3 hPa 0,0 l/m 10,3 km/h (2 Bft) S-SW 202 0 min 0,000 mm 0,0 UV-I 7 W/m 2,5 C 1,1 C 17,7 km/h (3 Bft) 95,74 %
14.03.2019 18:00 4,3 C 7,2 C 3,9 C 88 % 1004,3 hPa 0,0 l/m 10,9 km/h (2 Bft) SW 216 0 min 0,025 mm 0,0 UV-I 7 W/m 2,5 C 0,7 C 19,3 km/h (3 Bft) 95,24 %
14.03.2019 18:02 4,3 C 7,2 C 3,9 C 88 % 1004,2 hPa 0,0 l/m 10,4 km/h (2 Bft) SW 228 0 min 0,000 mm 0,0 UV-I 5 W/m 2,5 C 1,0 C 16,1 km/h (3 Bft) 95,74 %
14.03.2019 18:04 4,4 C 7,2 C 3,9 C 88 % 1004,2 hPa 0,0 l/m 11,0 km/h (2 Bft) SW 219 0 min 0,000 mm 0,0 UV-I 5 W/m 2,6 C 0,7 C 17,7 km/h (3 Bft) 95,74 %
14.03.2019 18:06 4,3 C 7,2 C 3,9 C 88 % 1004,2 hPa 0,0 l/m 10,3 km/h (2 Bft) SW 214 0 min 0,000 mm 0,0 UV-I 5 W/m 2,5 C 1,1 C 16,1 km/h (3 Bft) 93,62 %
14.03.2019 18:08 4,3 C 7,2 C 3,9 C 88 % 1004,2 hPa 0,0 l/m 10,8 km/h (2 Bft) SW 231 0 min 0,000 mm 0,0 UV-I 1 W/m 2,5 C 0,7 C 16,1 km/h (3 Bft) 94,00 %
14.03.2019 18:10 4,3 C 7,2 C 3,9 C 88 % 1004,1 hPa 0,0 l/m 11,3 km/h (2 Bft) S-SW 207 0 min 0,000 mm 0,0 UV-I 0 W/m 2,5 C 0,4 C 17,7 km/h (3 Bft) 96,00 %
14.03.2019 18:12 4,4 C 7,2 C 3,9 C 88 % 1004,1 hPa 0,0 l/m 10,2 km/h (2 Bft) S-SW 207 0 min 0,000 mm 0,0 UV-I 0 W/m 2,6 C 1,3 C 19,3 km/h (3 Bft) 89,36 %
14.03.2019 18:14 4,4 C 7,2 C 3,9 C 88 % 1004,0 hPa 0,0 l/m 7,7 km/h (2 Bft) S 190 0 min 0,000 mm 0,0 UV-I 0 W/m 2,6 C 3,2 C 16,1 km/h (3 Bft) 93,62 %
14.03.2019 18:16 4,4 C 7,2 C 3,9 C 88 % 1004,0 hPa 0,0 l/m 9,8 km/h (2 Bft) SW 227 0 min 0,000 mm 0,0 UV-I 0 W/m 2,6 C 1,6 C 14,5 km/h (3 Bft) 89,47 %
14.03.2019 18:18 4,4 C 7,2 C 3,9 C 88 % 1004,0 hPa 0,0 l/m 9,6 km/h (2 Bft) W-SW 243 0 min 0,000 mm 0,0 UV-I 0 W/m 2,6 C 1,7 C 14,5 km/h (3 Bft) 95,74 %
14.03.2019 18:20 4,4 C 7,2 C 3,9 C 88 % 1004,0 hPa 0,0 l/m 8,4 km/h (2 Bft) S-SW 209 0 min 0,000 mm 0,0 UV-I 0 W/m 2,6 C 2,6 C 17,7 km/h (3 Bft) 98,00 %
14.03.2019 18:22 4,3 C 7,2 C 3,9 C 89 % 1004,0 hPa 0,0 l/m 9,3 km/h (2 Bft) SW 221 0 min 0,000 mm 0,0 UV-I 0 W/m 2,7 C 1,8 C 14,5 km/h (3 Bft) 93,62 %
14.03.2019 18:24 4,3 C 7,2 C 3,9 C 89 % 1003,9 hPa 0,2 l/m 7,7 km/h (2 Bft) SW 217 0 min 0,000 mm 0,0 UV-I 0 W/m 2,7 C 3,1 C 12,9 km/h (3 Bft) 95,74 %
14.03.2019 18:26 4,3 C 7,2 C 3,9 C 89 % 1003,9 hPa 0,0 l/m 8,8 km/h (2 Bft) SW 234 0 min 0,000 mm 0,0 UV-I 0 W/m 2,7 C 2,2 C 16,1 km/h (3 Bft) 93,62 %
14.03.2019 18:28 4,3 C 7,2 C 3,9 C 89 % 1003,9 hPa 0,0 l/m 7,8 km/h (2 Bft) SW 229 0 min 0,000 mm 0,0 UV-I 0 W/m 2,7 C 3,0 C 12,9 km/h (3 Bft) 95,74 %
14.03.2019 18:30 4,3 C 7,2 C 3,9 C 89 % 1003,8 hPa 0,0 l/m 7,1 km/h (2 Bft) S-SW 213 0 min 0,000 mm 0,0 UV-I 0 W/m 2,7 C 3,7 C 11,3 km/h (2 Bft) 94,74 %
14.03.2019 18:32 4,3 C 7,2 C 3,9 C 89 % 1003,7 hPa 0,0 l/m 7,4 km/h (2 Bft) SW 230 0 min 0,000 mm 0,0 UV-I 0 W/m 2,7 C 3,4 C 12,9 km/h (3 Bft) 98,11 %
14.03.2019 18:34 4,3 C 7,2 C 3,9 C 89 % 1003,8 hPa 0,0 l/m 9,7 km/h (2 Bft) SW 216 0 min 0,000 mm 0,0 UV-I 0 W/m 2,7 C 1,5 C 16,1 km/h (3 Bft) 94,00 %
14.03.2019 18:36 4,3 C 7,2 C 3,9 C 89 % 1003,7 hPa 0,0 l/m 6,5 km/h (2 Bft) SW 215 0 min 0,000 mm 0,0 UV-I 0 W/m 2,7 C 4,2 C 9,7 km/h (2 Bft) 97,87 %
14.03.2019 18:38 4,3 C 7,2 C 3,9 C 89 % 1003,7 hPa 0,0 l/m 8,7 km/h (2 Bft) W-SW 250 0 min 0,000 mm 0,0 UV-I 0 W/m 2,7 C 2,3 C 11,3 km/h (2 Bft) 97,87 %
14.03.2019 18:40 4,3 C 7,2 C 3,9 C 89 % 1003,7 hPa 0,0 l/m 6,3 km/h (2 Bft) SW 231 0 min 0,000 mm 0,0 UV-I 0 W/m 2,7 C 4,3 C 11,3 km/h (2 Bft) 97,87 %
14.03.2019 18:42 4,3 C 7,2 C 3,9 C 90 % 1003,7 hPa 0,0 l/m 7,6 km/h (2 Bft) SW 224 0 min 0,000 mm 0,0 UV-I 0 W/m 2,8 C 3,2 C 11,3 km/h (2 Bft) 95,83 %
14.03.2019 18:44 4,3 C 7,2 C 3,9 C 90 % 1003,7 hPa 0,0 l/m 6,5 km/h (2 Bft) SW 235 0 min 0,000 mm 0,0 UV-I 0 W/m 2,8 C 4,2 C 9,7 km/h (2 Bft) 95,74 %
14.03.2019 18:46 4,3 C 7,2 C 3,9 C 90 % 1003,7 hPa 0,0 l/m 7,6 km/h (2 Bft) S-SW 213 0 min 0,000 mm 0,0 UV-I 0 W/m 2,8 C 3,2 C 12,9 km/h (3 Bft) 95,74 %
14.03.2019 18:48 4,3 C 7,2 C 3,9 C 90 % 1003,7 hPa 0,2 l/m 6,9 km/h (2 Bft) SW 228 0 min 0,000 mm 0,0 UV-I 0 W/m 2,8 C 3,9 C 12,9 km/h (3 Bft) 95,74 %
14.03.2019 18:50 4,3 C 7,2 C 3,9 C 90 % 1003,7 hPa 0,0 l/m 9,6 km/h (2 Bft) SW 222 0 min 0,000 mm 0,0 UV-I 0 W/m 2,8 C 1,6 C 12,9 km/h (3 Bft) 97,87 %
14.03.2019 18:52 4,4 C 7,2 C 3,9 C 90 % 1003,6 hPa 0,0 l/m 8,5 km/h (2 Bft) SW 217 0 min 0,000 mm 0,0 UV-I 0 W/m 2,9 C 2,6 C 19,3 km/h (3 Bft) 97,87 %
14.03.2019 18:54 4,4 C 7,2 C 3,9 C 90 % 1003,7 hPa 0,0 l/m 8,0 km/h (2 Bft) SW 225 0 min 0,000 mm 0,0 UV-I 0 W/m 2,9 C 3,0 C 12,9 km/h (3 Bft) 93,62 %
14.03.2019 18:56 4,4 C 7,2 C 3,9 C 89 % 1003,7 hPa 0,0 l/m 5,9 km/h (2 Bft) SW 230 0 min 0,000 mm 0,0 UV-I 0 W/m 2,7 C 4,4 C 9,7 km/h (2 Bft) 97,87 %
14.03.2019 18:58 4,4 C 7,2 C 3,9 C 89 % 1003,7 hPa 0,0 l/m 7,6 km/h (2 Bft) W-SW 244 0 min 0,000 mm 0,0 UV-I 0 W/m 2,7 C 3,3 C 12,9 km/h (3 Bft) 97,87 %
14.03.2019 19:00 4,4 C 7,2 C 3,9 C 89 % 1003,7 hPa 0,0 l/m 9,0 km/h (2 Bft) W-SW 237 0 min 0,000 mm 0,0 UV-I 0 W/m 2,7 C 2,2 C 16,1 km/h (3 Bft) 94,74 %
14.03.2019 19:02 4,5 C 7,2 C 3,9 C 89 % 1003,8 hPa 0,0 l/m 8,3 km/h (2 Bft) W 268 0 min 0,000 mm 0,0 UV-I 0 W/m 2,8 C 2,8 C 12,9 km/h (3 Bft) 95,74 %
14.03.2019 19:04 4,5 C 7,2 C 3,9 C 89 % 1003,7 hPa 0,0 l/m 6,4 km/h (2 Bft) W-SW 255 0 min 0,000 mm 0,0 UV-I 0 W/m 2,8 C 4,5 C 9,7 km/h (2 Bft) 97,87 %
14.03.2019 19:06 4,5 C 7,2 C 3,9 C 89 % 1003,8 hPa 0,0 l/m 6,2 km/h (2 Bft) W-NW 286 0 min 0,000 mm 0,0 UV-I 0 W/m 2,8 C 4,5 C 8,0 km/h (2 Bft) 97,87 %
14.03.2019 19:08 4,5 C 7,2 C 3,9 C 89 % 1003,7 hPa 0,2 l/m 5,8 km/h (2 Bft) W-SW 250 0 min 0,000 mm 0,0 UV-I 0 W/m 2,8 C 4,5 C 9,7 km/h (2 Bft) 95,74 %
14.03.2019 19:10 4,4 C 7,2 C 3,9 C 89 % 1003,7 hPa 0,0 l/m 7,5 km/h (2 Bft) S-SW 199 0 min 0,000 mm 0,0 UV-I 0 W/m 2,7 C 3,4 C 14,5 km/h (3 Bft) 97,87 %
14.03.2019 19:12 4,4 C 7,2 C 3,9 C 90 % 1003,6 hPa 0,0 l/m 5,0 km/h (1 Bft) W-SW 239 0 min 0,000 mm 0,0 UV-I 0 W/m 2,9 C 4,4 C 16,1 km/h (3 Bft) 97,87 %
14.03.2019 19:14 4,5 C 7,2 C 3,9 C 90 % 1003,6 hPa 0,0 l/m 8,6 km/h (2 Bft) W-SW 239 0 min 0,000 mm 0,0 UV-I 0 W/m 3,0 C 2,6 C 14,5 km/h (3 Bft) 97,92 %
14.03.2019 19:16 4,5 C 7,2 C 3,9 C 90 % 1003,4 hPa 0,0 l/m 4,5 km/h (1 Bft) SW 223 0 min 0,000 mm 0,0 UV-I 0 W/m 3,0 C 4,5 C 8,0 km/h (2 Bft) 93,62 %
14.03.2019 19:18 4,4 C 7,2 C 3,9 C 90 % 1003,3 hPa 0,0 l/m 4,6 km/h (1 Bft) SW 236 0 min 0,000 mm 0,0 UV-I 0 W/m 2,9 C 4,4 C 8,0 km/h (2 Bft) 95,74 %
14.03.2019 19:20 4,4 C 7,2 C 3,9 C 90 % 1003,2 hPa 0,0 l/m 4,8 km/h (1 Bft) SW 220 0 min 0,000 mm 0,0 UV-I 0 W/m 2,9 C 4,4 C 8,0 km/h (2 Bft) 94,00 %
14.03.2019 19:22 4,4 C 7,2 C 3,9 C 90 % 1003,2 hPa 0,0 l/m 5,1 km/h (1 Bft) S-SW 211 0 min 0,000 mm 0,0 UV-I 0 W/m 2,9 C 4,4 C 8,0 km/h (2 Bft) 93,62 %
14.03.2019 19:24 4,4 C 7,2 C 3,9 C 90 % 1003,2 hPa 0,0 l/m 4,8 km/h (1 Bft) SW 220 0 min 0,000 mm 0,0 UV-I 0 W/m 2,9 C 4,4 C 6,4 km/h (2 Bft) 96,00 %
14.03.2019 19:26 4,4 C 7,2 C 3,9 C 90 % 1003,1 hPa 0,0 l/m 4,8 km/h (1 Bft) W-SW 255 0 min 0,000 mm 0,0 UV-I 0 W/m 2,9 C 4,4 C 6,4 km/h (2 Bft) 97,87 %
14.03.2019 19:28 4,4 C 7,2 C 3,9 C 90 % 1003,1 hPa 0,0 l/m 5,1 km/h (1 Bft) SW 226 0 min 0,000 mm 0,0 UV-I 0 W/m 2,9 C 4,4 C 9,7 km/h (2 Bft) 93,62 %
14.03.2019 19:30 4,4 C 7,2 C 3,9 C 90 % 1003,1 hPa 0,0 l/m 4,9 km/h (1 Bft) SW 225 0 min 0,000 mm 0,0 UV-I 0 W/m 2,9 C 4,4 C 8,0 km/h (2 Bft) 95,74 %
14.03.2019 19:32 4,5 C 7,2 C 3,9 C 90 % 1003,1 hPa 0,2 l/m 4,0 km/h (1 Bft) S-SW 203 0 min 0,000 mm 0,0 UV-I 0 W/m 3,0 C 4,5 C 6,4 km/h (2 Bft) 97,37 %
14.03.2019 19:34 4,5 C 7,2 C 3,9 C 90 % 1003,1 hPa 0,0 l/m 7,9 km/h (2 Bft) W-SW 238 0 min 0,000 mm 0,0 UV-I 0 W/m 3,0 C 3,2 C 17,7 km/h (3 Bft) 97,87 %
14.03.2019 19:36 4,5 C 7,2 C 3,9 C 90 % 1003,1 hPa 0,0 l/m 7,6 km/h (2 Bft) SW 221 0 min 0,000 mm 0,0 UV-I 0 W/m 3,0 C 3,4 C 12,9 km/h (3 Bft) 97,87 %
14.03.2019 19:38 4,5 C 7,2 C 3,9 C 90 % 1003,1 hPa 0,0 l/m 5,1 km/h (1 Bft) SW 235 0 min 0,000 mm 0,0 UV-I 0 W/m 3,0 C 4,5 C 8,0 km/h (2 Bft) 100,00 %
14.03.2019 19:40 4,5 C 7,2 C 3,9 C 90 % 1003,1 hPa 0,0 l/m 3,7 km/h (1 Bft) S-SW 202 0 min 0,000 mm 0,0 UV-I 0 W/m 3,0 C 4,5 C 8,0 km/h (2 Bft) 100,00 %
14.03.2019 19:42 4,5 C 7,2 C 3,9 C 90 % 1003,1 hPa 0,0 l/m 4,9 km/h (1 Bft) W 273 0 min 0,000 mm 0,0 UV-I 0 W/m 3,0 C 4,5 C 8,0 km/h (2 Bft) 100,00 %
14.03.2019 19:44 4,5 C 7,2 C 3,9 C 90 % 1003,1 hPa 0,0 l/m 4,2 km/h (1 Bft) W-SW 247 0 min 0,000 mm 0,0 UV-I 0 W/m 3,0 C 4,5 C 8,0 km/h (2 Bft) 100,00 %
14.03.2019 19:46 4,5 C 7,2 C 3,9 C 90 % 1003,1 hPa 0,0 l/m 4,0 km/h (1 Bft) W-SW 254 0 min 0,000 mm 0,0 UV-I 0 W/m 3,0 C 4,5 C 6,4 km/h (2 Bft) 100,00 %
14.03.2019 19:48 4,4 C 7,2 C 3,9 C 90 % 1003,1 hPa 0,0 l/m 4,3 km/h (1 Bft) W 262 0 min 0,000 mm 0,0 UV-I 0 W/m 2,9 C 4,4 C 6,4 km/h (2 Bft) 100,00 %
14.03.2019 19:50 4,4 C 7,2 C 3,9 C 91 % 1003,0 hPa 0,0 l/m 6,3 km/h (2 Bft) W 264 0 min 0,000 mm 0,0 UV-I 0 W/m 3,1 C 4,4 C 11,3 km/h (2 Bft) 100,00 %
14.03.2019 19:52 4,4 C 7,2 C 3,9 C 91 % 1003,0 hPa 0,0 l/m 5,7 km/h (1 Bft) W-SW 252 0 min 0,000 mm 0,0 UV-I 0 W/m 3,1 C 4,4 C 9,7 km/h (2 Bft) 96,00 %
14.03.2019 19:54 4,4 C 7,2 C 3,9 C 91 % 1003,1 hPa 0,0 l/m 6,0 km/h (2 Bft) W-SW 257 0 min 0,000 mm 0,0 UV-I 0 W/m 3,1 C 4,4 C 8,0 km/h (2 Bft) 100,00 %
14.03.2019 19:56 4,4 C 7,2 C 3,9 C 91 % 1003,0 hPa 0,0 l/m 8,7 km/h (2 Bft) W-SW 242 0 min 0,000 mm 0,0 UV-I 0 W/m 3,1 C 2,4 C 12,9 km/h (3 Bft) 96,00 %
14.03.2019 19:58 4,4 C 7,2 C 3,9 C 91 % 1003,0 hPa 0,2 l/m 7,9 km/h (2 Bft) W-SW 255 0 min 0,000 mm 0,0 UV-I 0 W/m 3,1 C 3,1 C 16,1 km/h (3 Bft) 97,87 %
14.03.2019 20:00 4,4 C 7,2 C 3,9 C 91 % 1003,0 hPa 0,0 l/m 8,4 km/h (2 Bft) W 263 0 min 0,000 mm 0,0 UV-I 0 W/m 3,1 C 2,6 C 12,9 km/h (3 Bft) 98,00 %
14.03.2019 20:02 4,5 C 7,2 C 3,9 C 91 % 1003,0 hPa 0,0 l/m 9,9 km/h (2 Bft) W-SW 251 0 min 0,000 mm 0,0 UV-I 0 W/m 3,2 C 1,6 C 14,5 km/h (3 Bft) 97,87 %
14.03.2019 20:04 4,4 C 7,2 C 3,9 C 91 % 1003,0 hPa 0,0 l/m 8,0 km/h (2 Bft) W 266 0 min 0,000 mm 0,0 UV-I 0 W/m 3,1 C 3,0 C 12,9 km/h (3 Bft) 97,87 %
14.03.2019 20:06 4,4 C 7,2 C 3,9 C 91 % 1003,0 hPa 0,0 l/m 10,3 km/h (2 Bft) W 261 0 min 0,000 mm 0,0 UV-I 0 W/m 3,1 C 1,2 C 14,5 km/h (3 Bft) 97,87 %
14.03.2019 20:08 4,4 C 7,2 C 3,9 C 91 % 1002,9 hPa 0,2 l/m 10,6 km/h (2 Bft) W-SW 251 0 min 0,000 mm 0,0 UV-I 0 W/m 3,1 C 1,0 C 14,5 km/h (3 Bft) 93,62 %
14.03.2019 20:10 4,4 C 7,2 C 3,9 C 91 % 1003,0 hPa 0,0 l/m 9,3 km/h (2 Bft) W 269 0 min 0,000 mm 0,0 UV-I 0 W/m 3,1 C 1,9 C 12,9 km/h (3 Bft) 97,87 %
14.03.2019 20:12 4,4 C 7,2 C 3,9 C 91 % 1003,0 hPa 0,0 l/m 11,9 km/h (2 Bft) W 267 0 min 0,000 mm 0,0 UV-I 0 W/m 3,1 C 0,1 C 20,9 km/h (4 Bft) 95,74 %
14.03.2019 20:14 4,4 C 7,2 C 3,9 C 91 % 1003,0 hPa 0,0 l/m 13,2 km/h (3 Bft) W-SW 244 0 min 0,000 mm 0,0 UV-I 0 W/m 3,1 C -0,7 C 19,3 km/h (3 Bft) 91,49 %
14.03.2019 20:16 4,4 C 7,2 C 3,9 C 91 % 1002,9 hPa 0,0 l/m 14,0 km/h (3 Bft) W 261 0 min 0,000 mm 0,0 UV-I 0 W/m 3,1 C -1,1 C 22,5 km/h (4 Bft) 95,74 %
14.03.2019 20:18 4,4 C 7,2 C 3,9 C 91 % 1002,9 hPa 0,0 l/m 10,8 km/h (2 Bft) W 263 0 min 0,000 mm 0,0 UV-I 0 W/m 3,1 C 0,8 C 19,3 km/h (3 Bft) 97,87 %
14.03.2019 20:20 4,4 C 7,2 C 3,9 C 91 % 1002,9 hPa 0,2 l/m 9,9 km/h (2 Bft) W 265 0 min 0,000 mm 0,0 UV-I 0 W/m 3,1 C 1,5 C 17,7 km/h (3 Bft) 97,37 %
14.03.2019 20:22 4,4 C 7,2 C 3,9 C 91 % 1003,0 hPa 0,0 l/m 11,7 km/h (2 Bft) W-SW 248 0 min 0,000 mm 0,0 UV-I 0 W/m 3,1 C 0,3 C 17,7 km/h (3 Bft) 97,87 %
14.03.2019 20:24 4,4 C 7,2 C 3,9 C 91 % 1003,0 hPa 0,0 l/m 11,6 km/h (2 Bft) W-SW 252 0 min 0,000 mm 0,0 UV-I 0 W/m 3,1 C 0,3 C 17,7 km/h (3 Bft) 97,87 %
14.03.2019 20:26 4,4 C 7,2 C 3,9 C 91 % 1003,0 hPa 0,0 l/m 14,6 km/h (3 Bft) W-SW 258 0 min 0,000 mm 0,0 UV-I 0 W/m 3,1 C -1,4 C 20,9 km/h (4 Bft) 95,74 %
14.03.2019 20:28 4,4 C 7,2 C 3,9 C 91 % 1003,0 hPa 0,2 l/m 15,9 km/h (3 Bft) W 278 0 min 0,000 mm 0,0 UV-I 0 W/m 3,1 C -2,1 C 22,5 km/h (4 Bft) 95,74 %
14.03.2019 20:30 4,4 C 7,2 C 3,9 C 91 % 1003,1 hPa 0,0 l/m 17,4 km/h (3 Bft) W-SW 250 0 min 0,000 mm 0,0 UV-I 0 W/m 3,1 C -2,8 C 27,4 km/h (4 Bft) 97,92 %
14.03.2019 20:32 4,4 C 7,2 C 3,9 C 91 % 1003,0 hPa 0,2 l/m 17,1 km/h (3 Bft) W-SW 238 0 min 0,000 mm 0,0 UV-I 0 W/m 3,1 C -2,7 C 24,1 km/h (4 Bft) 95,74 %
14.03.2019 20:34 4,4 C 7,2 C 3,9 C 91 % 1003,1 hPa 0,0 l/m 17,0 km/h (3 Bft) SW 220 0 min 0,000 mm 0,0 UV-I 0 W/m 3,1 C -2,6 C 25,7 km/h (4 Bft) 93,62 %
14.03.2019 20:36 4,4 C 7,2 C 3,9 C 91 % 1003,1 hPa 0,0 l/m 19,7 km/h (3 Bft) SW 225 0 min 0,000 mm 0,0 UV-I 0 W/m 3,1 C -3,8 C 27,4 km/h (4 Bft) 97,87 %
14.03.2019 20:38 4,4 C 7,2 C 3,9 C 91 % 1003,0 hPa 0,2 l/m 19,0 km/h (3 Bft) W-SW 244 0 min 0,000 mm 0,0 UV-I 0 W/m 3,1 C -3,5 C 24,1 km/h (4 Bft) 97,87 %
14.03.2019 20:40 4,3 C 7,2 C 3,9 C 91 % 1003,1 hPa 0,0 l/m 16,2 km/h (3 Bft) W 260 0 min 0,000 mm 0,0 UV-I 0 W/m 3,0 C -2,4 C 27,4 km/h (4 Bft) 97,87 %
14.03.2019 20:42 4,3 C 7,2 C 3,9 C 91 % 1003,1 hPa 0,2 l/m 17,1 km/h (3 Bft) W 278 0 min 0,000 mm 0,0 UV-I 0 W/m 3,0 C -2,8 C 27,4 km/h (4 Bft) 96,00 %
14.03.2019 20:44 4,3 C 7,2 C 3,9 C 91 % 1003,1 hPa 0,0 l/m 16,4 km/h (3 Bft) NW 309 0 min 0,000 mm 0,0 UV-I 0 W/m 3,0 C -2,5 C 24,1 km/h (4 Bft) 95,74 %
14.03.2019 20:46 4,3 C 7,2 C 3,9 C 91 % 1003,0 hPa 0,2 l/m 12,7 km/h (3 Bft) W 265 0 min 0,000 mm 0,0 UV-I 0 W/m 3,0 C -0,5 C 17,7 km/h (3 Bft) 93,62 %
14.03.2019 20:48 4,3 C 7,2 C 3,9 C 91 % 1003,2 hPa 0,0 l/m 15,2 km/h (3 Bft) W-SW 252 0 min 0,000 mm 0,0 UV-I 0 W/m 3,0 C -1,9 C 22,5 km/h (4 Bft) 93,62 %
14.03.2019 20:50 4,3 C 7,2 C 3,9 C 91 % 1003,2 hPa 0,0 l/m 19,8 km/h (3 Bft) W 269 0 min 0,000 mm 0,0 UV-I 0 W/m 3,0 C -4,0 C 24,1 km/h (4 Bft) 96,00 %
14.03.2019 20:52 4,3 C 7,2 C 3,9 C 91 % 1003,1 hPa 0,2 l/m 20,1 km/h (4 Bft) W-SW 257 0 min 0,000 mm 0,0 UV-I 0 W/m 3,0 C -4,1 C 30,6 km/h (5 Bft) 97,87 %
14.03.2019 20:54 4,3 C 7,2 C 3,9 C 91 % 1003,1 hPa 0,0 l/m 16,9 km/h (3 Bft) W 265 0 min 0,000 mm 0,0 UV-I 0 W/m 3,0 C -2,7 C 25,7 km/h (4 Bft) 97,87 %
14.03.2019 20:56 4,3 C 7,2 C 3,9 C 91 % 1003,1 hPa 0,0 l/m 13,6 km/h (3 Bft) W-SW 240 0 min 0,000 mm 0,0 UV-I 0 W/m 3,0 C -1,0 C 19,3 km/h (3 Bft) 97,87 %
14.03.2019 20:58 4,3 C 7,2 C 3,9 C 91 % 1003,0 hPa 0,0 l/m 15,6 km/h (3 Bft) W-SW 242 0 min 0,000 mm 0,0 UV-I 0 W/m 3,0 C -2,1 C 25,7 km/h (4 Bft) 100,00 %
14.03.2019 21:00 4,3 C 7,2 C 3,9 C 91 % 1003,0 hPa 0,0 l/m 13,3 km/h (3 Bft) W-SW 241 0 min 0,000 mm 0,0 UV-I 0 W/m 3,0 C -0,8 C 25,7 km/h (4 Bft) 100,00 %
14.03.2019 21:02 4,3 C 7,2 C 3,9 C 92 % 1003,0 hPa 0,2 l/m 15,4 km/h (3 Bft) W 275 0 min 0,025 mm 0,0 UV-I 0 W/m 3,1 C -2,0 C 20,9 km/h (4 Bft) 100,00 %
14.03.2019 21:04 4,2 C 7,2 C 3,9 C 92 % 1003,0 hPa 0,0 l/m 14,1 km/h (3 Bft) W-NW 286 0 min 0,000 mm 0,0 UV-I 0 W/m 3,0 C -1,4 C 24,1 km/h (4 Bft) 97,87 %
14.03.2019 21:06 4,2 C 7,2 C 3,9 C 92 % 1002,9 hPa 0,0 l/m 15,0 km/h (3 Bft) W-SW 251 0 min 0,000 mm 0,0 UV-I 0 W/m 3,0 C -1,9 C 24,1 km/h (4 Bft) 100,00 %
14.03.2019 21:08 4,2 C 7,2 C 3,9 C 92 % 1003,0 hPa 0,0 l/m 15,2 km/h (3 Bft) W 264 0 min 0,000 mm 0,0 UV-I 0 W/m 3,0 C -2,0 C 22,5 km/h (4 Bft) 100,00 %
14.03.2019 21:10 4,2 C 7,2 C 3,9 C 92 % 1003,0 hPa 0,0 l/m 18,5 km/h (3 Bft) NW 313 0 min 0,000 mm 0,0 UV-I 0 W/m 3,0 C -3,6 C 29,0 km/h (5 Bft) 100,00 %
14.03.2019 21:12 4,2 C 7,2 C 3,9 C 92 % 1003,1 hPa 0,0 l/m 11,8 km/h (2 Bft) W 277 0 min 0,000 mm 0,0 UV-I 0 W/m 3,0 C -0,0 C 17,7 km/h (3 Bft) 95,74 %
14.03.2019 21:14 4,2 C 7,2 C 3,9 C 92 % 1003,0 hPa 0,0 l/m 15,5 km/h (3 Bft) W 272 0 min 0,000 mm 0,0 UV-I 0 W/m 3,0 C -2,2 C 20,9 km/h (4 Bft) 100,00 %
14.03.2019 21:16 4,2 C 7,2 C 3,9 C 92 % 1003,0 hPa 0,0 l/m 14,2 km/h (3 Bft) W 263 0 min 0,000 mm 0,0 UV-I 0 W/m 3,0 C -1,5 C 25,7 km/h (4 Bft) 100,00 %
14.03.2019 21:18 4,2 C 7,2 C 3,9 C 92 % 1003,0 hPa 0,0 l/m 15,4 km/h (3 Bft) W-SW 254 0 min 0,000 mm 0,0 UV-I 0 W/m 3,0 C -2,1 C 25,7 km/h (4 Bft) 100,00 %
14.03.2019 21:20 4,3 C 7,2 C 3,9 C 92 % 1003,0 hPa 0,0 l/m 13,0 km/h (3 Bft) W-NW 287 0 min 0,000 mm 0,0 UV-I 0 W/m 3,1 C -0,7 C 22,5 km/h (4 Bft) 98,00 %
14.03.2019 21:22 4,2 C 7,2 C 3,9 C 92 % 1003,0 hPa 0,0 l/m 13,3 km/h (3 Bft) W-SW 246 0 min 0,000 mm 0,0 UV-I 0 W/m 3,0 C -1,0 C 20,9 km/h (4 Bft) 97,37 %
14.03.2019 21:24 4,3 C 7,2 C 3,9 C 92 % 1003,0 hPa 0,0 l/m 11,6 km/h (2 Bft) W-SW 242 0 min 0,000 mm 0,0 UV-I 0 W/m 3,1 C 0,2 C 16,1 km/h (3 Bft) 97,87 %
14.03.2019 21:26 4,2 C 7,2 C 3,9 C 92 % 1003,0 hPa 0,0 l/m 22,7 km/h (4 Bft) SW 225 0 min 0,000 mm 0,0 UV-I 0 W/m 3,0 C -5,2 C 37,0 km/h (5 Bft) 100,00 %
14.03.2019 21:28 4,3 C 7,2 C 3,9 C 92 % 1002,9 hPa 0,0 l/m 17,9 km/h (3 Bft) W 262 0 min 0,000 mm 0,0 UV-I 0 W/m 3,1 C -3,2 C 29,0 km/h (5 Bft) 100,00 %
14.03.2019 21:30 4,3 C 7,2 C 3,9 C 92 % 1003,0 hPa 0,0 l/m 15,5 km/h (3 Bft) W-SW 246 0 min 0,000 mm 0,0 UV-I 0 W/m 3,1 C -2,0 C 24,1 km/h (4 Bft) 95,74 %
14.03.2019 21:32 4,3 C 7,2 C 3,9 C 91 % 1003,0 hPa 0,0 l/m 20,6 km/h (4 Bft) W 269 0 min 0,000 mm 0,0 UV-I 0 W/m 3,0 C -4,3 C 29,0 km/h (5 Bft) 100,00 %
14.03.2019 21:34 4,3 C 7,2 C 3,9 C 91 % 1003,0 hPa 0,0 l/m 22,5 km/h (4 Bft) W-SW 253 0 min 0,000 mm 0,0 UV-I 0 W/m 3,0 C -5,0 C 40,2 km/h (6 Bft) 100,00 %
14.03.2019 21:36 4,4 C 7,2 C 3,9 C 91 % 1003,0 hPa 0,0 l/m 22,1 km/h (4 Bft) W-SW 256 0 min 0,000 mm 0,0 UV-I 0 W/m 3,1 C -4,8 C 32,2 km/h (5 Bft) 97,87 %
14.03.2019 21:39 4,4 C 7,2 C 3,9 C 91 % 1002,9 hPa 0,0 l/m 25,2 km/h (4 Bft) W-SW 246 0 min 0,000 mm 0,0 UV-I 0 W/m 3,1 C -5,8 C 40,2 km/h (6 Bft) 97,30 %
14.03.2019 21:40 4,4 C 7,2 C 3,9 C 91 % 1002,9 hPa 0,0 l/m 22,3 km/h (4 Bft) SW 227 0 min 0,000 mm 0,0 UV-I 0 W/m 3,1 C -4,8 C 33,8 km/h (5 Bft) 100,00 %
14.03.2019 21:42 4,4 C 7,2 C 3,9 C 91 % 1002,9 hPa 0,0 l/m 23,3 km/h (4 Bft) W-SW 237 0 min 0,000 mm 0,0 UV-I 0 W/m 3,1 C -5,2 C 37,0 km/h (5 Bft) 100,00 %
14.03.2019 21:44 4,4 C 7,2 C 3,9 C 91 % 1002,9 hPa 0,0 l/m 23,2 km/h (4 Bft) W 273 0 min 0,000 mm 0,0 UV-I 0 W/m 3,1 C -5,2 C 37,0 km/h (5 Bft) 100,00 %
14.03.2019 21:46 4,5 C 7,2 C 3,9 C 91 % 1003,0 hPa 0,0 l/m 26,7 km/h (4 Bft) W-SW 252 0 min 0,000 mm 0,0 UV-I 0 W/m 3,2 C -6,2 C 41,8 km/h (6 Bft) 100,00 %
14.03.2019 21:49 4,5 C 7,2 C 3,9 C 90 % 1003,0 hPa 0,2 l/m 25,8 km/h (4 Bft) W-SW 240 0 min 0,000 mm 0,0 UV-I 0 W/m 3,0 C -5,9 C 41,8 km/h (6 Bft) 95,77 %
14.03.2019 21:50 4,5 C 7,2 C 3,9 C 90 % 1003,0 hPa 0,0 l/m 24,8 km/h (4 Bft) SW 225 0 min 0,000 mm 0,0 UV-I 0 W/m 3,0 C -5,6 C 35,4 km/h (5 Bft) 100,00 %
14.03.2019 21:52 4,5 C 7,2 C 3,9 C 90 % 1003,0 hPa 0,0 l/m 25,1 km/h (4 Bft) W-NW 302 0 min 0,000 mm 0,0 UV-I 0 W/m 3,0 C -5,7 C 38,6 km/h (5 Bft) 97,87 %
14.03.2019 21:54 4,5 C 7,2 C 3,9 C 90 % 1003,0 hPa 0,2 l/m 24,4 km/h (4 Bft) W-SW 256 0 min 0,000 mm 0,0 UV-I 0 W/m 3,0 C -5,4 C 37,0 km/h (5 Bft) 97,87 %
14.03.2019 21:56 4,5 C 7,2 C 3,9 C 91 % 1003,0 hPa 0,0 l/m 23,6 km/h (4 Bft) W 266 0 min 0,000 mm 0,0 UV-I 0 W/m 3,2 C -5,2 C 35,4 km/h (5 Bft) 97,87 %
14.03.2019 21:59 4,4 C 7,2 C 3,9 C 91 % 1003,0 hPa 0,2 l/m 26,8 km/h (4 Bft) SW 219 0 min 0,000 mm 0,0 UV-I 0 W/m 3,1 C -6,3 C 46,7 km/h (6 Bft) 95,12 %
14.03.2019 22:00 4,4 C 7,2 C 3,9 C 91 % 1003,0 hPa 0,0 l/m 23,5 km/h (4 Bft) W-SW 253 0 min 0,000 mm 0,0 UV-I 0 W/m 3,1 C -5,3 C 29,0 km/h (5 Bft) 100,00 %
14.03.2019 22:02 4,4 C 7,2 C 3,9 C 91 % 1003,0 hPa 0,2 l/m 25,4 km/h (4 Bft) W-SW 240 0 min 0,026 mm 0,0 UV-I 0 W/m 3,1 C -5,9 C 38,6 km/h (5 Bft) 96,00 %
14.03.2019 22:04 4,4 C 7,2 C 3,9 C 91 % 1003,1 hPa 0,0 l/m 20,2 km/h (4 Bft) W 267 0 min 0,000 mm 0,0 UV-I 0 W/m 3,1 C -4,0 C 35,4 km/h (5 Bft) 97,87 %
14.03.2019 22:06 4,4 C 7,2 C 3,9 C 91 % 1003,0 hPa 0,0 l/m 19,4 km/h (3 Bft) W 273 0 min 0,000 mm 0,0 UV-I 0 W/m 3,1 C -3,7 C 29,0 km/h (5 Bft) 96,00 %
14.03.2019 22:08 4,4 C 7,2 C 3,9 C 91 % 1003,0 hPa 0,0 l/m 23,9 km/h (4 Bft) SW 233 0 min 0,000 mm 0,0 UV-I 0 W/m 3,1 C -5,4 C 40,2 km/h (6 Bft) 95,74 %
14.03.2019 22:10 4,4 C 7,2 C 3,9 C 91 % 1003,0 hPa 0,2 l/m 19,5 km/h (3 Bft) W-SW 257 0 min 0,000 mm 0,0 UV-I 0 W/m 3,1 C -3,7 C 25,7 km/h (4 Bft) 96,00 %
14.03.2019 22:12 4,4 C 7,2 C 3,9 C 91 % 1003,0 hPa 0,0 l/m 20,4 km/h (4 Bft) SW 230 0 min 0,000 mm 0,0 UV-I 0 W/m 3,1 C -4,1 C 37,0 km/h (5 Bft) 94,74 %
14.03.2019 22:14 4,5 C 7,2 C 3,9 C 91 % 1002,9 hPa 0,0 l/m 22,9 km/h (4 Bft) W-SW 258 0 min 0,000 mm 0,0 UV-I 0 W/m 3,2 C -4,9 C 32,2 km/h (5 Bft) 95,74 %
14.03.2019 22:16 4,5 C 7,2 C 3,9 C 91 % 1002,8 hPa 0,0 l/m 22,2 km/h (4 Bft) W-SW 242 0 min 0,000 mm 0,0 UV-I 0 W/m 3,2 C -4,7 C 30,6 km/h (5 Bft) 96,00 %
14.03.2019 22:18 4,5 C 7,2 C 3,9 C 91 % 1002,9 hPa 0,0 l/m 26,4 km/h (4 Bft) W-SW 239 0 min 0,000 mm 0,0 UV-I 0 W/m 3,2 C -6,1 C 37,0 km/h (5 Bft) 97,87 %
14.03.2019 22:20 4,6 C 7,2 C 3,9 C 91 % 1003,0 hPa 0,0 l/m 23,3 km/h (4 Bft) W 265 0 min 0,000 mm 0,0 UV-I 0 W/m 3,3 C -4,9 C 38,6 km/h (5 Bft) 95,74 %
14.03.2019 22:22 4,6 C 7,2 C 3,9 C 91 % 1003,0 hPa 0,0 l/m 22,6 km/h (4 Bft) W-SW 238 0 min 0,000 mm 0,0 UV-I 0 W/m 3,3 C -4,7 C 35,4 km/h (5 Bft) 98,00 %
14.03.2019 22:24 4,6 C 7,2 C 3,9 C 91 % 1002,8 hPa 0,0 l/m 24,8 km/h (4 Bft) W 263 0 min 0,000 mm 0,0 UV-I 0 W/m 3,3 C -5,4 C 41,8 km/h (6 Bft) 97,87 %
14.03.2019 22:26 4,6 C 7,2 C 3,9 C 91 % 1002,8 hPa 0,0 l/m 24,6 km/h (4 Bft) SW 221 0 min 0,000 mm 0,0 UV-I 0 W/m 3,3 C -5,4 C 33,8 km/h (5 Bft) 97,87 %
14.03.2019 22:29 4,7 C 7,2 C 3,9 C 91 % 1002,9 hPa 0,0 l/m 22,7 km/h (4 Bft) W-SW 242 0 min 0,000 mm 0,0 UV-I 0 W/m 3,4 C -4,6 C 35,4 km/h (5 Bft) 97,18 %
14.03.2019 22:30 4,7 C 7,2 C 3,9 C 91 % 1002,9 hPa 0,0 l/m 23,8 km/h (4 Bft) W-SW 255 0 min 0,000 mm 0,0 UV-I 0 W/m 3,4 C -5,0 C 35,4 km/h (5 Bft) 95,65 %
14.03.2019 22:32 4,7 C 7,2 C 3,9 C 90 % 1003,0 hPa 0,0 l/m 20,7 km/h (4 Bft) SW 222 0 min 0,000 mm 0,0 UV-I 0 W/m 3,2 C -3,8 C 32,2 km/h (5 Bft) 94,87 %
14.03.2019 22:34 4,8 C 7,2 C 3,9 C 91 % 1002,9 hPa 0,0 l/m 23,2 km/h (4 Bft) SW 230 0 min 0,000 mm 0,0 UV-I 0 W/m 3,5 C -4,6 C 37,0 km/h (5 Bft) 95,74 %
14.03.2019 22:36 4,8 C 7,2 C 3,9 C 90 % 1002,9 hPa 0,0 l/m 22,1 km/h (4 Bft) W-SW 257 0 min 0,000 mm 0,0 UV-I 0 W/m 3,3 C -4,2 C 41,8 km/h (6 Bft) 92,00 %
14.03.2019 22:38 4,8 C 7,2 C 3,9 C 90 % 1003,1 hPa 0,0 l/m 22,5 km/h (4 Bft) W-SW 248 0 min 0,000 mm 0,0 UV-I 0 W/m 3,3 C -4,4 C 32,2 km/h (5 Bft) 96,00 %
14.03.2019 22:40 4,8 C 7,2 C 3,9 C 90 % 1003,1 hPa 0,0 l/m 25,6 km/h (4 Bft) W-SW 244 0 min 0,000 mm 0,0 UV-I 0 W/m 3,3 C -5,4 C 38,6 km/h (5 Bft) 95,74 %
14.03.2019 22:42 4,8 C 7,2 C 3,9 C 90 % 1003,1 hPa 0,0 l/m 21,9 km/h (4 Bft) SW 225 0 min 0,000 mm 0,0 UV-I 0 W/m 3,3 C -4,2 C 33,8 km/h (5 Bft) 93,62 %
14.03.2019 22:44 4,9 C 7,2 C 3,9 C 90 % 1003,2 hPa 0,0 l/m 25,2 km/h (4 Bft) SW 229 0 min 0,000 mm 0,0 UV-I 0 W/m 3,4 C -5,1 C 41,8 km/h (6 Bft) 95,74 %
14.03.2019 22:46 4,9 C 7,2 C 4,4 C 90 % 1003,4 hPa 0,0 l/m 20,2 km/h (4 Bft) W-SW 246 0 min 0,000 mm 0,0 UV-I 0 W/m 3,4 C -3,4 C 29,0 km/h (5 Bft) 95,74 %
14.03.2019 22:49 4,9 C 7,2 C 4,4 C 90 % 1003,3 hPa 0,0 l/m 22,5 km/h (4 Bft) SW 228 0 min 0,000 mm 0,0 UV-I 0 W/m 3,4 C -4,2 C 35,4 km/h (5 Bft) 95,89 %
14.03.2019 22:50 4,9 C 7,2 C 4,4 C 90 % 1003,3 hPa 0,0 l/m 24,5 km/h (4 Bft) W 269 0 min 0,000 mm 0,0 UV-I 0 W/m 3,4 C -4,9 C 30,6 km/h (5 Bft) 100,00 %
14.03.2019 22:52 4,9 C 7,2 C 4,4 C 90 % 1003,3 hPa 0,0 l/m 20,7 km/h (4 Bft) W 273 0 min 0,000 mm 0,0 UV-I 0 W/m 3,4 C -3,6 C 33,8 km/h (5 Bft) 95,74 %
14.03.2019 22:54 5,0 C 7,2 C 4,4 C 90 % 1003,4 hPa 0,0 l/m 25,9 km/h (4 Bft) SW 236 0 min 0,000 mm 0,0 UV-I 0 W/m 3,5 C -5,2 C 35,4 km/h (5 Bft) 97,87 %
14.03.2019 22:56 5,1 C 7,2 C 4,4 C 90 % 1003,3 hPa 0,0 l/m 25,9 km/h (4 Bft) W 260 0 min 0,000 mm 0,0 UV-I 0 W/m 3,6 C -5,1 C 40,2 km/h (6 Bft) 93,62 %
14.03.2019 22:59 5,1 C 7,2 C 4,4 C 89 % 1003,4 hPa 0,0 l/m 22,2 km/h (4 Bft) W-SW 239 0 min 0,000 mm 0,0 UV-I 0 W/m 3,4 C -3,9 C 41,8 km/h (6 Bft) 98,80 %
14.03.2019 23:00 5,1 C 7,2 C 4,4 C 89 % 1003,4 hPa 0,0 l/m 24,0 km/h (4 Bft) W 260 0 min 0,000 mm 0,0 UV-I 0 W/m 3,4 C -4,5 C 32,2 km/h (5 Bft) 90,91 %
14.03.2019 23:02 5,1 C 7,2 C 4,4 C 89 % 1003,4 hPa 0,0 l/m 22,6 km/h (4 Bft) W-SW 250 0 min 0,025 mm 0,0 UV-I 0 W/m 3,4 C -4,0 C 32,2 km/h (5 Bft) 95,83 %
14.03.2019 23:04 5,2 C 7,2 C 4,4 C 89 % 1003,5 hPa 0,0 l/m 25,0 km/h (4 Bft) W-SW 238 0 min 0,000 mm 0,0 UV-I 0 W/m 3,5 C -4,7 C 33,8 km/h (5 Bft) 95,74 %
14.03.2019 23:06 5,2 C 7,2 C 4,4 C 89 % 1003,5 hPa 0,0 l/m 25,9 km/h (4 Bft) SW 227 0 min 0,000 mm 0,0 UV-I 0 W/m 3,5 C -5,0 C 41,8 km/h (6 Bft) 97,87 %
14.03.2019 23:09 5,3 C 7,2 C 4,4 C 89 % 1003,6 hPa 0,0 l/m 22,3 km/h (4 Bft) W-SW 246 0 min 0,000 mm 0,0 UV-I 0 W/m 3,6 C -3,6 C 33,8 km/h (5 Bft) 97,14 %
14.03.2019 23:10 5,3 C 7,2 C 4,4 C 89 % 1003,6 hPa 0,0 l/m 18,7 km/h (3 Bft) SW 236 0 min 0,000 mm 0,0 UV-I 0 W/m 3,6 C -2,3 C 29,0 km/h (5 Bft) 100,00 %
14.03.2019 23:12 5,3 C 7,2 C 4,4 C 89 % 1003,7 hPa 0,0 l/m 23,7 km/h (4 Bft) SW 234 0 min 0,000 mm 0,0 UV-I 0 W/m 3,6 C -4,1 C 37,0 km/h (5 Bft) 93,62 %
14.03.2019 23:14 5,3 C 7,2 C 4,4 C 89 % 1003,7 hPa 0,0 l/m 19,9 km/h (4 Bft) W 273 0 min 0,000 mm 0,0 UV-I 0 W/m 3,6 C -2,7 C 32,2 km/h (5 Bft) 95,74 %
14.03.2019 23:16 5,3 C 7,2 C 4,4 C 89 % 1003,8 hPa 0,0 l/m 19,1 km/h (3 Bft) W-SW 252 0 min 0,000 mm 0,0 UV-I 0 W/m 3,6 C -2,4 C 25,7 km/h (4 Bft) 93,62 %
14.03.2019 23:18 5,3 C 7,2 C 4,4 C 89 % 1003,8 hPa 0,0 l/m 15,4 km/h (3 Bft) W 269 0 min 0,000 mm 0,0 UV-I 0 W/m 3,6 C -0,8 C 22,5 km/h (4 Bft) 93,62 %
14.03.2019 23:20 5,3 C 7,2 C 4,4 C 89 % 1003,8 hPa 0,0 l/m 13,8 km/h (3 Bft) W 262 0 min 0,000 mm 0,0 UV-I 0 W/m 3,6 C 0,1 C 19,3 km/h (3 Bft) 95,74 %
14.03.2019 23:22 5,3 C 7,2 C 4,4 C 89 % 1003,8 hPa 0,0 l/m 16,2 km/h (3 Bft) W 259 0 min 0,000 mm 0,0 UV-I 0 W/m 3,6 C -1,1 C 22,5 km/h (4 Bft) 95,74 %
14.03.2019 23:24 5,3 C 7,2 C 4,4 C 89 % 1003,8 hPa 0,0 l/m 14,7 km/h (3 Bft) W 267 0 min 0,000 mm 0,0 UV-I 0 W/m 3,6 C -0,4 C 24,1 km/h (4 Bft) 95,74 %
14.03.2019 23:26 5,3 C 7,2 C 4,4 C 89 % 1003,9 hPa 0,0 l/m 17,6 km/h (3 Bft) W-SW 248 0 min 0,000 mm 0,0 UV-I 0 W/m 3,6 C -1,8 C 29,0 km/h (5 Bft) 93,62 %
14.03.2019 23:28 5,3 C 7,2 C 4,4 C 89 % 1003,9 hPa 0,0 l/m 15,5 km/h (3 Bft) W-SW 250 0 min 0,000 mm 0,0 UV-I 0 W/m 3,6 C -0,8 C 20,9 km/h (4 Bft) 95,74 %
14.03.2019 23:30 5,3 C 7,2 C 4,4 C 89 % 1003,9 hPa 0,0 l/m 16,1 km/h (3 Bft) SW 229 0 min 0,000 mm 0,0 UV-I 0 W/m 3,6 C -1,1 C 25,7 km/h (4 Bft) 96,00 %
14.03.2019 23:32 5,3 C 7,2 C 4,4 C 89 % 1003,9 hPa 0,0 l/m 17,6 km/h (3 Bft) W-SW 242 0 min 0,000 mm 0,0 UV-I 0 W/m 3,6 C -1,8 C 29,0 km/h (5 Bft) 95,74 %
14.03.2019 23:34 5,4 C 7,2 C 4,4 C 89 % 1004,0 hPa 0,0 l/m 14,0 km/h (3 Bft) SW 233 0 min 0,000 mm 0,0 UV-I 0 W/m 3,7 C 0,1 C 22,5 km/h (4 Bft) 97,87 %
14.03.2019 23:36 5,3 C 7,2 C 4,4 C 89 % 1004,1 hPa 0,0 l/m 17,3 km/h (3 Bft) W-NW 284 0 min 0,000 mm 0,0 UV-I 0 W/m 3,6 C -1,7 C 24,1 km/h (4 Bft) 94,74 %
14.03.2019 23:38 5,3 C 7,2 C 4,4 C 89 % 1004,1 hPa 0,0 l/m 16,0 km/h (3 Bft) SW 221 0 min 0,000 mm 0,0 UV-I 0 W/m 3,6 C -1,1 C 20,9 km/h (4 Bft) 96,00 %
14.03.2019 23:40 5,3 C 7,2 C 4,4 C 89 % 1004,1 hPa 0,0 l/m 19,4 km/h (3 Bft) W 269 0 min 0,000 mm 0,0 UV-I 0 W/m 3,6 C -2,5 C 25,7 km/h (4 Bft) 97,87 %
14.03.2019 23:42 5,3 C 7,2 C 4,4 C 89 % 1004,1 hPa 0,2 l/m 16,5 km/h (3 Bft) W 264 0 min 0,000 mm 0,0 UV-I 0 W/m 3,6 C -1,3 C 25,7 km/h (4 Bft) 97,87 %
14.03.2019 23:44 5,3 C 7,2 C 4,4 C 89 % 1004,3 hPa 0,0 l/m 18,6 km/h (3 Bft) W 259 0 min 0,000 mm 0,0 UV-I 0 W/m 3,6 C -2,2 C 30,6 km/h (5 Bft) 97,87 %
14.03.2019 23:46 5,3 C 7,2 C 4,4 C 89 % 1004,3 hPa 0,0 l/m 17,6 km/h (3 Bft) W-SW 256 0 min 0,000 mm 0,0 UV-I 0 W/m 3,6 C -1,8 C 24,1 km/h (4 Bft) 97,92 %
14.03.2019 23:48 5,3 C 7,2 C 4,4 C 89 % 1004,3 hPa 0,0 l/m 17,7 km/h (3 Bft) W-SW 256 0 min 0,000 mm 0,0 UV-I 0 W/m 3,6 C -1,8 C 25,7 km/h (4 Bft) 97,87 %
14.03.2019 23:50 5,3 C 7,2 C 4,4 C 89 % 1004,2 hPa 0,0 l/m 17,0 km/h (3 Bft) W-SW 253 0 min 0,000 mm 0,0 UV-I 0 W/m 3,6 C -1,5 C 24,1 km/h (4 Bft) 98,00 %
14.03.2019 23:52 5,3 C 7,2 C 4,4 C 90 % 1004,2 hPa 0,0 l/m 15,6 km/h (3 Bft) W-SW 240 0 min 0,000 mm 0,0 UV-I 0 W/m 3,8 C -0,9 C 22,5 km/h (4 Bft) 100,00 %
14.03.2019 23:54 5,3 C 7,2 C 4,4 C 90 % 1004,3 hPa 0,0 l/m 15,7 km/h (3 Bft) SW 232 0 min 0,000 mm 0,0 UV-I 0 W/m 3,8 C -0,9 C 24,1 km/h (4 Bft) 100,00 %
14.03.2019 23:56 5,3 C 7,2 C 4,4 C 90 % 1004,3 hPa 0,0 l/m 14,7 km/h (3 Bft) W 271 0 min 0,000 mm 0,0 UV-I 0 W/m 3,8 C -0,4 C 20,9 km/h (4 Bft) 100,00 %
14.03.2019 23:58 5,2 C 7,2 C 4,4 C 90 % 1004,3 hPa 0,0 l/m 15,3 km/h (3 Bft) W 264 0 min 0,000 mm 0,0 UV-I 0 W/m 3,7 C -0,8 C 22,5 km/h (4 Bft) 100,00 %
_ Min-Zeit 01:42 00:01 01:40 13:30 22:16 - 19:40 - - - - - - 13:48 01:44 19:24 18:12
Minimum _ 2,8 C 7,2 C 1,7 C 55 % 1002,8 hPa - 3,7 km/h (1 Bft) - - - - - - -0,2 C -8,2 C 6,4 km/h (2 Bft) 89,36 %
_ Max-Zeit 12:56 00:01 12:26 06:32 09:06 01:02 13:48 - - 07:16 12:00 11:46 11:50 23:52 19:04 13:28 00:02
Maximum _ 9,0 C 7,2 C 16,7 C 93 % 1012,8 hPa 0,2 l/m 36,6 km/h
W-SW (5 Bft)
- - 2 min 0,305 mm 1,6 UV-I 806 W/m 3,8 C 4,5 C 61,2 km/h
W-SW (7 Bft)
100,00 %
Durchschnitt _ 5,1 C 7,2 C 5,4 C 81 % 1008,6 hPa #8,0 l/m 19,0 km/h (3 Bft) W-SW - #2:36 h #1,854 mm 0,9 UV-I 201 W/m 2,1 C -2,1 C 29,4 km/h (5 Bft) 97,29 %